[[{"header":{"parameterUnit":"m.s-1","parameterCategory":1,"la1":31.0,"la2":29.5877,"lo1":-88.7671,"lo2":-86.6584,"dy":0.0162,"dx":0.0185,"nx":115,"ny":88,"refTime":"2026-04-29T00:00:00:Z","depth":0,"parameterNumber":2,"parameterNumberName":"U-component_of_WINDS"},"data":[0.0,0.0,0.0,0.0,0.0,0.0,0.0,0.0,0.0,0.0,0.0,0.0,0.0,0.0,0.0,0.0,0.0,0.0,0.0,0.0,0.0,0.0,0.0,0.0,0.0,0.0,0.0,0.0,0.0,0.0,0.0,0.0,0.0,0.0,0.0,0.0,0.0,0.0,0.0,0.0,0.0,0.0,0.0,0.0,0.0,0.0,0.0,0.0,0.0,0.0,0.0,0.0,0.0,0.0,0.0,0.0,0.0,0.0,0.0,0.0,0.0,0.0,0.0,0.0,0.0,0.0,0.0,0.0,0.0,0.0,0.0,0.0,0.0,0.0,0.0,0.0,0.0,0.0,0.0,0.0,0.0,0.0,0.0,0.0,0.0,0.0,0.0,0.0,0.0,0.0,0.0,0.0,0.0,0.0,0.0,0.0,0.0,0.0,0.0,0.0,0.0,0.0,0.0,0.0,0.0,0.0,0.0,0.0,0.0,0.0,0.0,0.0,0.0,0.0,0.0,0.0,0.0,0.0,0.0,0.0,0.0,0.0,0.0,0.0,0.0,0.0,0.0,0.0,0.0,0.0,0.0,0.0,0.0,0.0,0.0,0.0,0.0,0.0,0.0,0.0,0.0,0.0,0.0,0.0,0.0,0.0,0.0,0.0,0.0,0.0,0.0,0.0,0.0,0.0,0.0,0.0,0.0,0.0,0.0,0.0,0.0,0.0,0.0,0.0,0.0,0.0,0.0,0.0,0.0,0.0,0.0,0.0,0.0,0.0,0.0,0.0,0.0,0.0,0.0,0.0,0.0,0.0,0.0,0.0,0.0,0.0,0.0,0.0,0.0,0.0,0.0,0.0,0.0,0.0,0.0,0.0,0.0,0.0,0.0,0.0,0.0,0.0,0.0,0.0,0.0,0.0,0.0,0.0,0.0,0.0,0.0,0.0,0.0,0.0,0.0,0.0,0.0,0.0,0.0,0.0,0.0,0.0,0.0,0.0,0.0,0.0,0.0,0.0,0.0,0.0,0.0,0.0,0.0,0.0,0.0,0.0,0.0,0.0,0.0,0.0,0.0,0.0,0.0,0.0,0.0,0.0,0.0,0.0,0.0,0.0,0.0,0.0,0.0,0.0,0.0,0.0,0.0,0.0,0.0,0.0,0.0,0.0,0.0,0.0,0.0,0.0,0.0,0.0,0.0,0.0,0.0,0.0,0.0,0.0,0.0,0.0,0.0,0.0,0.0,0.0,0.0,0.0,0.0,0.0,0.0,0.0,0.0,0.0,0.0,0.0,0.0,0.0,0.0,0.0,0.0,0.0,0.0,0.0,0.0,0.0,0.0,0.0,0.0,0.0,0.0,0.0,0.0,0.0,0.0,0.0,0.0,0.0,0.0,0.0,0.0,0.0,0.0,0.0,0.0,0.0,0.0,0.0,0.0,0.0,0.0,0.0,0.0,0.0,0.0,0.0,0.0,0.0,0.0,0.0,0.0,0.0,0.0,0.0,0.0,0.0,0.0,0.0,0.0,0.0,0.0,0.0,0.0,0.0,0.0,0.0,0.0,0.0,0.0,0.0,0.0,0.0,0.0,0.0,0.0,0.0,0.0,0.0,0.0,0.0,0.0,0.0,0.0,0.0,0.0,0.0,0.0,0.0,0.0,0.0,0.0,0.0,0.0,0.0,0.0,0.0,0.0,0.0,0.0,0.0,0.0,0.0,0.0,0.0,0.0,0.0,0.0,0.0,0.0,0.0,0.0,0.0,0.0,0.0,0.0,0.0,0.0,0.0,0.0,0.0,0.0,0.0,0.0,0.0,0.0,0.0,0.0,0.0,0.0,0.0,0.0,0.0,0.0,0.0,0.0,0.0,0.0,0.0,0.0,0.0,0.0,0.0,0.0,0.0,0.0,0.0,0.0,0.0,0.0,0.0,0.0,0.0,0.0,0.0,0.0,0.0,0.0,0.0,0.0,0.0,0.0,0.0,0.0,0.0,0.0,0.0,0.0,0.0,0.0,0.0,0.0,0.0,0.0,0.0,0.0,0.0,0.0,0.0,0.0,0.0,0.0,0.0,0.0,0.0,0.0,0.0,0.0,0.0,0.0,0.0,0.0,0.0,0.0,0.0,0.0,0.0,0.0,0.0,0.0,0.0,0.0,0.0,0.0,0.0,0.0,0.0,0.0,0.0,0.0,0.0,0.0,0.0,0.0,0.0,0.0,0.0,0.0,0.0,0.0,0.0,0.0,0.0,0.0,0.0,0.0,0.0,0.0,0.0,0.0,0.0,0.0,0.0,0.0,0.0,0.0,0.0,0.0,0.0,0.0,0.0,0.0,0.0,0.0,0.0,0.0,0.0,0.0,0.0,0.0,0.0,0.0,0.0,0.0,0.0,0.0,0.0,0.0,0.0,0.0,0.0,0.0,0.0,0.0,0.0,0.0,0.0,0.0,0.0,0.0,0.0,0.0,0.0,0.0,0.0,0.0,0.0,0.0,0.0,0.0,0.0,0.0,0.0,0.0,0.0,0.0,0.0,0.0,0.0,0.0,0.0,0.0,0.0,0.0,0.0,0.0,0.0,0.0,0.0,0.0,0.0,0.0,0.0,0.0,0.0,0.0,0.0,0.0,0.0,0.0,0.0,0.0,0.0,0.0,0.0,0.0,0.0,0.0,0.0,0.0,0.0,0.0,0.0,0.0,0.0,0.0,0.0,0.0,0.0,0.0,0.0,0.0,0.0,0.0,0.0,0.0,0.0,0.0,0.0,0.0,0.0,0.0,0.0,0.0,0.0,0.0,0.0,0.0,0.0,0.0,0.0,0.0,0.0,0.0,0.0,0.0,0.0,0.0,0.0,0.0,0.0,0.0,0.0,0.0,0.0,0.0,0.0,0.0,0.0,0.0,0.0,0.0,0.0,0.0,0.0,0.0,0.0,0.0,0.0,0.0,0.0,0.0,0.0,0.0,0.0,0.0,0.0,0.0,0.0,0.0,0.0,0.0,0.0,0.0,0.0,0.0,0.0,0.0,0.0,0.0,0.0,0.0,0.0,0.0,0.0,0.0,0.0,0.0,0.0,0.0,0.0,0.0,0.0,0.0,0.0,0.0,0.0,0.0,0.0,0.0,0.0,0.0,0.0,0.0,0.0,0.0,0.0,0.0,0.0,0.0,0.0,0.0,0.0,0.0,0.0,0.0,0.0,0.0,0.0,0.0,0.0,0.0,0.0,0.0,0.0,0.0,0.0,0.0,0.0,0.0,0.0,0.0,0.0,0.0,0.0,0.0,0.0,0.0,0.0,0.0,0.0,0.0,0.0,0.0,0.0,0.0,0.0,0.0,0.0,0.0,0.0,0.0,0.0,0.0,0.0,0.0,0.0,0.0,0.0,0.0,0.0,0.0,0.0,0.0,0.0,0.0,0.0,0.0,0.0,0.0,0.0,0.0,0.0,0.0,0.0,0.0,0.0,0.0,0.0,0.0,0.0,0.0,0.0,0.0,0.0,0.0,0.0,0.0,0.0,0.0,0.0,0.0,0.0,0.0,0.0,0.0,0.0,0.0,0.0,0.0,0.0,0.0,0.0,0.0,0.0,0.0,0.0,0.0,0.0,0.0,0.0,0.0,0.0,0.0,0.0,0.0,0.0,0.0,0.0,0.0,0.0,0.0,0.0,0.0,0.0,0.0,0.0,0.0,0.0,0.0,0.0,0.0,0.0,0.0,0.0,0.0,0.0,0.0,0.0,0.0,0.0,0.0,0.0,0.0,0.0,0.0,0.0,0.0,0.0,0.0,0.0,0.0,0.0,0.0,0.0,0.0,0.0,0.0,0.0,0.0,0.0,0.0,0.0,0.0,0.0,0.0,0.0,0.0,0.0,0.0,0.0,0.0,0.0,0.0,0.0,0.0,0.0,0.0,0.0,0.0,0.0,0.0,0.0,0.0,0.0,0.0,0.0,0.0,0.0,0.0,0.0,0.0,0.0,0.0,0.0,0.0,0.0,0.0,0.0,0.0,0.0,0.0,0.0,0.0,0.0,0.0,0.0,0.0,0.0,0.0,0.0,0.0,0.0,0.0,0.0,0.0,0.0,0.0,0.0,0.0,0.0,0.0,0.0,0.0,0.0,0.0,0.0,0.0,0.0,0.0,0.0,0.0,0.0,0.0,0.0,0.0,0.0,0.0,0.0,0.0,0.0,0.0,0.0,0.0,0.0,0.0,0.0,0.0,0.0,0.0,0.0,0.0,0.0,0.0,0.0,0.0,0.0,0.0,0.0,0.0,0.0,0.0,0.0,2.3879,0.0,0.0,0.0,0.0,0.0,0.0,0.0,0.0,0.0,0.0,0.0,0.0,0.0,0.0,0.0,0.0,0.0,0.0,0.0,0.0,0.0,0.0,0.0,0.0,0.0,0.0,0.0,0.0,0.0,0.0,0.0,0.0,0.0,0.0,0.0,0.0,0.0,0.0,0.0,0.0,0.0,0.0,0.0,0.0,0.0,0.0,0.0,0.0,0.0,0.0,0.0,0.0,0.0,0.0,0.0,0.0,0.0,0.0,0.0,0.0,0.0,0.0,0.0,0.0,0.0,0.0,0.0,0.0,0.0,0.0,0.0,0.0,0.0,0.0,0.0,0.0,0.0,0.0,0.0,0.0,0.0,0.0,0.0,0.0,0.0,0.0,0.0,0.0,0.0,0.0,0.0,0.0,0.0,0.0,0.0,0.0,0.0,0.0,0.0,0.0,0.0,0.0,0.0,0.0,0.0,0.0,0.0,0.0,0.0,0.0,2.4155,2.3521,2.413,2.4155,2.3521,0.0,0.0,0.0,0.0,0.0,0.0,0.0,0.0,0.0,0.0,0.0,0.0,0.0,0.0,0.0,0.0,0.0,0.0,0.0,0.0,0.0,0.0,0.0,0.0,0.0,0.0,0.0,0.0,0.0,0.0,0.0,0.0,0.0,0.0,0.0,0.0,0.0,0.0,0.0,0.0,0.0,0.0,0.0,0.0,0.0,0.0,0.0,0.0,0.0,0.0,0.0,0.0,0.0,0.0,0.0,0.0,0.0,0.0,0.0,0.0,0.0,0.0,0.0,0.0,0.0,0.0,0.0,0.0,0.0,0.0,0.0,0.0,0.0,0.0,0.0,0.0,0.0,0.0,0.0,0.0,0.0,0.0,0.0,0.0,0.0,0.0,0.0,0.0,0.0,0.0,0.0,0.0,0.0,0.0,0.0,0.0,0.0,0.0,0.0,0.0,0.0,0.0,0.0,0.0,0.0,0.0,0.0,0.0,0.0,0.0,0.0,0.0,2.4711,2.4636,2.366,0.0,0.0,0.0,0.0,0.0,0.0,0.0,0.0,0.0,0.0,0.0,0.0,0.0,0.0,0.0,0.0,0.0,0.0,0.0,0.0,0.0,0.0,0.0,0.0,0.0,0.0,0.0,0.0,0.0,0.0,0.0,0.0,0.0,0.0,0.0,0.0,0.0,0.0,0.0,0.0,0.0,0.0,0.0,0.0,0.0,0.0,0.0,0.0,0.0,0.0,0.0,0.0,0.0,0.0,0.0,0.0,0.0,0.0,0.0,0.0,0.0,0.0,0.0,0.0,0.0,0.0,0.0,0.0,0.0,0.0,0.0,0.0,0.0,0.0,0.0,0.0,0.0,0.0,0.0,0.0,0.0,0.0,0.0,0.0,0.0,0.0,0.0,0.0,0.0,0.0,0.0,0.0,0.0,0.0,0.0,0.0,0.0,0.0,0.0,0.0,0.0,0.0,0.0,0.0,0.0,0.0,0.0,0.0,0.0,0.0,2.4861,2.6501,2.6179,0.0,2.5136,0.0,0.0,0.0,0.0,0.0,0.0,0.0,0.0,0.0,0.0,0.0,0.0,0.0,0.0,0.0,0.0,0.0,0.0,0.0,0.0,0.0,0.0,0.0,0.0,0.0,0.0,0.0,0.0,0.0,0.0,0.0,0.0,0.0,0.0,0.0,0.0,0.0,0.0,0.0,0.0,0.0,0.0,0.0,0.0,0.0,0.0,0.0,0.0,0.0,0.0,0.0,0.0,0.0,0.0,0.0,0.0,0.0,0.0,0.0,0.0,0.0,0.0,0.0,0.0,0.0,0.0,0.0,0.0,0.0,0.0,0.0,0.0,0.0,0.0,0.0,0.0,0.0,0.0,0.0,0.0,0.0,0.0,0.0,0.0,0.0,0.0,0.0,0.0,0.0,0.0,0.0,0.0,0.0,0.0,0.0,0.0,0.0,0.0,0.0,0.0,0.0,0.0,0.0,0.0,0.0,0.0,0.0,0.0,0.0,0.0,0.0,2.5748,2.5586,2.5216,0.0,0.0,0.0,0.0,0.0,0.0,0.0,0.0,0.0,0.0,0.0,0.0,0.0,0.0,0.0,0.0,0.0,0.0,0.0,0.0,0.0,0.0,0.0,0.0,0.0,0.0,0.0,0.0,0.0,0.0,0.0,0.0,0.0,0.0,0.0,0.0,0.0,0.0,0.0,0.0,0.0,0.0,0.0,0.0,0.0,0.0,0.0,0.0,0.0,0.0,0.0,0.0,0.0,0.0,0.0,0.0,0.0,0.0,0.0,0.0,0.0,0.0,0.0,0.0,0.0,0.0,0.0,0.0,0.0,0.0,0.0,0.0,0.0,0.0,0.0,0.0,0.0,0.0,0.0,0.0,0.0,0.0,0.0,0.0,0.0,0.0,0.0,0.0,0.0,0.0,0.0,0.0,0.0,0.0,0.0,0.0,0.0,0.0,0.0,0.0,0.0,0.0,0.0,0.0,0.0,0.0,0.0,0.0,0.0,0.0,2.5197,0.0,2.5599,2.5599,2.5159,2.4157,0.0,0.0,0.0,0.0,0.0,0.0,0.0,0.0,0.0,0.0,0.0,0.0,0.0,0.0,0.0,0.0,0.0,0.0,0.0,0.0,0.0,0.0,0.0,0.0,0.0,0.0,0.0,0.0,0.0,0.0,0.0,0.0,0.0,0.0,0.0,0.0,0.0,0.0,0.0,0.0,0.0,0.0,0.0,0.0,0.0,0.0,0.0,0.0,0.0,0.0,0.0,0.0,0.0,0.0,0.0,0.0,0.0,0.0,0.0,0.0,0.0,0.0,0.0,0.0,0.0,0.0,0.0,0.0,0.0,0.0,0.0,0.0,0.0,0.0,0.0,0.0,0.0,0.0,0.0,0.0,0.0,0.0,0.0,0.0,0.0,0.0,0.0,0.0,0.0,0.0,0.0,0.0,0.0,0.0,0.0,0.0,0.0,0.0,0.0,0.0,0.0,0.0,0.0,0.0,0.0,0.0,0.0,0.0,0.0,2.5966,2.5721,2.7015,2.71,2.6105,0.0,0.0,0.0,0.0,0.0,0.0,0.0,0.0,0.0,0.0,0.0,0.0,0.0,0.0,0.0,0.0,0.0,0.0,0.0,0.0,0.0,0.0,0.0,0.0,0.0,0.0,0.0,0.0,0.0,0.0,0.0,0.0,0.0,0.0,0.0,0.0,0.0,0.0,0.0,0.0,0.0,0.0,0.0,0.0,0.0,0.0,0.0,0.0,0.0,0.0,0.0,0.0,0.0,0.0,0.0,0.0,0.0,0.0,0.0,0.0,0.0,0.0,0.0,0.0,0.0,0.0,0.0,0.0,0.0,0.0,0.0,0.0,0.0,0.0,0.0,0.0,0.0,0.0,0.0,0.0,0.0,0.0,0.0,0.0,0.0,0.0,0.0,0.0,0.0,0.0,0.0,0.0,0.0,0.0,0.0,0.0,0.0,0.0,0.0,0.0,0.0,0.0,0.0,0.0,0.0,0.0,0.0,0.0,0.0,2.4332,2.459,2.5613,2.7455,2.5946,2.4669,0.0,0.0,0.0,0.0,0.0,0.0,0.0,0.0,0.0,0.0,0.0,0.0,0.0,0.0,0.0,0.0,0.0,0.0,0.0,0.0,0.0,0.0,0.0,0.0,0.0,0.0,0.0,0.0,0.0,0.0,0.0,0.0,0.0,0.0,0.0,0.0,0.0,0.0,0.0,0.0,0.0,0.0,0.0,0.0,0.0,0.0,0.0,0.0,0.0,0.0,0.0,0.0,0.0,0.0,0.0,0.0,0.0,0.0,0.0,0.0,0.0,0.0,0.0,0.0,0.0,0.0,0.0,0.0,0.0,0.0,0.0,0.0,0.0,0.0,0.0,0.0,0.0,0.0,0.0,0.0,0.0,0.0,0.0,0.0,0.0,0.0,0.0,0.0,0.0,0.0,0.0,0.0,0.0,0.0,0.0,0.0,0.0,0.0,0.0,0.0,0.0,0.0,0.0,0.0,0.0,0.0,0.0,0.0,0.0,2.3233,0.0,2.5424,0.0,2.5038,2.356,0.0,0.0,0.0,0.0,0.0,0.0,0.0,0.0,0.0,0.0,0.0,0.0,0.0,0.0,0.0,0.0,0.0,0.0,0.0,0.0,0.0,0.0,0.0,0.0,0.0,0.0,0.0,0.0,0.0,0.0,0.0,0.0,0.0,0.0,0.0,0.0,0.0,0.0,0.0,0.0,0.0,0.0,0.0,0.0,0.0,0.0,0.0,0.0,0.0,0.0,0.0,0.0,0.0,0.0,0.0,0.0,0.0,0.0,0.0,0.0,0.0,0.0,0.0,0.0,0.0,0.0,0.0,0.0,0.0,0.0,0.0,0.0,0.0,0.0,0.0,0.0,0.0,0.0,0.0,0.0,0.0,0.0,0.0,0.0,0.0,0.0,0.0,0.0,0.0,0.0,0.0,0.0,0.0,0.0,0.0,0.0,0.0,0.0,0.0,0.0,0.0,0.0,0.0,0.0,0.0,0.0,0.0,0.0,2.3045,2.4803,2.5185,2.5082,2.4544,2.4564,2.2892,0.0,0.0,0.0,0.0,0.0,0.0,0.0,0.0,0.0,0.0,0.0,0.0,0.0,0.0,0.0,0.0,0.0,0.0,0.0,0.0,0.0,0.0,0.0,0.0,0.0,0.0,0.0,0.0,0.0,0.0,0.0,0.0,0.0,0.0,0.0,0.0,0.0,0.0,0.0,0.0,0.0,0.0,0.0,0.0,0.0,0.0,0.0,0.0,0.0,0.0,0.0,0.0,0.0,0.0,0.0,0.0,0.0,0.0,0.0,0.0,0.0,0.0,0.0,0.0,0.0,0.0,0.0,0.0,0.0,0.0,0.0,0.0,0.0,0.0,0.0,0.0,0.0,0.0,0.0,0.0,0.0,0.0,0.0,0.0,0.0,0.0,0.0,0.0,0.0,0.0,0.0,0.0,0.0,0.0,0.0,0.0,0.0,0.0,0.0,0.0,0.0,0.0,0.0,0.0,0.0,0.0,0.0,0.0,0.0,2.2446,2.3038,2.3673,2.4166,2.2422,2.1242,0.0,0.0,0.0,0.0,0.0,0.0,0.0,0.0,0.0,0.0,0.0,0.0,0.0,0.0,0.0,0.0,0.0,0.0,0.0,0.0,0.0,0.0,0.0,0.0,0.0,0.0,0.0,0.0,0.0,0.0,0.0,0.0,0.0,0.0,0.0,0.0,0.0,0.0,0.0,0.0,0.0,0.0,0.0,0.0,0.0,0.0,0.0,0.0,0.0,0.0,0.0,0.0,0.0,0.0,0.0,0.0,0.0,0.0,0.0,0.0,0.0,0.0,0.0,0.0,0.0,0.0,0.0,0.0,0.0,0.0,0.0,0.0,0.0,0.0,0.0,0.0,0.0,0.0,0.0,0.0,0.0,0.0,0.0,0.0,0.0,0.0,0.0,0.0,0.0,0.0,0.0,0.0,0.0,0.0,0.0,0.0,0.0,0.0,0.0,0.0,0.0,0.0,0.0,0.0,0.0,0.0,0.0,0.0,0.0,2.0316,2.2295,2.3453,2.3608,2.179,2.0447,1.9805,0.0,0.0,0.0,0.0,0.0,0.0,0.0,0.0,0.0,0.0,0.0,0.0,0.0,0.0,0.0,0.0,0.0,0.0,0.0,0.0,0.0,0.0,0.0,0.0,0.0,0.0,0.0,0.0,0.0,0.0,0.0,0.0,0.0,0.0,0.0,0.0,0.0,0.0,0.0,0.0,0.0,0.0,0.0,0.0,0.0,0.0,0.0,0.0,0.0,0.0,0.0,0.0,0.0,0.0,0.0,0.0,0.0,0.0,0.0,0.0,0.0,0.0,0.0,0.0,0.0,0.0,0.0,0.0,0.0,0.0,0.0,0.0,0.0,0.0,0.0,0.0,0.0,0.0,0.0,0.0,0.0,0.0,0.0,0.0,0.0,0.0,0.0,0.0,0.0,0.0,0.0,0.0,0.0,0.0,0.0,0.0,0.0,0.0,0.0,0.0,0.0,0.0,0.0,0.0,0.0,0.0,0.0,0.0,1.8433,2.2522,2.4052,2.2641,2.222,2.0458,0.0,0.0,0.0,0.0,0.0,0.0,0.0,0.0,0.0,0.0,0.0,0.0,0.0,0.0,0.0,0.0,0.0,0.0,0.0,0.0,0.0,0.0,0.0,0.0,0.0,0.0,0.0,0.0,0.0,0.0,0.0,0.0,0.0,0.0,0.0,0.0,0.0,0.0,0.0,0.0,0.0,0.0,0.0,0.0,0.0,0.0,0.0,0.0,0.0,0.0,0.0,0.0,0.0,0.0,0.0,0.0,0.0,0.0,0.0,0.0,0.0,0.0,0.0,0.0,0.0,0.0,0.0,0.0,0.0,0.0,0.0,0.0,0.0,0.0,0.0,0.0,0.0,0.0,0.0,0.0,0.0,0.0,0.0,0.0,0.0,0.0,0.0,0.0,0.0,0.0,0.0,0.0,0.0,0.0,0.0,0.0,0.0,0.0,0.0,0.0,0.0,0.0,0.0,0.0,0.0,0.0,0.0,0.0,0.0,1.845,2.053,2.1734,2.1772,2.0271,1.8889,0.0,0.0,0.0,0.0,0.0,0.0,0.0,0.0,0.0,0.0,0.0,0.0,0.0,0.0,0.0,0.0,0.0,0.0,0.0,0.0,0.0,0.0,0.0,0.0,0.0,0.0,0.0,0.0,0.0,0.0,0.0,0.0,0.0,0.0,0.0,0.0,0.0,0.0,0.0,0.0,0.0,0.0,0.0,0.0,0.0,0.0,0.0,0.0,0.0,0.0,0.0,0.0,0.0,0.0,0.0,0.0,0.0,0.0,0.0,0.0,0.0,0.0,0.0,0.0,0.0,0.0,0.0,0.0,0.0,0.0,0.0,0.0,0.0,0.0,0.0,0.0,0.0,0.0,0.0,0.0,0.0,0.0,0.0,0.0,0.0,0.0,0.0,0.0,0.0,0.0,0.0,0.0,0.0,0.0,0.0,0.0,0.0,0.0,0.0,0.0,0.0,0.0,0.0,0.0,0.0,0.0,0.0,0.0,1.6594,1.6828,1.8273,1.9128,1.9352,1.8524,1.7646,0.0,0.0,0.0,0.0,0.0,0.0,0.0,0.0,0.0,0.0,0.0,0.0,0.0,0.0,0.0,0.0,0.0,0.0,0.0,0.0,0.0,0.0,0.0,0.0,0.0,0.0,0.0,0.0,0.0,0.0,0.0,0.0,0.0,0.0,0.0,0.0,0.0,0.0,0.0,0.0,0.0,0.0,0.0,0.0,0.0,0.0,0.0,0.0,0.0,0.0,0.0,0.0,0.0,0.0,0.0,0.0,0.0,0.0,0.0,0.0,0.0,0.0,0.0,0.0,0.0,0.0,0.0,0.0,0.0,0.0,0.0,0.0,0.0,0.0,0.0,0.0,0.0,0.0,0.0,0.0,0.0,0.0,0.0,0.0,0.0,0.0,0.0,0.0,0.0,0.0,0.0,0.0,0.0,0.0,0.0,0.0,0.0,0.0,0.0,0.0,0.0,0.0,0.0,0.0,0.0,0.0,0.0,0.0,1.5129,1.441,1.5926,1.6564,1.612,1.6969,1.6562,0.0,0.0,0.0,0.0,0.0,0.0,0.0,0.0,0.0,0.0,0.0,0.0,0.0,0.0,0.0,0.0,0.0,0.0,0.0,0.0,0.0,0.0,0.0,0.0,0.0,0.0,0.0,0.0,0.0,0.0,0.0,0.0,0.0,0.0,0.0,0.0,0.0,0.0,0.0,0.0,0.0,0.0,0.0,0.0,0.0,0.0,0.0,0.0,0.0,0.0,0.0,0.0,0.0,0.0,0.0,0.0,0.0,0.0,0.0,0.0,0.0,0.0,0.0,0.0,0.0,0.0,0.0,0.0,0.0,0.0,0.0,0.0,0.0,0.0,0.0,0.0,0.0,0.0,0.0,0.0,0.0,0.0,0.0,0.0,0.0,0.0,0.0,0.0,0.0,0.0,0.0,0.0,0.0,0.0,0.0,0.0,0.0,0.0,0.0,0.0,0.0,0.0,0.0,0.0,0.0,0.0,0.0,0.0,1.3225,1.3037,1.3953,1.4286,1.394,1.5073,1.5003,0.0,0.0,0.0,0.0,0.0,0.0,0.0,0.0,0.0,0.0,0.0,0.0,0.0,0.0,0.0,0.0,0.0,0.0,0.0,0.0,0.0,0.0,0.0,0.0,0.0,0.0,0.0,0.0,0.0,0.0,0.0,0.0,0.0,0.0,0.0,0.0,0.0,0.0,0.0,0.0,0.0,0.0,0.0,0.0,0.0,0.0,0.0,0.0,-0.4737,0.0,0.0,0.0,0.0,0.0,0.0,0.0,0.0,0.0,0.0,0.0,0.0,0.0,0.0,0.0,0.0,0.0,0.0,0.0,0.0,0.0,0.0,0.0,0.0,0.0,0.0,0.0,0.0,0.0,0.0,0.0,0.0,0.0,0.0,0.0,0.0,0.0,0.0,0.0,0.0,0.0,0.0,0.0,0.0,0.0,0.0,0.0,0.0,0.0,0.0,0.0,0.0,0.0,0.0,0.0,0.0,0.0,0.0,0.0,1.0472,1.0285,1.0965,1.1186,1.0977,1.1393,1.1851,0.0,0.0,0.0,0.0,0.0,0.0,0.0,0.0,0.0,0.0,0.0,0.0,0.0,0.0,0.0,0.0,0.0,0.0,0.0,0.0,0.0,0.0,0.0,0.0,0.0,0.0,0.0,0.0,0.0,0.0,0.0,0.0,0.0,0.0,0.0,0.0,0.0,0.0,0.0,0.0,0.0,0.0,0.0,0.0,0.0,0.0,0.0,0.0,0.0,0.0,0.0,0.0,0.0,0.0,0.0,0.0,0.0,0.0,0.0,0.0,0.0,0.0,0.0,0.0,0.0,0.0,0.0,0.0,0.0,0.0,0.0,0.0,0.0,0.0,0.0,0.0,0.0,0.0,0.0,0.0,0.0,0.0,0.0,0.0,0.0,0.0,0.0,0.0,0.0,0.0,0.0,0.0,0.0,0.0,0.0,0.0,0.0,0.0,0.0,0.0,0.0,0.0,0.0,0.0,0.0,0.0,0.0,0.8242,0.8004,0.7594,0.8182,0.8401,0.8211,0.7727,0.8463,1.0524,0.0,0.0,0.0,0.0,0.0,0.0,0.0,0.0,0.0,0.0,0.0,0.0,0.0,0.0,0.0,0.0,0.0,0.0,0.0,0.0,0.0,0.0,0.0,0.0,0.0,0.0,0.0,0.0,0.0,0.0,0.0,0.0,0.0,0.0,0.0,0.0,0.0,0.0,-0.1958,-0.3576,0.0,0.0,0.0,0.0,0.0,0.0,0.0,0.0,-0.7358,0.0,0.0,0.0,0.0,0.0,0.0,0.0,0.0,0.0,0.0,0.0,0.0,0.0,0.0,0.0,0.0,0.0,0.0,0.0,0.0,0.0,0.0,0.0,0.0,0.0,0.0,0.0,0.0,0.0,0.0,0.0,0.0,0.0,0.0,0.0,0.0,0.0,0.0,0.0,0.0,0.0,0.0,0.0,0.0,0.0,0.0,0.0,0.0,0.0,0.0,0.0,0.0,0.0,0.0,0.0,0.0,0.7817,0.7823,0.7651,0.7298,0.7549,0.7578,0.7381,0.7102,0.7167,0.7583,0.0,0.0,0.0,0.0,0.0,0.0,0.0,0.0,0.0,0.0,0.0,0.0,0.0,0.0,0.0,0.0,0.0,0.0,0.0,0.0,0.0,0.0,0.0,0.0,0.0,0.0,0.0,0.0,0.0,0.0,0.0,0.0,0.0,0.0,0.0,0.0,0.0,0.0,0.0,-0.7126,-0.79,0.0,0.0,0.0,0.0,0.0,0.0,0.0,0.0,-0.8717,0.0,0.0,0.0,0.0,0.0,0.0,0.0,0.0,0.0,0.0,0.0,0.0,0.0,0.0,0.0,0.0,0.0,0.0,0.0,0.0,0.0,0.0,0.0,0.0,0.0,0.0,0.0,0.0,0.0,0.0,0.0,0.0,0.0,0.0,0.0,0.0,0.0,0.0,0.0,0.0,0.0,0.0,0.0,0.0,0.0,0.0,0.0,0.0,0.0,0.0,0.0,0.0,0.0,0.0,0.0,0.5119,0.4542,0.4208,0.4066,0.4204,0.4207,0.4073,0.3966,0.4098,0.0,0.0,0.0,0.0,0.0,0.0,0.0,0.0,0.0,0.0,0.0,0.0,0.0,0.0,0.0,0.0,0.0,0.0,0.0,0.0,0.0,0.0,0.0,0.0,0.0,0.0,0.0,0.0,0.0,0.0,0.0,0.0,0.0,0.0,0.0,0.0,0.0,0.0,0.0,0.0,-0.9747,-1.0685,-1.169,0.0,0.0,0.0,0.0,0.0,0.0,-1.05,-1.0349,0.0,0.0,0.0,0.0,0.0,0.0,0.0,0.0,0.0,0.0,0.0,0.0,0.0,0.0,0.0,0.0,0.0,0.0,0.0,0.0,0.0,0.0,0.0,0.0,0.0,0.0,0.0,0.0,0.0,0.0,0.0,0.0,0.0,0.0,0.0,0.0,0.0,0.0,0.0,0.0,0.0,0.0,0.0,0.0,0.0,0.0,0.0,0.0,0.0,0.0,0.0,0.0,0.0,0.0,0.0,0.218,0.1034,0.0356,0.0226,0.0305,0.0306,0.0227,0.0342,0.0864,0.0,0.0,0.0,0.0,0.0,0.0,0.0,0.0,0.0,0.0,0.0,0.0,0.0,0.0,0.0,0.0,0.0,0.0,0.0,0.0,0.0,0.0,0.0,0.0,0.0,0.0,0.0,0.0,0.0,0.0,0.0,0.0,0.0,0.0,0.0,0.0,0.0,0.0,0.0,0.0,0.0,-1.3289,-1.3798,-1.3,0.0,0.0,0.0,0.0,-1.1697,-1.2654,0.0,0.0,0.0,0.0,0.0,0.0,0.0,0.0,0.0,0.0,0.0,0.0,0.0,0.0,0.0,0.0,0.0,0.0,0.0,0.0,0.0,0.0,0.0,0.0,0.0,0.0,0.0,0.0,0.0,0.0,0.0,0.0,0.0,0.0,0.0,0.0,0.0,0.0,0.0,0.0,0.0,0.0,0.0,0.0,0.0,0.0,0.0,0.0,0.0,0.0,0.0,0.0,0.0,0.0,0.0,0.0,0.039,-0.125,-0.2418,-0.3002,-0.3023,-0.3023,-0.3014,-0.2796,-0.1787,0.0,0.0,0.0,0.0,0.0,0.0,0.0,0.0,0.0,0.0,0.0,0.0,0.0,0.0,0.0,0.0,0.0,0.0,0.0,0.0,0.0,0.0,0.0,0.0,0.0,0.0,0.0,0.0,0.0,0.0,0.0,0.0,0.0,0.0,0.0,0.0,0.0,0.0,0.0,0.0,0.0,-1.5306,-1.5106,-1.4566,-1.4461,0.0,0.0,-1.4891,-1.7128,-1.7783,0.0,0.0,0.0,0.0,0.0,0.0,0.0,0.0,0.0,0.0,0.0,0.0,0.0,0.0,0.0,0.0,0.0,0.0,0.0,0.0,0.0,0.0,0.0,0.0,0.0,0.0,0.0,0.0,0.0,0.0,0.0,0.0,0.0,0.0,0.0,0.0,0.0,0.0,0.0,0.0,0.0,0.0,0.0,0.0,0.0,0.0,0.0,0.0,0.0,0.0,0.0,0.0,0.0,0.0,0.0,-0.055,-0.0951,-0.2791,-0.3918,-0.4173,-0.4286,-0.4199,-0.4066,-0.3836,-0.3107,0.0,0.0,0.0,0.0,0.0,0.0,0.0,0.0,0.0,0.0,0.0,0.0,0.0,0.0,0.0,0.0,0.0,0.0,0.0,0.0,0.0,0.0,0.0,0.0,0.0,0.0,0.0,0.0,0.0,0.0,0.0,0.0,0.0,0.0,0.0,0.0,0.0,0.0,0.0,0.0,0.0,0.0,-1.6953,-1.7026,0.0,0.0,0.0,-1.6768,-1.7841,0.0,0.0,0.0,0.0,0.0,0.0,0.0,0.0,0.0,0.0,0.0,0.0,0.0,0.0,0.0,0.0,0.0,0.0,0.0,0.0,0.0,0.0,0.0,0.0,0.0,0.0,0.0,0.0,0.0,0.0,0.0,0.0,0.0,0.0,0.0,0.0,0.0,0.0,0.0,0.0,0.0,0.0,0.0,0.0,0.0,0.0,0.0,0.0,0.0,0.0,0.0,0.0,0.0,0.0,0.0,0.0,0.0,-0.2298,-0.4609,-0.5835,-0.592,-0.5907,-0.5874,-0.5739,-0.5367,0.0,0.0,0.0,0.0,0.0,0.0,0.0,0.0,0.0,0.0,0.0,0.0,0.0,0.0,0.0,0.0,0.0,0.0,0.0,0.0,0.0,0.0,0.0,0.0,0.0,0.0,0.0,-0.5507,0.0,0.0,0.0,0.0,0.0,0.0,0.0,0.0,0.0,0.0,0.0,0.0,0.0,0.0,-1.8536,-1.9127,-1.978,-2.0547,0.0,0.0,-1.9333,-1.9492,-2.0626,-2.0245,0.0,0.0,0.0,0.0,0.0,0.0,0.0,0.0,0.0,0.0,0.0,0.0,0.0,0.0,0.0,0.0,0.0,0.0,0.0,0.0,0.0,0.0,0.0,0.0,0.0,0.0,0.0,0.0,0.0,0.0,0.0,0.0,0.0,0.0,0.0,0.0,0.0,0.0,0.0,0.0,0.0,0.0,0.0,0.0,0.0,0.0,0.0,0.0,0.0,0.0,0.0,0.0,0.0,0.0,0.0,-0.398,-0.7144,-0.8894,-0.9181,-0.9197,-0.9139,-0.9008,-0.8423,-0.7311,0.0,0.0,0.0,0.0,0.0,0.0,0.0,0.0,0.0,0.0,0.0,0.0,0.0,0.0,0.0,0.0,0.0,0.0,0.0,0.0,0.0,0.0,0.0,0.0,0.0,0.0,0.0,0.0,0.0,0.0,0.0,0.0,0.0,0.0,0.0,0.0,0.0,0.0,0.0,0.0,0.0,-2.0684,-2.1806,-2.2809,-2.402,0.0,0.0,-2.3702,-2.4629,-2.6406,-2.5924,-2.0469,0.0,0.0,0.0,0.0,0.0,0.0,0.0,0.0,0.0,0.0,0.0,0.0,0.0,0.0,0.0,0.0,0.0,0.0,0.0,0.0,0.0,0.0,0.0,0.0,0.0,0.0,0.0,0.0,0.0,0.0,0.0,0.0,0.0,0.0,0.0,0.0,0.0,0.0,0.0,0.0,0.0,0.0,0.0,0.0,0.0,0.0,0.0,0.0,0.0,0.0,0.0,0.0,0.0,-0.4382,-0.4644,-0.76,-0.9209,-0.9367,-0.9449,-0.9356,-0.9095,-0.9253,-0.8602,0.0,0.0,0.0,0.0,0.0,0.0,0.0,0.0,0.0,0.0,0.0,0.0,0.0,0.0,0.0,0.0,0.0,0.0,0.0,0.0,0.0,0.0,0.0,0.0,0.0,0.0,0.0,0.0,-1.001,-1.0356,-1.0129,0.0,0.0,0.0,0.0,0.0,0.0,0.0,0.0,0.0,0.0,-2.2239,-2.3894,-2.4977,0.0,0.0,-2.5832,-2.4985,-2.586,-2.5921,-2.4828,-2.1748,-2.0437,0.0,0.0,0.0,0.0,0.0,0.0,0.0,0.0,0.0,0.0,0.0,0.0,0.0,0.0,0.0,0.0,0.0,0.0,0.0,0.0,0.0,0.0,0.0,0.0,0.0,0.0,0.0,0.0,0.0,0.0,0.0,0.0,0.0,0.0,0.0,0.0,0.0,0.0,0.0,0.0,0.0,0.0,0.0,0.0,0.0,0.0,0.0,0.0,0.0,0.0,0.0,0.0,-0.5313,-0.5584,-0.8541,-1.0143,-1.0305,-1.0402,-1.0281,-0.9926,-1.0337,-0.9943,0.0,0.0,0.0,0.0,0.0,0.0,0.0,0.0,0.0,0.0,0.0,0.0,0.0,0.0,0.0,0.0,0.0,0.0,0.0,0.0,0.0,0.0,0.0,0.0,0.0,0.0,0.0,0.0,-1.1284,-1.1493,-1.0975,0.0,0.0,0.0,0.0,0.0,0.0,0.0,0.0,0.0,0.0,-2.3901,-2.5831,-2.6519,-2.7123,-2.7973,-2.6572,-2.5599,-2.619,-2.5932,-2.4955,-2.2703,0.0,0.0,0.0,0.0,0.0,0.0,0.0,0.0,0.0,0.0,0.0,0.0,0.0,0.0,0.0,0.0,0.0,0.0,0.0,0.0,0.0,0.0,0.0,0.0,0.0,0.0,0.0,0.0,0.0,0.0,0.1293,0.0,0.0,0.0,0.0,0.0,0.0,0.0,0.0,0.0,0.0,0.0,0.0,0.0,0.0,0.0,0.0,0.0,0.0,0.0,0.0,0.0,0.0,-0.6546,-0.7022,-1.0385,-1.2348,-1.2595,-1.261,-1.2455,-1.2192,-1.209,-1.1629,-1.0659,0.0,0.0,0.0,0.0,0.0,0.0,0.0,0.0,0.0,0.0,0.0,0.0,0.0,0.0,0.0,0.0,0.0,0.0,0.0,0.0,0.0,0.0,0.0,0.0,0.0,0.0,-1.0393,-1.0938,-1.1383,0.0,0.0,0.0,0.0,0.0,0.0,0.0,0.0,0.0,0.0,-2.2927,-2.5765,-2.7655,-2.745,-2.7387,-2.8316,-2.6818,-2.5677,-2.6143,-2.7567,-2.7479,0.0,0.0,0.0,0.0,0.0,0.0,0.0,0.0,0.0,0.0,0.0,0.0,0.0,0.0,0.0,0.0,0.0,0.0,0.0,0.0,0.0,0.0,0.0,0.0,0.0,0.0,0.0,-0.1183,-0.1794,0.0,0.0,0.0,0.0,0.0,0.0,0.0,0.0,0.0,0.0,0.0,-1.0366,-1.0283,0.0,0.0,0.0,0.0,0.0,0.0,0.0,0.0,0.0,0.0,0.0,0.0,-0.7419,-0.817,-1.107,-1.2897,-1.3444,-1.3452,-1.3357,-1.3001,-1.3503,-1.3421,-1.2685,0.0,0.0,0.0,0.0,0.0,0.0,0.0,0.0,0.0,0.0,0.0,0.0,0.0,0.0,0.0,0.0,0.0,0.0,0.0,0.0,0.0,0.0,0.0,0.0,0.0,-1.2036,0.0,0.0,0.0,0.0,0.0,0.0,0.0,0.0,0.0,0.0,0.0,-1.9114,-2.1883,-2.4473,-2.6703,-2.8496,-2.8589,-2.8903,0.0,0.0,0.0,0.0,0.0,0.0,0.0,0.0,0.0,0.0,0.0,0.0,0.0,0.0,-2.4912,-2.1217,-2.0057,-1.9733,-1.9985,0.0,0.0,0.0,0.0,0.0,0.0,0.0,0.0,0.0,0.0,0.0,0.0,0.0,0.0,-0.5632,0.0,-0.6746,0.0,0.0,0.0,0.0,0.0,0.0,0.0,0.0,-1.324,-1.448,-1.4972,-1.4824,-1.4237,0.0,-1.12,-0.9272,0.0,0.0,0.0,0.0,0.0,0.0,0.0,0.0,-0.8884,-1.0016,-1.2548,-1.4285,-1.507,-1.537,-1.5274,-1.4873,-1.5443,-1.546,-1.4918,-1.4147,-1.3133,0.0,0.0,0.0,0.0,0.0,0.0,0.0,0.0,0.0,0.0,0.0,0.0,0.0,0.0,0.0,0.0,0.0,0.0,0.0,0.0,0.0,0.0,0.0,-1.3756,0.0,0.0,0.0,0.0,0.0,0.0,0.0,0.0,0.0,-1.6684,-1.8964,-2.1478,-2.3917,-2.5878,-2.7527,-2.8578,0.0,0.0,0.0,0.0,0.0,0.0,0.0,-2.7741,-2.799,-2.7618,-2.7185,-2.7105,-2.8033,-2.845,-2.7156,0.0,0.0,-2.473,-2.3592,-2.3315,-2.3693,-2.378,-2.3945,-2.4432,-2.522,-2.5775,0.0,0.0,0.0,0.0,0.0,0.0,0.0,0.0,-1.0524,-1.1235,0.0,-1.2662,0.0,0.0,0.0,0.0,0.0,-1.1266,0.0,0.0,-1.7412,-1.8556,-1.8407,-1.8328,-1.8095,-1.7573,-1.6019,-1.5073,-1.4592,-0.9686,0.0,0.0,0.0,0.0,0.0,0.0,-1.1019,-1.2572,-1.5016,-1.6628,-1.7409,-1.8153,-1.8271,-1.773,-1.7873,-1.7778,-1.7387,-1.6476,-1.5322,-1.3926,-1.2849,0.0,0.0,0.0,0.0,0.0,0.0,0.0,0.0,0.0,0.0,0.0,0.0,0.0,0.0,0.0,0.0,0.0,0.0,0.0,0.0,-1.5006,0.0,0.0,0.0,0.0,0.0,0.0,0.0,0.0,0.0,0.0,-1.9596,-2.1312,-2.3416,-2.5603,0.0,0.0,0.0,0.0,-2.8009,-2.8045,-2.7308,-2.7034,-2.7529,-2.949,-3.0624,-2.9704,0.0,0.0,-3.0213,-3.0451,-3.0236,-2.7635,-2.886,-3.02,-3.0322,-2.8689,-2.7761,-2.8437,-2.7937,-2.7512,-2.7602,-2.8415,-2.9176,-0.9443,0.0,0.0,0.0,0.0,-0.9741,-1.2141,-1.5719,-1.5654,-1.6118,-1.6897,-1.6402,0.0,0.0,0.0,0.0,0.0,0.0,-1.6464,-1.8792,-1.9807,-2.1024,-2.2408,-2.14,-2.0947,-2.0979,-1.8799,-1.7906,-1.8092,-1.5801,-1.2577,-0.8598,0.0,0.0,0.0,0.0,-1.4277,-1.5843,-1.7764,-1.9221,-2.0147,-1.9917,-1.9638,-1.9285,-1.9472,-1.9495,-1.9402,-1.9057,-1.8494,-1.7508,-1.6372,0.0,0.0,0.0,0.0,0.0,0.0,0.0,0.0,0.0,0.0,0.0,0.0,0.0,0.0,0.0,0.0,0.0,0.0,0.0,-1.5032,-1.6306,-1.7002,0.0,0.0,0.0,0.0,0.0,0.0,0.0,0.0,0.0,-2.4792,-2.4908,-2.5209,0.0,0.0,-2.8373,-2.7743,-2.8857,-2.9977,-3.0571,0.0,0.0,0.0,-3.138,-3.1368,-3.2252,-3.3532,-3.4069,-3.3138,-3.2906,-3.245,-3.1213,-3.1299,-3.1604,-3.175,-3.0886,-3.01,-3.0106,-2.9989,-3.0107,-3.066,-3.1076,-3.1288,-1.6584,-1.4425,-1.1687,-1.1534,-1.3136,-1.4088,-1.6636,-2.0233,-2.0136,-2.0568,-2.139,-2.091,-1.9863,-1.8468,-1.7965,0.0,0.0,0.0,-2.148,-2.376,-2.4149,-2.4975,-2.6114,-2.545,-2.5149,-2.5068,-2.2466,-2.168,-2.2418,-2.0131,-1.7235,-1.3761,0.0,0.0,-1.1864,-1.4316,-1.6375,-1.7877,-1.9257,-2.0273,-2.0863,-2.0709,-2.0663,-2.0797,-2.1248,-2.1481,-2.1525,-2.1734,-2.1449,-2.0648,-1.9399,-1.7971,0.0,0.0,0.0,0.0,0.0,0.0,0.0,0.0,0.0,0.0,0.0,-1.2182,-1.071,0.0,0.0,0.0,-1.4506,-1.6095,-1.7574,-1.8944,0.0,0.0,0.0,0.0,0.0,0.0,0.0,-2.3944,-2.5164,-2.645,-2.7951,-2.7917,-2.7871,-2.8073,-2.9059,-2.952,-2.8872,0.0,-3.1406,-3.1762,-3.2179,-3.2628,-3.3141,-3.2771,-3.3002,-3.4669,-3.5417,-3.5614,-3.5277,-3.4989,-3.4499,-3.3826,-3.3479,-3.3343,-3.3412,-3.2944,-3.24,-3.1956,-3.1854,-3.2075,-3.2754,-3.2913,-3.2982,-2.3718,-2.2924,-1.6633,-1.4923,-1.645,-1.8145,-2.1022,-2.4424,-2.419,-2.4803,-2.6022,-2.5941,-2.5212,-2.3918,-2.3228,0.0,-2.5566,-2.6034,-2.719,-2.8978,-2.9282,-2.9338,-2.925,-2.9631,-2.9666,-2.9325,-2.6623,-2.5953,-2.6851,-2.3318,-2.124,-2.0656,-1.7991,-1.6442,-1.6079,-1.6703,-1.7802,-1.9302,-1.9827,-2.0282,-2.058,-2.1047,-2.1671,-2.2438,-2.3193,-2.3582,-2.3607,-2.3988,-2.3891,-2.3255,-2.1935,-2.0263,-1.818,0.0,0.0,0.0,0.0,0.0,0.0,0.0,0.0,0.0,0.0,0.0,0.0,0.0,0.0,0.0,-1.9025,0.0,-2.1118,-2.2263,0.0,0.0,0.0,-2.2415,-2.3617,-2.4449,-2.5305,-2.6353,0.0,0.0,-2.9528,0.0,-3.0982,-3.0836,-3.1132,-3.1203,-3.0877,-3.1838,-3.2479,-3.2077,-3.2495,-3.2908,-3.3064,-3.3878,-3.5142,-3.6586,-3.7637,-3.7723,-3.6887,-3.6688,-3.6343,-3.5451,-3.5328,-3.5212,-3.4911,-3.4852,-3.4816,-3.386,-3.3556,-3.3548,-3.4007,-3.4109,-3.4216,-2.4665,-2.5801,-2.5492,-2.4352,-2.2917,-2.3328,-2.5477,-2.8723,-2.8734,-2.9486,-3.0792,-3.0023,-2.9078,-2.8076,-2.7871,-2.8221,-2.8869,-2.8956,-2.9393,-3.0016,-2.9784,-2.9688,-2.9672,-2.976,-2.9938,-3.0053,-2.9395,-2.9212,-2.948,-2.8048,-2.6661,-2.5381,-2.4405,-2.1933,-1.8224,-1.9402,-2.0653,-2.176,-2.1864,-2.2342,-2.3006,-2.352,-2.4007,-2.4491,-2.4451,-2.4362,-2.4306,-2.3891,-2.3843,-2.4176,-2.3021,-2.2034,-2.1351,-1.8115,0.0,0.0,0.0,0.0,0.0,0.0,0.0,0.0,0.0,-1.6069,-1.4008,0.0,-1.722,0.0,-2.0819,-2.2613,-2.3488,-2.356,0.0,0.0,-2.4732,-2.5063,-2.7891,-2.7944,-2.8203,-2.9396,-3.0161,-3.0844,-3.1473,-3.2441,-3.325,-3.3543,-3.2867,-3.2041,-3.1238,-3.2756,-3.3773,-3.3357,-3.3975,-3.4502,-3.4192,-3.555,-3.6826,-3.7252,-3.8749,-3.9529,-3.8325,-3.8185,-3.7873,-3.6764,-3.6354,-3.6094,-3.5712,-3.5513,-3.5403,-3.5137,-3.4811,-3.4543,-3.4677,-3.471,-3.4743,-2.9659,-3.0632,-3.1482,-3.0795,-2.9215,-2.9063,-3.0019,-3.166,-3.166,-3.2031,-3.2698,-3.2577,-3.196,-3.1191,-3.19,-3.2309,-3.2497,-3.2497,-3.2543,-3.2714,-3.2501,-3.2316,-3.2127,-3.2315,-3.2473,-3.2613,-3.2015,-3.156,-3.1325,-3.0177,-2.9055,-2.7997,-2.7683,-2.5973,-2.3126,-2.2986,-2.3057,-2.3157,-2.3756,-2.4316,-2.4786,-2.5025,-2.4978,-2.4497,-2.4887,-2.4808,-2.4053,-2.4128,-2.4225,-2.4189,-2.3411,-2.2777,-2.2408,-1.9882,-1.8261,0.0,0.0,0.0,0.0,0.0,0.0,0.0,0.0,0.0,0.0,0.0,-2.0102,-2.109,-2.3418,-2.5144,-2.5907,-2.6465,-2.7284,-2.8505,-2.8055,-2.8474,-3.0628,-3.0512,-3.0629,-3.1596,-3.1964,-3.234,-3.2893,-3.3649,-3.4341,-3.4879,-3.4312,-3.3684,-3.3162,-3.3856,-3.4293,-3.4031,-3.4476,-3.4958,-3.4962,-3.6483,-3.7621,-3.7731,-3.8992,-3.9887,-3.9353,-3.9532,-3.9505,-3.8764,-3.8485,-3.8179,-3.7447,-3.7248,-3.7071,-3.6543,-3.625,-3.5887,-3.5392,-3.5237,-3.5302,-3.57,-3.5809,-3.5505,-3.5338,-3.5168,-3.4879,-3.4324,-3.3724,-3.3724,-3.3677,-3.3723,-3.4477,-3.4329,-3.3747,-3.5044,-3.5687,-3.5705,-3.5687,-3.5833,-3.6016,-3.5877,-3.575,-3.5705,-3.5613,-3.5636,-3.5646,-3.4282,-3.3311,-3.2744,-3.1221,-3.0219,-2.963,-2.9363,-2.8961,-2.8296,-2.6678,-2.5297,-2.4183,-2.5327,-2.6024,-2.6088,-2.6111,-2.5384,-2.4087,-2.5073,-2.5029,-2.3558,-2.4402,-2.457,-2.3828,-2.357,-2.3228,-2.2733,-2.1595,-2.0884,0.0,-1.9883,0.0,0.0,0.0,0.0,0.0,0.0,0.0,0.0,-2.3668,-2.3962,-2.4296,-2.6393,-2.7902,-2.8299,-2.9752,-3.0733,-3.0794,-3.1235,-3.1712,-3.224,-3.2365,-3.2616,-3.3119,-3.3244,-3.3495,-3.3922,-3.4444,-3.4963,-3.5391,-3.5531,-3.5457,-3.5457,-3.5,-3.4662,-3.4662,-3.4703,-3.5182,-3.5858,-3.7032,-3.7969,-3.7997,-3.9074,-3.9817,-3.9857,-4.0498,-4.0901,-4.0583,-4.0467,-4.0317,-3.949,-3.9219,-3.8797,-3.7763,-3.7457,-3.7024,-3.6093,-3.5816,-3.5943,-3.6709,-3.7757,-3.769,-3.8303,-3.9295,-3.8966,-3.7561,-3.5511,-3.5511,-3.6109,-3.7023,-3.6886,-3.6587,-3.6135,-3.6088,-3.6091,-3.6091,-3.6405,-3.7251,-3.832,-3.7332,-3.7818,-3.9274,-3.7333,-3.6408,-3.6602,-3.5877,-3.4892,-3.3811,-3.3781,-3.3058,-3.1665,-3.1569,-3.0475,-2.8523,0.0,0.0,0.0,-2.6048,-2.6632,-2.7272,-2.6947,-2.6628,-2.6313,-2.5906,0.0,-2.4264,-2.4127,-2.3965,-2.3854,-2.4384,0.0,0.0,0.0,0.0,0.0,0.0,0.0,0.0,0.0,0.0,0.0,-2.4909,-2.4467,-2.4459,-2.6494,-2.773,-2.7657,-2.9075,-3.0152,-3.0698,-3.1029,-3.1411,-3.1863,-3.2014,-3.229,-3.2842,-3.3294,-3.3646,-3.3721,-3.4123,-3.4424,-3.455,-3.5198,-3.5774,-3.6122,-3.6437,-3.6743,-3.7015,-3.6141,-3.5723,-3.6267,-3.6318,-3.6436,-3.666,-3.787,-3.864,-3.8476,-3.9806,-4.0503,-3.9884,-4.0583,-4.0926,-4.0173,-4.0474,-4.077,-4.0165,-3.9722,-3.921,-3.8413,-3.7892,-3.7275,-3.6505,-3.6352,-3.6383,-4.0126,0.0,-4.1304,-4.2163,0.0,-4.2754,-4.197,-4.0566,-3.8938,-3.8817,-3.9798,-3.9318,-3.899,-3.8567,-3.8144,-3.817,-3.8423,-3.8426,-3.8954,-3.9941,-3.9081,-3.9286,-4.0305,-3.9,-3.8256,-3.8163,-3.8079,-3.7319,-3.6058,-3.643,-3.6018,-3.4754,-3.4465,-3.3692,-3.2468,-3.2789,-3.1357,-2.8079,-2.8205,-2.8512,-2.8823,-2.8502,-2.7962,-2.7383,0.0,0.0,0.0,0.0,0.0,0.0,0.0,0.0,0.0,0.0,0.0,-2.5816,-2.5233,-2.4982,-2.5238,-2.5583,-2.6496,-2.8032,-2.8785,-2.8631,-2.7323,-2.9049,-3.0223,-3.0343,-3.124,-3.2039,-3.2566,-3.2867,-3.3144,-3.3376,-3.3445,-3.3571,-3.3847,-3.4123,-3.4299,-3.4324,-3.455,-3.4801,-3.5056,-3.5987,-3.6793,-3.7344,-3.787,-3.8405,-3.8838,-3.7504,-3.6464,-3.6855,-3.7281,-3.7539,-3.7644,-3.8481,-3.9172,-3.904,-3.9958,-4.0509,-4.0008,-4.0965,-4.152,-4.054,-4.0867,-4.1237,-4.044,-4.0094,-3.9708,-3.8754,-3.8231,-3.7646,-3.6753,-3.6507,-3.6507,-4.4185,-4.3899,-4.4965,-4.5634,-4.5941,-4.5795,-4.5658,-4.5458,0.0,0.0,0.0,-4.1753,-4.1305,-4.0931,-4.0431,-4.0474,-4.0992,-4.0514,-4.0772,-4.1559,-4.0837,-4.0737,-4.1023,-4.0606,-4.021,-3.9834,-3.9929,-3.9362,-3.799,-3.8339,-3.816,-3.733,-3.6834,-3.6572,-3.6398,-3.5911,-3.4068,-3.1094,-3.0977,-3.0937,-3.0857,-3.0278,-2.9439,-2.8333,-2.8169,-2.7552,-2.6406,-2.6824,-2.6884,-2.6398,-2.6171,-2.6498,-2.7474,-2.729,-2.7606,-2.8659,-2.8787,-2.8835,-2.8931,-2.9617,-3.0146,-3.0423,-3.2055,-3.2304,-3.0532,-3.1361,-3.2164,-3.2616,-3.3093,-3.3545,-3.3997,-3.4449,-3.468,-3.468,-3.468,-3.4655,-3.468,-3.4781,-3.4921,-3.5032,-3.5249,-3.5471,-3.6202,-3.7116,-3.7936,-3.8595,-3.9204,-3.9952,-4.0509,-3.9042,-3.7605,-3.7606,-3.806,-3.8389,-3.8501,-3.89,-3.9373,-3.9397,-3.9852,-4.0217,-4.0397,-4.1205,-4.1558,-4.0601,-4.117,-4.1201,-4.0532,-4.037,-4.0013,-3.8785,-3.8508,-3.8108,-3.6876,-3.6507,-3.6507,-4.758,-4.6926,-4.7086,-4.7204,-4.7156,-4.6351,-4.617,-4.6247,-4.472,-4.4205,-4.425,-4.3859,-4.3394,-4.2876,-4.2483,-4.206,-4.1728,-4.154,-4.222,0.0,-4.2215,-4.2616,-4.4246,-4.2116,-4.1148,-4.12,-4.0088,-3.9012,-3.8178,-3.8157,-3.7855,-3.7413,-3.7221,-3.6784,-3.5998,-3.5102,-3.4332,-3.3836,-3.3892,-3.3754,-3.3267,-3.2069,-3.117,-3.0593,-2.9485,-2.8598,-2.8096,-2.8143,-2.7922,-2.7457,-2.8358,-2.8838,-2.8622,-2.923,-2.9648,-2.9869,-2.9869,-3.0062,-3.0561,-3.1283,-3.2293,-3.3603,-3.415,-3.3903,-3.2792,-3.3621,-3.4274,-3.4329,-3.4399,-3.4525,-3.4625,-3.4726,-3.4756,-3.4731,-3.4705,-3.468,-3.4801,-3.5152,-3.5796,-3.6586,-3.7092,-3.767,-3.8327,-3.8888,-3.924,-3.9688,-4.0252,-4.0683,-4.1085,-4.0523,-3.9706,-3.9201,-3.9156,-3.9228,-3.9156,-3.9265,-3.9403,-3.9403,-3.9499,-3.9612,-3.9649,-4.0307,-4.0591,-3.9962,-4.0595,-4.0872,-4.0414,-4.0401,-3.992,-3.8846,-3.8508,-3.8046,-3.6784,-3.6507,-3.6507,-4.8916,-4.8248,-4.8874,-4.9262,-4.9333,-4.9162,-4.9135,-4.9113,-4.8007,-4.7056,-4.6189,-4.5478,-4.5012,-4.4697,-4.4302,-4.4155,-4.4322,-4.3714,-4.3974,-4.4827,-4.3741,-4.3718,-4.4496,-4.342,-4.2833,-4.2588,-4.1986,-4.1145,-4.0306,-4.0177,-3.9923,-3.9439,-3.9162,-3.8459,-3.7515,-3.7317,-3.6948,-3.634,-3.5113,-3.4393,-3.4098,-3.2993,-3.2323,-3.2126,-3.156,-3.1047,-3.0597,-3.1112,-3.1205,-3.0717,-3.0963,-3.1166,-3.1258,-3.1376,-3.1529,-3.1793,-3.1817,-3.1937,-3.2178,-3.262,-3.3322,-3.4293,-3.4774,-3.4815,-3.443,-3.46,-3.468,-3.4705,-3.4931,-3.5132,-3.5132,-3.5429,-3.5604,-3.5604,-3.5604,-3.5835,-3.6294,-3.6565,-3.7131,-3.8033,-3.8425,-3.872,-3.9166,-3.9711,-4.0232,-4.0661,-4.141,-4.2031,-4.1974,-4.1392,-4.0696,-4.0068,-3.9642,-3.9403,-3.9403,-3.9403,-3.9403,-3.9403,-3.9403,-3.9403,-3.9433,-3.9948,-4.0074,-3.9763,-4.0311,-4.0679,-4.0274,-4.0331,-3.9856,-3.8908,-3.8508,-3.7984,-3.6907,-3.6507,-3.6507,-5.0656,-5.0057,-5.0972,-5.1417,-5.1509,-5.1778,-5.1775,-5.1604,-5.0868,-4.9897,-4.8544,-4.726,-4.6611,-4.6472,-4.6147,-4.6253,-4.6489,-4.5544,-4.5331,-4.575,-4.4765,-4.4285,-4.4285,-4.4285,-4.4069,-4.3697,-4.3457,-4.2928,-4.2206,-4.1918,-4.1581,-4.1172,-4.0667,-3.9922,-3.9008,-3.9272,-3.8936,-3.794,-3.6154,-3.5223,-3.5201,-3.4406,-3.3913,-3.3787,-3.3719,-3.3479,-3.3015,-3.3767,-3.3934,-3.3477,-3.3068,-3.2996,-3.326,-3.2899,-3.2851,-3.3236,-3.3284,-3.3379,-3.3639,-3.3778,-3.4151,-3.4782,-3.5248,-3.5544,-3.5633,-3.5328,-3.5102,-3.5152,-3.5504,-3.5683,-3.5755,-3.6337,-3.6709,-3.6709,-3.6943,-3.733,-3.7952,-3.8115,-3.845,-3.9271,-3.9519,-3.9607,-4.0,-4.0603,-4.1239,-4.1823,-4.2699,-4.3041,-4.2611,-4.2051,-4.1422,-4.0696,-3.9948,-3.9433,-3.9403,-3.9403,-3.9403,-3.9403,-3.9403,-3.9403,-3.9499,-3.9858,-3.9948,-3.9595,-4.0124,-4.0461,-4.0168,-4.0261,-3.9979,-3.9062,-3.8692,-3.8077,-3.6815,-3.6507,-3.6507,-5.4093,-5.4083,-5.364,-5.3362,-5.2893,-5.2936,-5.2709,-5.2327,-5.259,-5.2435,-5.1447,-4.9694,-4.8564,-4.8112,-4.8016,-4.7772,-4.7359,-4.6285,-4.5806,-4.575,-4.4765,-4.4285,-4.4285,-4.4285,-4.4261,-4.413,-4.3337,-4.2916,-4.2591,-4.1784,-4.1244,-4.1124,-4.0667,-4.0114,-3.9561,-3.9128,-3.8623,-3.7998,-3.7761,-3.7655,-3.7631,-3.7082,-3.6582,-3.6105,-3.5583,-3.5132,-3.4508,-3.4654,-3.4462,-3.3982,-3.3862,-3.3717,-3.3356,-3.326,-3.3236,-3.3308,-3.3308,-3.3663,-3.4546,-3.4689,-3.512,-3.611,-3.6207,-3.6257,-3.6304,-3.6279,-3.6254,-3.6276,-3.6279,-3.6326,-3.6377,-3.715,-3.7658,-3.7704,-3.8315,-3.8988,-3.9033,-3.9077,-3.9431,-4.0389,-4.0475,-4.0859,-4.1673,-4.2129,-4.2537,-4.278,-4.309,-4.326,-4.312,-4.262,-4.2021,-4.1265,-4.0277,-3.9493,-3.9403,-3.9403,-3.9403,-3.9403,-3.9403,-3.9403,-3.9469,-3.9469,-3.9469,-3.9565,-3.9757,-4.0066,-4.0142,-4.0261,-4.0228,-3.9428,-3.8785,-3.8077,-3.6907,-3.6569,-3.66,-5.5469,-5.5214,-5.4842,-5.453,-5.4301,-5.379,-5.3579,-5.3547,-5.3413,-5.3177,-5.2699,-5.1583,-5.0564,-4.9656,-4.8977,-4.8592,-4.8281,-4.6964,-4.6199,-4.5822,-4.5164,-4.4573,-4.4309,-4.4285,-4.4285,-4.4237,-4.3553,-4.3048,-4.2675,-4.1701,-4.1196,-4.1172,-4.0956,-4.0595,-4.0066,-3.9537,-3.9008,-3.8479,-3.8142,-3.7974,-3.7926,-3.7469,-3.694,-3.6435,-3.6194,-3.5665,-3.4919,-3.5112,-3.5015,-3.451,-3.4462,-3.4366,-3.4222,-3.4198,-3.4198,-3.4198,-3.4341,-3.4723,-3.5491,-3.5538,-3.5754,-3.6358,-3.6405,-3.6405,-3.6405,-3.6405,-3.6593,-3.7129,-3.7222,-3.7222,-3.7315,-3.8069,-3.863,-3.8675,-3.8988,-3.9404,-4.0,-4.0043,-4.0389,-4.1296,-4.1493,-4.1619,-4.2175,-4.2514,-4.2729,-4.297,-4.313,-4.329,-4.326,-4.2761,-4.2351,-4.1901,-4.0846,-3.9918,-3.9523,-3.9403,-3.9403,-3.9403,-3.9403,-3.9403,-3.9403,-3.9403,-3.9403,-3.9409,-3.9696,-3.991,-4.0011,-4.0161,-4.0186,-3.9616,-3.86,-3.7707,-3.7153,-3.7064,-3.703,-5.6718,-5.6323,-5.5998,-5.5804,-5.5778,-5.5158,-5.5002,-5.5232,-5.4971,-5.4572,-5.4049,-5.3688,-5.2879,-5.1586,-5.0245,-4.954,-4.94,-4.8155,-4.7326,-4.6886,-4.6249,-4.571,-4.5343,-4.4889,-4.4693,-4.4559,-4.3892,-4.3168,-4.2578,-4.1653,-4.1196,-4.1196,-4.1196,-4.0932,-4.0379,-3.9874,-3.9345,-3.8815,-3.8262,-3.7974,-3.7926,-3.7613,-3.7156,-3.6675,-3.6483,-3.5978,-3.5112,-3.528,-3.5183,-3.4799,-3.4775,-3.4775,-3.4775,-3.4775,-3.4823,-3.492,-3.5187,-3.5524,-3.598,-3.6028,-3.6098,-3.6358,-3.6593,-3.6756,-3.6803,-3.7036,-3.7474,-3.8069,-3.8432,-3.8541,-3.8296,-3.9033,-3.9536,-3.9607,-3.9782,-4.0331,-4.0887,-4.1015,-4.1296,-4.1939,-4.2009,-4.2175,-4.2298,-4.2637,-4.289,-4.293,-4.313,-4.329,-4.326,-4.294,-4.2581,-4.241,-4.1693,-4.0925,-3.9931,-3.9463,-3.9433,-3.9403,-3.9403,-3.9403,-3.9403,-3.9403,-3.9625,-3.9773,-3.9844,-4.02,-4.0752,-4.0823,-4.0668,-4.0088,-3.9279,-3.8435,-3.8183,-3.8016,-3.7878,-5.8243,-5.8094,-5.7637,-5.7422,-5.7395,-5.7275,-5.7342,-5.73,-5.7696,-5.7292,-5.6211,-5.6135,-5.5502,-5.4189,-5.1979,-5.0954,-5.0813,-4.9973,-4.9529,-4.9325,-4.8381,-4.7905,-4.7854,-4.6441,-4.5768,-4.5682,-4.4487,-4.3288,-4.2262,-4.1577,-4.1196,-4.123,-4.1344,-4.1046,-4.0596,-4.004,-3.9399,-3.9026,-3.8393,-3.8027,-3.8027,-3.8003,-3.7661,-3.718,-3.6675,-3.6122,-3.5569,-3.5063,-3.4799,-3.4775,-3.4775,-3.4775,-3.4775,-3.4775,-3.492,-3.5163,-3.5428,-3.5716,-3.5955,-3.6098,-3.6193,-3.6499,-3.7268,-3.773,-3.7795,-3.836,-3.8899,-3.9121,-3.9826,-3.9956,-3.9475,-4.0043,-4.0518,-4.0603,-4.1339,-4.1814,-4.1939,-4.1856,-4.2009,-4.2092,-4.2133,-4.2298,-4.2637,-4.301,-4.321,-4.329,-4.3329,-4.3409,-4.3536,-4.3427,-4.3166,-4.29,-4.2849,-4.2646,-4.0828,-4.0281,-3.9811,-3.9696,-3.9844,-3.9553,-3.9445,-3.9445,-3.9879,-4.0235,-4.0481,-4.0959,-4.1657,-4.1917,-4.1757,-4.1403,-4.1114,-4.0471,-3.9489,-3.9366,-3.9091,-5.9312,-5.9154,-5.9122,-5.927,-5.9439,-5.8794,-5.8602,-5.8806,-5.8574,-5.7973,-5.7154,-5.7015,-5.6344,-5.5113,-5.4019,-5.3086,-5.2262,-5.1309,-5.0711,-5.0296,-4.9568,-4.9023,-4.8547,-4.747,-4.6976,-4.6832,-4.6179,-4.5313,-4.4209,-4.3332,-4.288,-4.288,-4.288,-4.278,-4.2454,-4.1622,-4.1071,-4.0768,-3.9523,-3.8739,-3.8712,-3.8291,-3.793,-3.7685,-3.6843,-3.617,-3.5617,-3.5063,-3.4775,-3.4775,-3.4775,-3.4775,-3.4775,-3.4775,-3.4969,-3.5428,-3.5572,-3.5812,-3.6241,-3.6828,-3.7176,-3.7361,-3.816,-3.8702,-3.872,-3.9033,-3.9431,-4.0,-4.0346,-4.0603,-4.1085,-4.1367,-4.1535,-4.1619,-4.1856,-4.2092,-4.2092,-4.2092,-4.2092,-4.2092,-4.2216,-4.2392,-4.2648,-4.293,-4.3329,-4.3771,-4.4004,-4.4274,-4.4699,-4.4812,-4.4613,-4.4545,-4.4325,-4.3841,-4.2754,-4.1942,-4.1414,-4.0976,-4.082,-4.0786,-4.0684,-4.0581,-4.0891,-4.1026,-4.126,-4.1526,-4.2173,-4.2488,-4.2416,-4.2351,-4.212,-4.1784,-4.0834,-4.0598,-4.0146,-6.0422,-6.0198,-6.0533,-6.0784,-6.0924,-6.0144,-5.9865,-5.9946,-5.9192,-5.8345,-5.7547,-5.7378,-5.6676,-5.5578,-5.5261,-5.4703,-5.3779,-5.2903,-5.2322,-5.1896,-5.1336,-5.0724,-5.0105,-4.9027,-4.8426,-4.8126,-4.7503,-4.6759,-4.5773,-4.4849,-4.4277,-4.4071,-4.4071,-4.4071,-4.3916,-4.3117,-4.2575,-4.2083,-4.082,-3.9978,-3.9647,-3.8844,-3.853,-3.8564,-3.7651,-3.6761,-3.6122,-3.5449,-3.5088,-3.5015,-3.4871,-3.4775,-3.4775,-3.4872,-3.5211,-3.5764,-3.6295,-3.6751,-3.7437,-3.8286,-3.8898,-3.8872,-3.969,-4.0271,-4.0271,-4.0537,-4.1091,-4.1524,-4.1469,-4.1709,-4.2158,-4.2237,-4.2092,-4.2092,-4.2092,-4.2092,-4.2092,-4.2092,-4.2092,-4.2133,-4.231,-4.2555,-4.2688,-4.297,-4.3457,-4.4167,-4.4396,-4.4812,-4.5478,-4.5697,-4.5697,-4.5701,-4.5496,-4.5066,-4.44,-4.3802,-4.2447,-4.1873,-4.1426,-4.1558,-4.1656,-4.1624,-4.1689,-4.1819,-4.2013,-4.2237,-4.2552,-4.2892,-4.3045,-4.3075,-4.3116,-4.2954,-4.2265,-4.1759,-4.1272,-6.1556,-6.1116,-6.1734,-6.1865,-6.1697,-6.1248,-6.1023,-6.0686,-5.9704,-5.8525,-5.7491,-5.7378,-5.6676,-5.5693,-5.5437,-5.5437,-5.5203,-5.4612,-5.4373,-5.4236,-5.3744,-5.311,-5.2419,-5.0956,-4.9986,-4.9388,-4.8061,-4.7166,-4.6616,-4.6015,-4.5411,-4.4828,-4.4832,-4.4833,-4.4645,-4.415,-4.3546,-4.2918,-4.2085,-4.1438,-4.0769,-3.9802,-3.957,-4.0058,-3.9069,-3.8134,-3.7315,-3.6321,-3.5815,-3.5767,-3.538,-3.492,-3.5332,-3.5478,-3.5741,-3.6676,-3.7689,-3.8652,-3.9408,-4.0383,-4.0922,-4.1014,-4.1852,-4.2306,-4.2366,-4.3024,-4.356,-4.3488,-4.3183,-4.2979,-4.2892,-4.2586,-4.2208,-4.2092,-4.2092,-4.2092,-4.2092,-4.2092,-4.2092,-4.2216,-4.2474,-4.2688,-4.2809,-4.317,-4.3732,-4.4396,-4.4737,-4.5147,-4.5913,-4.6092,-4.5841,-4.5949,-4.625,-4.6309,-4.5993,-4.5571,-4.388,-4.2493,-4.2076,-4.1917,-4.2045,-4.2078,-4.2301,-4.2459,-4.2709,-4.2956,-4.3439,-4.3798,-4.4006,-4.4026,-4.4091,-4.3933,-4.3435,-4.2802,-4.2314,-6.1397,-6.061,-6.1593,-6.1762,-6.1453,-6.1621,-6.1284,-6.0441,-5.9964,-5.8924,-5.7603,-5.7378,-5.6676,-5.5721,-5.5496,-5.5496,-5.5496,-5.5261,-5.5231,-5.5119,-5.4588,-5.3973,-5.3216,-5.2207,-5.1261,-5.0432,-4.9608,-4.9061,-4.8708,-4.7866,-4.7241,-4.7051,-4.6618,-4.6236,-4.5858,-4.5638,-4.5122,-4.4045,-4.3275,-4.2575,-4.1868,-4.0869,-4.0465,-4.0591,-4.026,-3.988,-3.9626,-3.849,-3.7911,-3.7837,-3.7998,-3.828,-3.8541,-3.8709,-3.8919,-3.9295,-3.9708,-4.0121,-4.0638,-4.1534,-4.2109,-4.2262,-4.2988,-4.3472,-4.3516,-4.3835,-4.4037,-4.4037,-4.3776,-4.3689,-4.3631,-4.3544,-4.3021,-4.2208,-4.2092,-4.2121,-4.2092,-4.2216,-4.2351,-4.2514,-4.2769,-4.297,-4.321,-4.3654,-4.4434,-4.5221,-4.5665,-4.6304,-4.6997,-4.71,-4.727,-4.7337,-4.7506,-4.7308,-4.6848,-4.6321,-4.5275,-4.3911,-4.3264,-4.2587,-4.2618,-4.2648,-4.2865,-4.308,-4.3355,-4.3684,-4.4212,-4.4502,-4.4553,-4.4581,-4.4367,-4.4294,-4.4215,-4.3741,-4.3166,-6.1783,-6.061,-6.134,-6.1453,-6.1088,-6.1284,-6.1031,-6.0441,-5.9992,-5.9121,-5.8137,-5.7575,-5.6816,-5.5945,-5.5608,-5.5496,-5.5496,-5.5496,-5.5496,-5.5468,-5.5159,-5.4484,-5.3641,-5.2603,-5.1877,-5.1321,-5.0849,-5.0543,-5.0293,-4.9375,-4.8736,-4.8406,-4.7902,-4.7378,-4.704,-4.679,-4.6262,-4.5468,-4.448,-4.3824,-4.3199,-4.2069,-4.1541,-4.1739,-4.1541,-4.1541,-4.1736,-4.1051,-4.0263,-3.9641,-3.9673,-3.9918,-4.0368,-4.0341,-4.0555,-4.1001,-4.1396,-4.181,-4.2278,-4.3257,-4.3775,-4.3865,-4.4338,-4.4705,-4.4705,-4.4676,-4.4705,-4.4705,-4.4472,-4.4327,-4.4298,-4.4095,-4.3602,-4.2934,-4.2586,-4.2353,-4.2221,-4.2269,-4.2607,-4.29,-4.3299,-4.3585,-4.409,-4.451,-4.5227,-4.5953,-4.6515,-4.7067,-4.7737,-4.7935,-4.8001,-4.8001,-4.7869,-4.7638,-4.7372,-4.6942,-4.651,-4.5555,-4.4603,-4.3822,-4.3363,-4.3298,-4.3386,-4.3539,-4.3747,-4.386,-4.4327,-4.4468,-4.4581,-4.4581,-4.4581,-4.4513,-4.435,-4.4248,-4.3741,-6.2543,-6.1224,-6.1224,-6.1295,-6.1154,-6.0787,-6.0815,-6.0794,-5.9977,-5.9358,-5.8812,-5.7828,-5.7013,-5.6367,-5.5749,-5.5496,-5.5496,-5.5496,-5.5496,-5.5496,-5.5355,-5.4821,-5.3669,-5.2518,-5.1957,-5.1732,-5.1676,-5.1395,-5.0946,-5.0301,-4.9707,-4.907,-4.8509,-4.8055,-4.778,-4.7438,-4.7107,-4.6637,-4.5707,-4.5115,-4.4816,-4.347,-4.2798,-4.3423,-4.2867,-4.2771,-4.3225,-4.3286,-4.2562,-4.0945,-4.0707,-4.0871,-4.0783,-4.071,-4.1404,-4.2085,-4.2767,-4.3476,-4.4293,-4.4969,-4.5557,-4.5528,-4.5573,-4.5866,-4.5692,-4.5634,-4.5634,-4.5634,-4.5227,-4.4937,-4.485,-4.456,-4.4226,-4.4065,-4.3484,-4.2918,-4.2449,-4.2579,-4.3159,-4.3714,-4.4082,-4.451,-4.5116,-4.5483,-4.6024,-4.6518,-4.6862,-4.7371,-4.7737,-4.8001,-4.8001,-4.8001,-4.8001,-4.7901,-4.7636,-4.7471,-4.7007,-4.6344,-4.5549,-4.4887,-4.4026,-4.3794,-4.3658,-4.3805,-4.3981,-4.4155,-4.4298,-4.4468,-4.4553,-4.4581,-4.4581,-4.4581,-4.4547,-4.4384,-4.4248,-6.2606,-6.181,-6.2305,-6.2217,-6.1926,-6.2538,-6.1961,-6.0889,-6.0884,-6.0034,-5.8743,-5.7716,-5.7129,-5.6395,-5.5805,-5.5496,-5.5496,-5.5496,-5.5496,-5.5496,-5.5496,-5.4793,-5.3754,-5.2854,-5.2208,-5.1843,-5.1787,-5.1702,-5.1506,-5.0888,-5.035,-4.9707,-4.9061,-4.8302,-4.76,-4.774,-4.7375,-4.6729,-4.6708,-4.6098,-4.5272,-4.4684,-4.4132,-4.3859,-4.3689,-4.3662,-4.3926,-4.4303,-4.42,-4.3488,-4.349,-4.3724,-4.3917,-4.4146,-4.4209,-4.4493,-4.4846,-4.5171,-4.5409,-4.5689,-4.5866,-4.5895,-4.5895,-4.5895,-4.5895,-4.5895,-4.5895,-4.5866,-4.5692,-4.5605,-4.5576,-4.5475,-4.5361,-4.5255,-4.4555,-4.4099,-4.437,-4.4378,-4.4555,-4.5394,-4.5428,-4.5536,-4.5796,-4.6198,-4.6585,-4.6896,-4.7303,-4.7671,-4.7935,-4.8001,-4.8001,-4.8001,-4.8001,-4.8001,-4.7934,-4.7835,-4.7537,-4.6974,-4.6344,-4.5814,-4.4854,-4.4059,-4.3916,-4.3835,-4.3981,-4.4155,-4.4298,-4.4468,-4.4497,-4.4581,-4.4581,-4.4581,-4.4581,-4.4513,-4.4513,-6.2972,-6.2028,-6.244,-6.2381,-6.2116,-6.2764,-6.2494,-6.1752,-6.1633,-6.1244,-6.0094,-5.8899,-5.7979,-5.7355,-5.6347,-5.5721,-5.5524,-5.5496,-5.5496,-5.5496,-5.5496,-5.4821,-5.3782,-5.2995,-5.2405,-5.1843,-5.1787,-5.1787,-5.1674,-5.1169,-5.0744,-5.0241,-4.9483,-4.8668,-4.8055,-4.7712,-4.76,-4.7122,-4.6982,-4.6504,-4.609,-4.5461,-4.4973,-4.4553,-4.4358,-4.4162,-4.4209,-4.4565,-4.4751,-4.4723,-4.4908,-4.5276,-4.5595,-4.5776,-4.5895,-4.5895,-4.5895,-4.5866,-4.5895,-4.5895,-4.5895,-4.5895,-4.5895,-4.5895,-4.5895,-4.5895,-4.5895,-4.5866,-4.5895,-4.5895,-4.5985,-4.6135,-4.6417,-4.6625,-4.6152,-4.5843,-4.6082,-4.5755,-4.6207,-4.6886,-4.6984,-4.6788,-4.7036,-4.7261,-4.7268,-4.7371,-4.7671,-4.7902,-4.8001,-4.8001,-4.8001,-4.8001,-4.8001,-4.8001,-4.8001,-4.7934,-4.7901,-4.7404,-4.6974,-4.6477,-4.5715,-4.4655,-4.4348,-4.4234,-4.4148,-4.4155,-4.4298,-4.4412,-4.4525,-4.4581,-4.4581,-4.4581,-4.4581,-4.4581,-4.4581,-6.3762,-6.2321,-6.2321,-6.2291,-6.2349,-6.2321,-6.2735,-6.2795,-6.2411,-6.2352,-6.2114,-6.0642,-5.9419,-5.884,-5.748,-5.647,-5.5903,-5.6077,-5.5845,-5.5787,-5.5644,-5.5108,-5.3922,-5.322,-5.2602,-5.204,-5.1871,-5.1787,-5.1674,-5.1225,-5.0972,-5.0578,-4.9707,-4.9094,-4.8616,-4.7887,-4.7684,-4.774,-4.7178,-4.6897,-4.6813,-4.6146,-4.5593,-4.536,-4.4827,-4.449,-4.45,-4.4705,-4.4936,-4.5092,-4.5367,-4.5549,-4.5776,-4.5821,-4.5895,-4.5895,-4.5895,-4.5895,-4.5895,-4.5895,-4.5895,-4.5895,-4.5895,-4.5895,-4.5895,-4.5895,-4.5895,-4.5895,-4.5895,-4.5985,-4.618,-4.6624,-4.7306,-4.7794,-4.8076,-4.7855,-4.7384,-4.7146,-4.7624,-4.8675,-4.8482,-4.8546,-4.866,-4.8597,-4.8067,-4.7671,-4.7935,-4.7968,-4.8001,-4.8001,-4.8001,-4.8001,-4.8001,-4.8001,-4.8001,-4.8001,-4.8001,-4.7802,-4.7438,-4.6974,-4.6477,-4.568,-4.5111,-4.477,-4.4527,-4.4336,-4.4241,-4.4355,-4.453,-4.4581,-4.4581,-4.4581,-4.4581,-4.4581,-4.4581,-6.5111,-6.43,-6.43,-6.43,-6.43,-6.43,-6.388,-6.3342,-6.3134,-6.2875,-6.2145,-6.1233,-6.0499,-5.9767,-5.8895,-5.8224,-5.753,-5.7416,-5.7247,-5.6566,-5.6509,-5.5709,-5.4515,-5.3782,-5.3107,-5.2517,-5.1983,-5.1787,-5.1702,-5.159,-5.1337,-5.0803,-5.0213,-4.9511,-4.8953,-4.8336,-4.7965,-4.8078,-4.7797,-4.7488,-4.7235,-4.6982,-4.6532,-4.6083,-4.5464,-4.4874,-4.4575,-4.4815,-4.5018,-4.5184,-4.5367,-4.5549,-4.564,-4.5776,-4.5895,-4.5895,-4.5895,-4.5895,-4.5895,-4.5895,-4.5895,-4.5895,-4.5895,-4.5895,-4.5895,-4.5895,-4.5895,-4.5895,-4.594,-4.618,-4.677,-4.7478,-4.8198,-4.879,-4.9237,-4.9671,-5.0051,-4.9393,-4.9443,-5.0148,-5.0074,-4.9552,-4.9226,-4.9094,-4.8663,-4.8199,-4.8034,-4.8034,-4.8001,-4.8001,-4.8001,-4.8001,-4.8001,-4.8001,-4.8001,-4.8001,-4.8001,-4.8001,-4.7736,-4.7537,-4.7007,-4.6543,-4.5943,-4.531,-4.4773,-4.4586,-4.449,-4.4399,-4.4581,-4.4598,-4.4615,-4.4581,-4.4581,-4.4581,-4.4692,-6.5226,-6.4918,-6.4888,-6.4888,-6.4888,-6.4888,-6.4579,-6.4158,-6.4101,-6.3845,-6.3273,-6.257,-6.1655,-6.0704,-5.9981,-5.9109,-5.8372,-5.8195,-5.7918,-5.7416,-5.7049,-5.6365,-5.5481,-5.4318,-5.3332,-5.2686,-5.2068,-5.1815,-5.1787,-5.1759,-5.159,-5.1281,-5.0716,-5.0073,-4.9483,-4.8836,-4.8336,-4.8111,-4.8083,-4.7937,-4.7684,-4.7628,-4.7347,-4.6778,-4.618,-4.5608,-4.495,-4.5456,-4.547,-4.5316,-4.5487,-4.5714,-4.5685,-4.5805,-4.5895,-4.5895,-4.5895,-4.5895,-4.5895,-4.5895,-4.5895,-4.5895,-4.5895,-4.5895,-4.5895,-4.5895,-4.609,-4.6269,-4.6491,-4.68,-4.7819,-4.8252,-4.8994,-4.971,-5.0221,-5.0755,-5.1215,-5.0853,-5.0741,-5.1468,-5.1113,-5.0616,-5.022,-4.9823,-4.926,-4.8796,-4.8597,-4.8531,-4.8001,-4.8001,-4.8001,-4.8001,-4.8001,-4.8001,-4.8001,-4.8001,-4.8001,-4.8001,-4.7934,-4.7835,-4.7636,-4.7173,-4.6676,-4.6107,-4.5566,-4.5123,-4.5001,-4.485,-4.4778,-4.466,-4.4677,-4.4615,-4.4726,-4.4981,-4.5022,-6.498,-6.4888,-6.4888,-6.4888,-6.4888,-6.4888,-6.4888,-6.4888,-6.4888,-6.4721,-6.4777,-6.3958,-6.2859,-6.178,-6.0954,-5.9848,-5.8986,-5.8689,-5.8743,-5.836,-5.7778,-5.7156,-5.6387,-5.5079,-5.3973,-5.3073,-5.2177,-5.1869,-5.1787,-5.1787,-5.1731,-5.1646,-5.114,-5.0632,-5.0045,-4.937,-4.8729,-4.8364,-4.8139,-4.8106,-4.805,-4.7971,-4.774,-4.72,-4.6918,-4.6373,-4.5892,-4.6148,-4.6304,-4.5573,-4.5929,-4.6111,-4.6127,-4.5924,-4.5895,-4.5895,-4.5895,-4.5895,-4.5895,-4.5895,-4.5895,-4.5895,-4.5895,-4.6001,-4.6046,-4.618,-4.6491,-4.6901,-4.7292,-4.7819,-4.9035,-4.943,-4.986,-5.0518,-5.1016,-5.135,-5.1573,-5.1758,-5.1951,-5.2101,-5.1777,-5.1382,-5.0982,-5.0618,-4.9988,-4.9458,-4.926,-4.8961,-4.8431,-4.8034,-4.8034,-4.8001,-4.8001,-4.8001,-4.8001,-4.8066,-4.8033,-4.8227,-4.8163,-4.826,-4.826,-4.8117,-4.7742,-4.706,-4.6491,-4.6106,-4.5934,-4.6073,-4.584,-4.5184,-4.5412,-4.6055,-4.5937,-4.5524,-4.5596,-6.5411,-6.4888,-6.4888,-6.4888,-6.4888,-6.4888,-6.4888,-6.4888,-6.4888,-6.4888,-6.4888,-6.4691,-6.3844,-6.2748,-6.2472,-6.1546,-6.038,-6.0031,-5.9789,-5.9302,-5.8757,-5.8253,-5.695,-5.5921,-5.5196,-5.44,-5.3045,-5.2059,-5.195,-5.1787,-5.2085,-5.1755,-5.1386,-5.1017,-5.0622,-4.9707,-4.9193,-4.8855,-4.8466,-4.8167,-4.8083,-4.8055,-4.7937,-4.7403,-4.7447,-4.7093,-4.6736,-4.6947,-4.7174,-4.7088,-4.7322,-4.7433,-4.7218,-4.6521,-4.6189,-4.604,-4.6069,-4.6127,-4.6011,-4.5953,-4.5895,-4.5895,-4.5956,-4.6269,-4.658,-4.677,-4.7119,-4.7734,-4.8407,-4.8994,-4.9399,-5.0058,-5.0634,-5.1092,-5.1392,-5.1758,-5.1941,-5.2122,-5.2266,-5.234,-5.2177,-5.2011,-5.1647,-5.1247,-5.075,-5.0187,-4.9823,-4.9392,-4.8829,-4.8398,-4.81,-4.8067,-4.8001,-4.8001,-4.8001,-4.8066,-4.813,-4.8545,-4.8671,-4.8858,-4.8951,-4.9131,-4.8795,-4.8203,-4.774,-4.7386,-4.7329,-4.7327,-4.7264,-4.6903,-4.7317,-4.7675,-4.7309,-4.6899,-4.6914,-6.5195,-6.4918,-6.4888,-6.4888,-6.4888,-6.4888,-6.4888,-6.4888,-6.4888,-6.4888,-6.4888,-6.4826,-6.4149,-6.3133,-6.2825,-6.2056,-6.1071,-6.0794,-6.0319,-5.971,-5.9138,-5.8437,-5.7226,-5.6255,-5.563,-5.4867,-5.3738,-5.3102,-5.3102,-5.3126,-5.3049,-5.3045,-5.2756,-5.2497,-5.2047,-5.127,-5.0321,-4.9791,-4.898,-4.8415,-4.8162,-4.8134,-4.8021,-4.8207,-4.8169,-4.7892,-4.7409,-4.777,-4.7788,-4.7528,-4.7688,-4.7782,-4.7748,-4.7717,-4.731,-4.6991,-4.6916,-4.6724,-4.6446,-4.6359,-4.6379,-4.6432,-4.6476,-4.6726,-4.7249,-4.7563,-4.7946,-4.8697,-4.939,-5.0018,-5.0253,-5.0749,-5.1086,-5.1387,-5.1721,-5.1941,-5.2119,-5.2266,-5.2373,-5.2409,-5.231,-5.221,-5.2111,-5.1744,-5.1446,-5.0982,-5.0452,-4.9889,-4.9326,-4.8928,-4.8531,-4.8297,-4.8263,-4.8292,-4.8324,-4.842,-4.8578,-4.8951,-4.9192,-4.9372,-4.9521,-4.9698,-4.9746,-4.9499,-4.9097,-4.8701,-4.8477,-4.8404,-4.8521,-4.8626,-4.8511,-4.8467,-4.8438,-4.8338,-4.8335,-6.4888,-6.4888,-6.4888,-6.4888,-6.4888,-6.4888,-6.4888,-6.4888,-6.4888,-6.4888,-6.4888,-6.4672,-6.3964,-6.2979,-6.2394,-6.1779,-6.0794,-6.0794,-6.0465,-6.0024,-5.9253,-5.8434,-5.7562,-5.6569,-5.5811,-5.5696,-5.5164,-5.4611,-5.4097,-5.4097,-5.42,-5.4068,-5.4223,-5.4097,-5.3422,-5.2587,-5.1737,-5.0991,-4.9953,-4.9206,-4.8701,-4.8588,-4.8808,-4.9313,-4.9337,-4.9086,-4.875,-4.9143,-4.9204,-4.8864,-4.8735,-4.8781,-4.8769,-4.9321,-4.9367,-4.8786,-4.8441,-4.7955,-4.7678,-4.7548,-4.7599,-4.7493,-4.7402,-4.7701,-4.8072,-4.8573,-4.9025,-4.971,-5.0246,-5.0705,-5.0896,-5.1162,-5.1387,-5.161,-5.1868,-5.2119,-5.2227,-5.2302,-5.2373,-5.2409,-5.2409,-5.2343,-5.2243,-5.221,-5.1877,-5.1612,-5.1082,-5.0651,-5.0121,-4.9624,-4.9194,-4.876,-4.8588,-4.8675,-4.8733,-4.892,-4.9165,-4.9585,-4.9786,-4.9959,-5.0074,-5.0153,-5.0251,-5.0355,-5.0375,-5.0013,-4.9726,-4.966,-5.0002,-5.0044,-4.9518,-4.9533,-5.0029,-4.9912,-4.971,-6.4888,-6.4888,-6.4888,-6.4888,-6.4943,-6.4943,-6.4888,-6.4943,-6.4943,-6.4888,-6.482,-6.4241,-6.3564,-6.2702,-6.1563,-6.104,-6.0824,-6.0763,-6.0609,-6.0188,-5.9666,-5.9001,-5.8519,-5.7936,-5.6865,-5.6481,-5.6335,-5.5601,-5.4866,-5.456,-5.4458,-5.4509,-5.4611,-5.4347,-5.4395,-5.3735,-5.3221,-5.2788,-5.1698,-5.072,-5.0174,-5.0009,-5.0183,-5.0453,-5.068,-5.0704,-5.0619,-5.0993,-5.1088,-5.1134,-5.1226,-5.1333,-5.153,-5.206,-5.2123,-5.1471,-5.0652,-4.97,-4.9551,-4.9432,-4.9249,-4.8966,-4.8943,-4.9002,-4.9398,-4.9859,-5.0341,-5.0666,-5.0858,-5.101,-5.1275,-5.1424,-5.1647,-5.1864,-5.2083,-5.2194,-5.2302,-5.2302,-5.2373,-5.2409,-5.2409,-5.2409,-5.2343,-5.2376,-5.2343,-5.2078,-5.1746,-5.135,-5.0956,-5.0459,-5.0192,-4.9816,-4.9666,-4.9681,-4.9649,-4.9765,-4.986,-5.0298,-5.0391,-5.0522,-5.0632,-5.0803,-5.0964,-5.1096,-5.1123,-5.1228,-5.1022,-5.1094,-5.156,-5.1454,-5.0976,-5.1395,-5.2087,-5.17,-5.0922,-6.5677,-6.5351,-6.5351,-6.5351,-6.5351,-6.5351,-6.5351,-6.5351,-6.5187,-6.4916,-6.4521,-6.4049,-6.3256,-6.221,-6.1194,-6.0824,-6.0794,-6.0794,-6.0301,-5.9809,-5.9347,-5.872,-5.7746,-5.7395,-5.7025,-5.6933,-5.6761,-5.6519,-5.58,-5.562,-5.57,-5.562,-5.567,-5.5769,-5.5471,-5.495,-5.4441,-5.3665,-5.2388,-5.1316,-5.0962,-5.0666,-5.0555,-5.081,-5.1233,-5.1512,-5.1758,-5.2109,-5.229,-5.229,-5.229,-5.229,-5.2457,-5.2897,-5.3179,-5.3082,-5.2934,-5.2187,-5.1133,-5.0984,-5.079,-5.0658,-5.0652,-5.0861,-5.1199,-5.1278,-5.1437,-5.1629,-5.1356,-5.1377,-5.1601,-5.1684,-5.19,-5.2083,-5.226,-5.2266,-5.2373,-5.2373,-5.2409,-5.2409,-5.2409,-5.2409,-5.2409,-5.2409,-5.2409,-5.2312,-5.2257,-5.2199,-5.1766,-5.1324,-5.1178,-5.1125,-5.1001,-5.0944,-5.0927,-5.0887,-5.0802,-5.1002,-5.1008,-5.1167,-5.1237,-5.1428,-5.1479,-5.1556,-5.1546,-5.1697,-5.198,-5.2042,-5.2018,-5.2221,-5.2457,-5.248,-5.248,-5.2408,-5.1832,-6.6522,-6.5659,-6.5844,-6.5915,-6.5915,-6.5947,-6.5947,-6.5862,-6.5405,-6.4901,-6.4328,-6.3603,-6.261,-6.1686,-6.104,-6.0794,-6.0794,-6.0794,-6.0086,-5.9347,-5.8731,-5.8227,-5.7518,-5.7056,-5.684,-5.681,-5.681,-5.6713,-5.6713,-5.6713,-5.6616,-5.681,-5.6567,-5.6664,-5.6616,-5.6201,-5.5603,-5.4904,-5.3622,-5.272,-5.2192,-5.1725,-5.1613,-5.1711,-5.1926,-5.226,-5.2485,-5.2918,-5.3183,-5.3214,-5.3258,-5.3302,-5.3377,-5.3934,-5.4206,-5.4241,-5.438,-5.4168,-5.3141,-5.2645,-5.2374,-5.2219,-5.2099,-5.2154,-5.2669,-5.252,-5.234,-5.2533,-5.2324,-5.2183,-5.2207,-5.2401,-5.2412,-5.2455,-5.2467,-5.244,-5.2409,-5.2409,-5.2409,-5.2409,-5.2409,-5.2409,-5.2409,-5.2409,-5.2409,-5.248,-5.263,-5.2842,-5.2701,-5.2375,-5.2417,-5.2451,-5.2339,-5.2277,-5.2199,-5.2102,-5.1996,-5.1812,-5.1783,-5.1637,-5.1663,-5.1643,-5.1658,-5.1758,-5.1858,-5.198,-5.2126,-5.2258,-5.2353,-5.2446,-5.248,-5.248,-5.248,-5.248,-5.248,-6.7193,-6.5363,-6.6237,-6.6501,-6.647,-6.6533,-6.6501,-6.6259,-6.546,-6.4883,-6.4275,-6.2867,-6.1677,-6.104,-6.0938,-6.0845,-6.0794,-6.0794,-6.0322,-5.9706,-5.907,-5.843,-5.7721,-5.7166,-5.6858,-5.6858,-5.6858,-5.6858,-5.681,-5.6858,-5.6858,-5.681,-5.681,-5.681,-5.6858,-5.6844,-5.6519,-5.6042,-5.5329,-5.4699,-5.4083,-5.3606,-5.3509,-5.3458,-5.3683,-5.4028,-5.421,-5.437,-5.4444,-5.4444,-5.4412,-5.4412,-5.4476,-5.4921,-5.5048,-5.5024,-5.5333,-5.5172,-5.4621,-5.422,-5.4102,-5.3652,-5.3294,-5.3198,-5.3542,-5.3355,-5.3279,-5.3441,-5.3225,-5.3384,-5.348,-5.3503,-5.3218,-5.3126,-5.2967,-5.2705,-5.2572,-5.2442,-5.2442,-5.2409,-5.2409,-5.2409,-5.2516,-5.2551,-5.2445,-5.248,-5.3111,-5.3346,-5.3891,-5.3779,-5.3843,-5.383,-5.3662,-5.3548,-5.349,-5.3343,-5.3176,-5.2848,-5.2695,-5.2274,-5.1933,-5.1912,-5.1983,-5.1858,-5.1932,-5.2102,-5.2222,-5.2293,-5.24,-5.2434,-5.248,-5.248,-5.248,-5.248,-5.248,-6.9258,-6.8544,-6.8339,-6.7332,-6.5784,-6.5784,-6.5784,-6.5702,-6.5211,-6.4472,-6.3568,-6.2146,-6.1299,-6.1114,-6.1052,-6.1052,-6.1083,-6.1257,-6.0772,-6.0133,-5.9501,-5.882,-5.8089,-5.7549,-5.7211,-5.7242,-5.7115,-5.7115,-5.7211,-5.7146,-5.7115,-5.7115,-5.6971,-5.6923,-5.7019,-5.7353,-5.7308,-5.7012,-5.6653,-5.6013,-5.5189,-5.4639,-5.4361,-5.4025,-5.4401,-5.4613,-5.4822,-5.4998,-5.5155,-5.5155,-5.5155,-5.5155,-5.5113,-5.5477,-5.5454,-5.531,-5.5601,-5.5545,-5.5466,-5.5246,-5.5035,-5.4873,-5.46,-5.4414,-5.4405,-5.4244,-5.4136,-5.4131,-5.4026,-5.4126,-5.4053,-5.4043,-5.3989,-5.3861,-5.3599,-5.3169,-5.297,-5.2837,-5.2572,-5.2638,-5.2509,-5.2409,-5.2518,-5.2694,-5.2553,-5.2551,-5.3281,-5.3973,-5.453,-5.5009,-5.4969,-5.4973,-5.4839,-5.4658,-5.457,-5.4474,-5.4376,-5.3949,-5.3547,-5.3074,-5.26,-5.2483,-5.2508,-5.2276,-5.2005,-5.215,-5.2246,-5.234,-5.241,-5.2457,-5.248,-5.248,-5.248,-5.248,-5.248,-6.9905,-6.9465,-6.9157,-6.8059,-6.6514,-6.6024,-6.586,-6.5764,-6.513,-6.4157,-6.2858,-6.1851,-6.141,-6.141,-6.1359,-6.141,-6.1461,-6.1551,-6.1095,-6.0584,-5.9898,-5.9211,-5.8446,-5.7963,-5.7762,-5.7793,-5.7558,-5.7527,-5.7933,-5.7573,-5.7527,-5.7495,-5.7353,-5.7353,-5.7306,-5.7684,-5.7918,-5.7761,-5.7524,-5.7018,-5.6221,-5.5587,-5.5146,-5.4729,-5.4857,-5.4906,-5.5072,-5.5205,-5.5328,-5.5369,-5.5369,-5.5369,-5.5369,-5.5409,-5.5409,-5.5409,-5.5409,-5.5409,-5.5409,-5.5409,-5.5409,-5.5271,-5.5271,-5.5239,-5.528,-5.5029,-5.497,-5.5103,-5.4841,-5.4706,-5.483,-5.4911,-5.4854,-5.4725,-5.4162,-5.3732,-5.3665,-5.3566,-5.3169,-5.2904,-5.2771,-5.2741,-5.2657,-5.2868,-5.3349,-5.3416,-5.4042,-5.4672,-5.5249,-5.5623,-5.5851,-5.5893,-5.594,-5.5774,-5.5642,-5.5464,-5.5187,-5.4652,-5.4251,-5.3894,-5.3528,-5.3314,-5.2988,-5.2734,-5.2497,-5.2282,-5.2293,-5.2446,-5.2457,-5.248,-5.248,-5.248,-5.248,-5.248,-5.248,-6.8663,-6.7378,-6.8138,-6.8718,-6.8825,-6.7655,-6.7003,-6.6647,-6.5238,-6.3981,-6.2918,-6.2216,-6.2016,-6.1966,-6.1815,-6.1866,-6.1966,-6.2035,-6.1752,-6.1155,-6.0418,-5.9646,-5.8986,-5.8499,-5.8293,-5.8813,-5.842,-5.8169,-5.8719,-5.8169,-5.7949,-5.8011,-5.8058,-5.7918,-5.7559,-5.798,-5.8303,-5.8487,-5.8469,-5.8024,-5.7375,-5.6721,-5.6248,-5.5591,-5.5365,-5.538,-5.5196,-5.5287,-5.5409,-5.5409,-5.5409,-5.5409,-5.5409,-5.5409,-5.5409,-5.5409,-5.5409,-5.5409,-5.5409,-5.5409,-5.5409,-5.5409,-5.5409,-5.5409,-5.545,-5.5507,-5.5683,-5.5719,-5.5883,-5.6183,-5.62,-5.6017,-5.5681,-5.5383,-5.4858,-5.4494,-5.4427,-5.4129,-5.3699,-5.3467,-5.3367,-5.3238,-5.3027,-5.311,-5.3879,-5.4362,-5.4861,-5.5378,-5.5815,-5.6077,-5.6245,-5.63,-5.6328,-5.6221,-5.6062,-5.6204,-5.6026,-5.5455,-5.5,-5.4706,-5.4242,-5.3813,-5.3514,-5.3214,-5.2917,-5.2642,-5.2533,-5.2516,-5.2516,-5.248,-5.248,-5.248,-5.248,-5.248,-5.248,-7.0043,-7.0038,-6.9795,-6.9815,-6.9692,-6.7446,-6.6438,-6.618,-6.4736,-6.3709,-6.3308,-6.2759,-6.2562,-6.2513,-6.2432,-6.2432,-6.2562,-6.2759,-6.2504,-6.2087,-6.1186,-6.0598,-5.9885,-5.9185,-5.8878,-5.891,-5.8614,-5.8568,-5.8942,-5.8568,-5.8582,-5.861,-5.8655,-5.8518,-5.8441,-5.8624,-5.894,-5.8882,-5.8908,-5.8665,-5.7936,-5.7672,-5.7151,-5.622,-5.6034,-5.5771,-5.5343,-5.5466,-5.5409,-5.5409,-5.5409,-5.5409,-5.5409,-5.5409,-5.5409,-5.5409,-5.5409,-5.5409,-5.545,-5.5523,-5.5564,-5.5491,-5.545,-5.5491,-5.5645,-5.5726,-5.5966,-5.6205,-5.6362,-5.6558,-5.6509,-5.6481,-5.6282,-5.6183,-5.5752,-5.5388,-5.5085,-5.4659,-5.4262,-5.4195,-5.4096,-5.4312,-5.426,-5.4157,-5.4698,-5.5026,-5.5448,-5.5648,-5.5993,-5.6189,-5.6355,-5.6355,-5.6383,-5.6383,-5.6383,-5.6383,-5.6383,-5.599,-5.574,-5.5598,-5.5098,-5.4456,-5.422,-5.4065,-5.3468,-5.2966,-5.2918,-5.2842,-5.2589,-5.248,-5.248,-5.248,-5.248,-5.248,-5.248,-7.0429,-7.1043,-7.0625,-7.0414,-6.9986,-6.759,-6.6127,-6.5311,-6.42,-6.3755,-6.366,-6.3244,-6.3099,-6.3051,-6.3002,-6.3051,-6.3099,-6.3196,-6.3325,-6.2908,-6.1803,-6.1212,-6.059,-5.985,-5.9685,-5.9492,-5.9242,-5.9087,-5.9928,-5.9183,-5.9004,-5.9184,-5.9197,-5.9152,-5.9107,-5.9197,-5.9286,-5.9241,-5.9298,-5.9214,-5.8719,-5.8333,-5.7936,-5.7205,-5.6718,-5.6251,-5.5863,-5.5604,-5.5409,-5.5409,-5.5409,-5.5409,-5.5409,-5.5409,-5.5409,-5.5409,-5.5491,-5.5531,-5.5726,-5.5806,-5.5806,-5.5693,-5.5612,-5.5726,-5.5886,-5.6006,-5.6126,-5.6323,-5.6441,-5.6558,-5.6641,-5.668,-5.6647,-5.6514,-5.6382,-5.5984,-5.5852,-5.5388,-5.5277,-5.521,-5.5238,-5.5445,-5.5618,-5.5522,-5.5632,-5.5818,-5.5992,-5.6064,-5.6134,-5.6273,-5.6383,-5.6383,-5.6383,-5.6383,-5.6383,-5.6383,-5.6383,-5.6383,-5.6276,-5.6097,-5.5839,-5.5223,-5.5059,-5.4856,-5.4273,-5.3784,-5.3435,-5.3204,-5.2842,-5.2589,-5.248,-5.248,-5.248,-5.248,-5.248,-6.967,-7.0291,-7.036,-7.036,-6.9962,-6.7971,-6.6035,-6.415,-6.4071,-6.4038,-6.3944,-6.3707,-6.3532,-6.3564,-6.3373,-6.3373,-6.3564,-6.3612,-6.3612,-6.3161,-6.2099,-6.1713,-6.0959,-6.0135,-6.0032,-6.0444,-6.0258,-5.9736,-6.105,-5.9929,-5.9452,-5.9584,-5.9584,-5.954,-5.9496,-5.9464,-5.9464,-5.954,-5.9552,-5.9487,-5.9294,-5.8949,-5.8594,-5.7947,-5.731,-5.6672,-5.6219,-5.583,-5.5507,-5.5409,-5.5409,-5.5409,-5.5409,-5.5409,-5.5409,-5.5491,-5.5685,-5.5846,-5.6006,-5.6046,-5.6086,-5.6013,-5.6126,-5.6126,-5.6126,-5.6244,-5.6362,-5.648,-5.6564,-5.6603,-5.668,-5.668,-5.668,-5.6647,-5.6647,-5.6547,-5.6586,-5.6469,-5.65,-5.6493,-5.6518,-5.6678,-5.69,-5.6846,-5.6369,-5.6422,-5.644,-5.6205,-5.6245,-5.63,-5.6383,-5.6383,-5.6383,-5.6383,-5.6383,-5.6383,-5.6383,-5.6383,-5.6383,-5.624,-5.608,-5.5982,-5.5793,-5.5518,-5.5069,-5.4616,-5.4134,-5.3566,-5.3023,-5.2878,-5.3132,-5.2661,-5.2733,-5.2552,-5.248,-6.8877,-6.9566,-6.9601,-6.9601,-6.9376,-6.7836,-6.6212,-6.4839,-6.4715,-6.4518,-6.3976,-6.3897,-6.3944,-6.385,-6.3802,-6.3802,-6.385,-6.3897,-6.3882,-6.3268,-6.2234,-6.1846,-6.1168,-6.036,-6.0146,-6.0061,-5.9984,-5.9843,-6.0069,-5.9584,-5.9584,-5.9673,-5.9673,-5.9673,-5.9673,-5.9628,-5.9673,-5.9673,-5.9673,-5.9673,-5.9673,-5.9381,-5.9058,-5.8475,-5.7741,-5.7061,-5.651,-5.583,-5.5474,-5.5409,-5.5409,-5.5409,-5.5409,-5.5604,-5.5726,-5.5886,-5.5966,-5.6046,-5.6126,-5.6244,-5.6323,-5.633,-5.6408,-5.6408,-5.6369,-5.6402,-5.6447,-5.6564,-5.6641,-5.668,-5.668,-5.668,-5.668,-5.668,-5.6719,-5.6757,-5.6834,-5.7034,-5.71,-5.7548,-5.7598,-5.7977,-5.8202,-5.752,-5.704,-5.7057,-5.6886,-5.6514,-5.6328,-5.6383,-5.6383,-5.6383,-5.6383,-5.6383,-5.6383,-5.6383,-5.6383,-5.6383,-5.641,-5.6465,-5.6438,-5.6376,-5.6374,-5.6171,-5.571,-5.5207,-5.4701,-5.4182,-5.3711,-5.4074,-5.4255,-5.353,-5.2951,-5.2915,-5.2733,-6.8842,-6.9256,-6.9291,-6.9291,-6.9112,-6.8027,-6.6829,-6.5888,-6.5537,-6.5168,-6.4839,-6.4518,-6.4379,-6.4333,-6.4132,-6.3815,-6.3491,-6.3426,-6.3297,-6.265,-6.2094,-6.1562,-6.0947,-6.0429,-6.0105,-5.9943,-5.9911,-5.9899,-5.9943,-5.9781,-5.9673,-5.9673,-5.9673,-5.9673,-5.9673,-5.9673,-5.9673,-5.9673,-5.9673,-5.9673,-5.9673,-5.9673,-5.9349,-5.8972,-5.8162,-5.7385,-5.6834,-5.6025,-5.5474,-5.545,-5.5483,-5.5564,-5.5572,-5.5806,-5.6006,-5.6165,-5.6205,-5.6284,-5.6369,-5.6447,-5.6486,-5.6525,-5.6603,-5.6603,-5.6564,-5.6525,-5.6603,-5.668,-5.668,-5.668,-5.668,-5.668,-5.668,-5.668,-5.6757,-5.6834,-5.7101,-5.7402,-5.785,-5.8354,-5.8769,-5.9254,-5.9056,-5.8261,-5.7719,-5.7662,-5.7191,-5.6534,-5.6355,-5.6383,-5.6383,-5.6383,-5.6383,-5.6383,-5.641,-5.641,-5.6437,-5.6465,-5.6492,-5.6546,-5.6653,-5.675,-5.6737,-5.6587,-5.6353,-5.586,-5.5341,-5.4979,-5.4653,-5.4979,-5.5088,-5.4472,-5.3965,-5.3892,-5.3603,-6.9158,-6.9153,-6.9227,-6.9118,-6.9084,-6.8354,-6.7684,-6.712,-6.6432,-6.6115,-6.5888,-6.5293,-6.4926,-6.4737,-6.4263,-6.3675,-6.3427,-6.3264,-6.3113,-6.2003,-6.1755,-6.141,-6.0931,-6.0246,-6.0137,-6.0267,-6.0202,-5.9911,-6.0267,-6.0073,-5.9673,-5.9716,-5.9673,-5.9673,-5.9673,-5.9673,-5.9673,-5.9673,-5.9673,-5.9673,-5.9673,-5.9673,-5.964,-5.9457,-5.8551,-5.7579,-5.7233,-5.6487,-5.5515,-5.5556,-5.5645,-5.5806,-5.5927,-5.6006,-5.6205,-5.633,-5.6441,-5.6519,-5.6564,-5.6641,-5.6641,-5.668,-5.668,-5.668,-5.6641,-5.6641,-5.668,-5.668,-5.668,-5.668,-5.668,-5.668,-5.668,-5.6796,-5.6911,-5.7063,-5.7327,-5.7848,-5.8668,-5.918,-5.9739,-6.0132,-6.0073,-5.9342,-5.8452,-5.8324,-5.7675,-5.6811,-5.6446,-5.6446,-5.641,-5.641,-5.6383,-5.641,-5.6465,-5.6492,-5.6519,-5.6546,-5.66,-5.668,-5.6812,-5.6943,-5.7036,-5.6895,-5.6692,-5.6464,-5.6029,-5.574,-5.5558,-5.5558,-5.5522,-5.5233,-5.4979,-5.4907,-5.4508,-6.7876,-6.8359,-6.8394,-6.8394,-6.8359,-6.8187,-6.8004,-6.7811,-6.7107,-6.6486,-6.6024,-6.532,-6.4924,-6.4847,-6.4154,-6.3659,-6.3537,-6.3308,-6.3425,-6.2901,-6.2354,-6.1644,-6.1415,-6.0805,-6.0444,-6.0008,-5.9846,-5.9957,-6.0163,-5.9945,-5.9716,-5.9716,-5.9716,-5.9673,-5.9716,-5.9716,-5.976,-5.976,-5.9804,-5.9804,-5.976,-5.9716,-5.9684,-5.9457,-5.8777,-5.8108,-5.7631,-5.701,-5.6197,-5.5888,-5.5959,-5.6086,-5.6284,-5.6323,-5.6408,-5.6564,-5.6603,-5.6641,-5.668,-5.668,-5.668,-5.668,-5.668,-5.668,-5.668,-5.668,-5.668,-5.668,-5.668,-5.668,-5.668,-5.668,-5.6757,-5.6911,-5.7101,-5.7364,-5.7662,-5.8528,-5.9415,-5.9969,-6.0538,-6.0717,-6.0725,-6.0249,-5.9429,-5.8709,-5.7953,-5.7231,-5.666,-5.6482,-5.6465,-5.6437,-5.641,-5.6437,-5.6527,-5.6573,-5.6626,-5.6707,-5.676,-5.6839,-5.6907,-5.701,-5.7112,-5.7138,-5.7007,-5.679,-5.6717,-5.6826,-5.6645,-5.6355,-5.6247,-5.6029,-5.6029,-5.5957,-5.5486,-6.6973,-6.7315,-6.7238,-6.72,-6.72,-6.7157,-6.7118,-6.7014,-6.6669,-6.6313,-6.5936,-6.5275,-6.4832,-6.4749,-6.4103,-6.3551,-6.345,-6.33,-6.2883,-6.2699,-6.2691,-6.2049,-6.1589,-6.1376,-6.1165,-6.0666,-6.0633,-6.0642,-6.0538,-6.0249,-6.0163,-6.0076,-5.9946,-5.9804,-5.9772,-5.9804,-5.9935,-5.9892,-5.999,-6.0033,-5.999,-5.9848,-5.9804,-5.9577,-5.921,-5.8635,-5.8372,-5.7812,-5.7127,-5.6522,-5.6355,-5.6323,-5.6447,-5.6525,-5.6564,-5.6641,-5.668,-5.668,-5.668,-5.668,-5.6719,-5.6719,-5.6719,-5.6719,-5.668,-5.668,-5.668,-5.668,-5.668,-5.668,-5.668,-5.668,-5.6987,-5.7214,-5.7406,-5.7701,-5.8493,-5.9515,-6.0033,-6.0415,-6.0818,-6.0908,-6.0814,-6.035,-5.9637,-5.9244,-5.8488,-5.7751,-5.7179,-5.6706,-5.6626,-5.6546,-5.6519,-5.6492,-5.6546,-5.6653,-5.6724,-5.6803,-5.6881,-5.6959,-5.7036,-5.7112,-5.7188,-5.7188,-5.7188,-5.7152,-5.7152,-5.7188,-5.7188,-5.6862,-5.6899,-5.6935,-5.6935,-5.679,-5.6391,-6.6375,-6.6408,-6.6396,-6.6355,-6.6283,-6.6201,-6.6163,-6.6025,-6.5887,-6.5814,-6.5623,-6.4947,-6.475,-6.4538,-6.4045,-6.3444,-6.3101,-6.3174,-6.2615,-6.2373,-6.2253,-6.2206,-6.2092,-6.1803,-6.174,-6.1773,-6.1781,-6.1821,-6.1781,-6.1326,-6.0903,-6.0769,-6.043,-6.0076,-6.0076,-6.0216,-6.0515,-6.0642,-6.0685,-6.06,-6.0378,-6.0033,-6.0022,-5.9805,-5.9598,-5.9259,-5.9091,-5.8748,-5.806,-5.7526,-5.6988,-5.675,-5.6636,-5.6641,-5.6641,-5.668,-5.668,-5.668,-5.668,-5.668,-5.6757,-5.6834,-5.6796,-5.6834,-5.6872,-5.6987,-5.6987,-5.6987,-5.6987,-5.6949,-5.6949,-5.7063,-5.7331,-5.7628,-5.792,-5.8317,-5.9347,-6.029,-6.0538,-6.0813,-6.0938,-6.1093,-6.0808,-6.0344,-6.0052,-5.9695,-5.9181,-5.8407,-5.7746,-5.7307,-5.7048,-5.6823,-5.6707,-5.668,-5.668,-5.676,-5.6855,-5.6959,-5.7036,-5.7087,-5.7138,-5.7163,-5.7188,-5.7188,-5.7188,-5.7188,-5.7188,-5.7188,-5.7188,-5.7188,-5.7152,-5.7152,-5.7116,-5.7043,-5.7116,-6.6284,-6.6915,-6.7363,-6.7534,-6.7459,-6.731,-6.6922,-6.6225,-6.56,-6.5318,-6.5031,-6.4507,-6.4252,-6.4687,-6.3958,-6.3498,-6.3482,-6.3384,-6.3395,-6.3299,-6.3037,-6.2814,-6.2702,-6.2753,-6.2609,-6.2724,-6.2858,-6.2879,-6.3029,-6.2431,-6.1929,-6.1923,-6.185,-6.1656,-6.1656,-6.1736,-6.1656,-6.1656,-6.1689,-6.1649,-6.1069,-6.0727,-6.0335,-6.0269,-6.0237,-5.9778,-5.947,-5.9365,-5.8922,-5.8378,-5.786,-5.7387,-5.7138,-5.7015,-5.6949,-5.6987,-5.6987,-5.6949,-5.6954,-5.6987,-5.7101,-5.7402,-5.7476,-5.7628,-5.7738,-5.7923,-5.7923,-5.7993,-5.7957,-5.7811,-5.7811,-5.7957,-5.8209,-5.8458,-5.8702,-5.938,-6.0286,-6.06,-6.0818,-6.0938,-6.1064,-6.1123,-6.1117,-6.0818,-6.0662,-6.0332,-6.006,-5.9282,-5.8232,-5.7828,-5.7469,-5.7162,-5.6891,-5.6907,-5.6943,-5.6907,-5.6984,-5.7087,-5.7138,-5.7163,-5.7163,-5.7188,-5.7188,-5.7188,-5.7188,-5.7188,-5.7188,-5.7188,-5.7188,-5.7188,-5.7188,-5.7188,-5.7188,-5.7188,-5.7188]},{"header":{"parameterUnit":"m.s-1","parameterCategory":1,"la1":31.0,"la2":29.5877,"lo1":-88.7671,"lo2":-86.6584,"dy":0.0162,"dx":0.0185,"nx":115,"ny":88,"refTime":"2026-04-29T00:00:00:Z","depth":0,"parameterNumber":3,"parameterNumberName":"V-component_of_WINDS"},"data":[0.0,0.0,0.0,0.0,0.0,0.0,0.0,0.0,0.0,0.0,0.0,0.0,0.0,0.0,0.0,0.0,0.0,0.0,0.0,0.0,0.0,0.0,0.0,0.0,0.0,0.0,0.0,0.0,0.0,0.0,0.0,0.0,0.0,0.0,0.0,0.0,0.0,0.0,0.0,0.0,0.0,0.0,0.0,0.0,0.0,0.0,0.0,0.0,0.0,0.0,0.0,0.0,0.0,0.0,0.0,0.0,0.0,0.0,0.0,0.0,0.0,0.0,0.0,0.0,0.0,0.0,0.0,0.0,0.0,0.0,0.0,0.0,0.0,0.0,0.0,0.0,0.0,0.0,0.0,0.0,0.0,0.0,0.0,0.0,0.0,0.0,0.0,0.0,0.0,0.0,0.0,0.0,0.0,0.0,0.0,0.0,0.0,0.0,0.0,0.0,0.0,0.0,0.0,0.0,0.0,0.0,0.0,0.0,0.0,0.0,0.0,0.0,0.0,0.0,0.0,0.0,0.0,0.0,0.0,0.0,0.0,0.0,0.0,0.0,0.0,0.0,0.0,0.0,0.0,0.0,0.0,0.0,0.0,0.0,0.0,0.0,0.0,0.0,0.0,0.0,0.0,0.0,0.0,0.0,0.0,0.0,0.0,0.0,0.0,0.0,0.0,0.0,0.0,0.0,0.0,0.0,0.0,0.0,0.0,0.0,0.0,0.0,0.0,0.0,0.0,0.0,0.0,0.0,0.0,0.0,0.0,0.0,0.0,0.0,0.0,0.0,0.0,0.0,0.0,0.0,0.0,0.0,0.0,0.0,0.0,0.0,0.0,0.0,0.0,0.0,0.0,0.0,0.0,0.0,0.0,0.0,0.0,0.0,0.0,0.0,0.0,0.0,0.0,0.0,0.0,0.0,0.0,0.0,0.0,0.0,0.0,0.0,0.0,0.0,0.0,0.0,0.0,0.0,0.0,0.0,0.0,0.0,0.0,0.0,0.0,0.0,0.0,0.0,0.0,0.0,0.0,0.0,0.0,0.0,0.0,0.0,0.0,0.0,0.0,0.0,0.0,0.0,0.0,0.0,0.0,0.0,0.0,0.0,0.0,0.0,0.0,0.0,0.0,0.0,0.0,0.0,0.0,0.0,0.0,0.0,0.0,0.0,0.0,0.0,0.0,0.0,0.0,0.0,0.0,0.0,0.0,0.0,0.0,0.0,0.0,0.0,0.0,0.0,0.0,0.0,0.0,0.0,0.0,0.0,0.0,0.0,0.0,0.0,0.0,0.0,0.0,0.0,0.0,0.0,0.0,0.0,0.0,0.0,0.0,0.0,0.0,0.0,0.0,0.0,0.0,0.0,0.0,0.0,0.0,0.0,0.0,0.0,0.0,0.0,0.0,0.0,0.0,0.0,0.0,0.0,0.0,0.0,0.0,0.0,0.0,0.0,0.0,0.0,0.0,0.0,0.0,0.0,0.0,0.0,0.0,0.0,0.0,0.0,0.0,0.0,0.0,0.0,0.0,0.0,0.0,0.0,0.0,0.0,0.0,0.0,0.0,0.0,0.0,0.0,0.0,0.0,0.0,0.0,0.0,0.0,0.0,0.0,0.0,0.0,0.0,0.0,0.0,0.0,0.0,0.0,0.0,0.0,0.0,0.0,0.0,0.0,0.0,0.0,0.0,0.0,0.0,0.0,0.0,0.0,0.0,0.0,0.0,0.0,0.0,0.0,0.0,0.0,0.0,0.0,0.0,0.0,0.0,0.0,0.0,0.0,0.0,0.0,0.0,0.0,0.0,0.0,0.0,0.0,0.0,0.0,0.0,0.0,0.0,0.0,0.0,0.0,0.0,0.0,0.0,0.0,0.0,0.0,0.0,0.0,0.0,0.0,0.0,0.0,0.0,0.0,0.0,0.0,0.0,0.0,0.0,0.0,0.0,0.0,0.0,0.0,0.0,0.0,0.0,0.0,0.0,0.0,0.0,0.0,0.0,0.0,0.0,0.0,0.0,0.0,0.0,0.0,0.0,0.0,0.0,0.0,0.0,0.0,0.0,0.0,0.0,0.0,0.0,0.0,0.0,0.0,0.0,0.0,0.0,0.0,0.0,0.0,0.0,0.0,0.0,0.0,0.0,0.0,0.0,0.0,0.0,0.0,0.0,0.0,0.0,0.0,0.0,0.0,0.0,0.0,0.0,0.0,0.0,0.0,0.0,0.0,0.0,0.0,0.0,0.0,0.0,0.0,0.0,0.0,0.0,0.0,0.0,0.0,0.0,0.0,0.0,0.0,0.0,0.0,0.0,0.0,0.0,0.0,0.0,0.0,0.0,0.0,0.0,0.0,0.0,0.0,0.0,0.0,0.0,0.0,0.0,0.0,0.0,0.0,0.0,0.0,0.0,0.0,0.0,0.0,0.0,0.0,0.0,0.0,0.0,0.0,0.0,0.0,0.0,0.0,0.0,0.0,0.0,0.0,0.0,0.0,0.0,0.0,0.0,0.0,0.0,0.0,0.0,0.0,0.0,0.0,0.0,0.0,0.0,0.0,0.0,0.0,0.0,0.0,0.0,0.0,0.0,0.0,0.0,0.0,0.0,0.0,0.0,0.0,0.0,0.0,0.0,0.0,0.0,0.0,0.0,0.0,0.0,0.0,0.0,0.0,0.0,0.0,0.0,0.0,0.0,0.0,0.0,0.0,0.0,0.0,0.0,0.0,0.0,0.0,0.0,0.0,0.0,0.0,0.0,0.0,0.0,0.0,0.0,0.0,0.0,0.0,0.0,0.0,0.0,0.0,0.0,0.0,0.0,0.0,0.0,0.0,0.0,0.0,0.0,0.0,0.0,0.0,0.0,0.0,0.0,0.0,0.0,0.0,0.0,0.0,0.0,0.0,0.0,0.0,0.0,0.0,0.0,0.0,0.0,0.0,0.0,0.0,0.0,0.0,0.0,0.0,0.0,0.0,0.0,0.0,0.0,0.0,0.0,0.0,0.0,0.0,0.0,0.0,0.0,0.0,0.0,0.0,0.0,0.0,0.0,0.0,0.0,0.0,0.0,0.0,0.0,0.0,0.0,0.0,0.0,0.0,0.0,0.0,0.0,0.0,0.0,0.0,0.0,0.0,0.0,0.0,0.0,0.0,0.0,0.0,0.0,0.0,0.0,0.0,0.0,0.0,0.0,0.0,0.0,0.0,0.0,0.0,0.0,0.0,0.0,0.0,0.0,0.0,0.0,0.0,0.0,0.0,0.0,0.0,0.0,0.0,0.0,0.0,0.0,0.0,0.0,0.0,0.0,0.0,0.0,0.0,0.0,0.0,0.0,0.0,0.0,0.0,0.0,0.0,0.0,0.0,0.0,0.0,0.0,0.0,0.0,0.0,0.0,0.0,0.0,0.0,0.0,0.0,0.0,0.0,0.0,0.0,0.0,0.0,0.0,0.0,0.0,0.0,0.0,0.0,0.0,0.0,0.0,0.0,0.0,0.0,0.0,0.0,0.0,0.0,0.0,0.0,0.0,0.0,0.0,0.0,0.0,0.0,0.0,0.0,0.0,0.0,0.0,0.0,0.0,0.0,0.0,0.0,0.0,0.0,0.0,0.0,0.0,0.0,0.0,0.0,0.0,0.0,0.0,0.0,0.0,0.0,0.0,0.0,0.0,0.0,0.0,0.0,0.0,0.0,0.0,0.0,0.0,0.0,0.0,0.0,0.0,0.0,0.0,0.0,0.0,0.0,0.0,0.0,0.0,0.0,0.0,0.0,0.0,0.0,0.0,0.0,0.0,0.0,0.0,0.0,0.0,0.0,0.0,0.0,0.0,0.0,0.0,0.0,0.0,0.0,0.0,0.0,0.0,0.0,0.0,0.0,0.0,0.0,0.0,0.0,0.0,0.0,0.0,0.0,0.0,0.0,0.0,0.0,0.0,0.0,0.0,0.0,0.0,0.0,0.0,0.0,0.0,0.0,0.0,0.0,0.0,0.0,0.0,0.0,0.0,0.0,0.0,0.0,0.0,0.0,0.0,0.0,0.0,0.0,0.0,0.0,0.0,0.0,0.0,0.0,0.0,0.0,0.0,0.0,0.0,0.0,0.0,0.0,0.0,0.0,0.0,0.0,0.0,0.0,0.0,0.0,0.0,0.0,0.0,0.0,0.0,0.0,0.0,0.0,0.0,0.0,0.0,0.0,0.0,0.0,0.0,0.0,0.0,0.0,0.0,0.0,0.0,0.0,0.0,0.0,0.0,0.0,0.0,0.0,0.0,0.0,0.0,0.0,0.0,0.0,2.8457,0.0,0.0,0.0,0.0,0.0,0.0,0.0,0.0,0.0,0.0,0.0,0.0,0.0,0.0,0.0,0.0,0.0,0.0,0.0,0.0,0.0,0.0,0.0,0.0,0.0,0.0,0.0,0.0,0.0,0.0,0.0,0.0,0.0,0.0,0.0,0.0,0.0,0.0,0.0,0.0,0.0,0.0,0.0,0.0,0.0,0.0,0.0,0.0,0.0,0.0,0.0,0.0,0.0,0.0,0.0,0.0,0.0,0.0,0.0,0.0,0.0,0.0,0.0,0.0,0.0,0.0,0.0,0.0,0.0,0.0,0.0,0.0,0.0,0.0,0.0,0.0,0.0,0.0,0.0,0.0,0.0,0.0,0.0,0.0,0.0,0.0,0.0,0.0,0.0,0.0,0.0,0.0,0.0,0.0,0.0,0.0,0.0,0.0,0.0,0.0,0.0,0.0,0.0,0.0,0.0,0.0,0.0,0.0,0.0,0.0,2.8786,2.8094,2.8757,2.8786,2.8094,0.0,0.0,0.0,0.0,0.0,0.0,0.0,0.0,0.0,0.0,0.0,0.0,0.0,0.0,0.0,0.0,0.0,0.0,0.0,0.0,0.0,0.0,0.0,0.0,0.0,0.0,0.0,0.0,0.0,0.0,0.0,0.0,0.0,0.0,0.0,0.0,0.0,0.0,0.0,0.0,0.0,0.0,0.0,0.0,0.0,0.0,0.0,0.0,0.0,0.0,0.0,0.0,0.0,0.0,0.0,0.0,0.0,0.0,0.0,0.0,0.0,0.0,0.0,0.0,0.0,0.0,0.0,0.0,0.0,0.0,0.0,0.0,0.0,0.0,0.0,0.0,0.0,0.0,0.0,0.0,0.0,0.0,0.0,0.0,0.0,0.0,0.0,0.0,0.0,0.0,0.0,0.0,0.0,0.0,0.0,0.0,0.0,0.0,0.0,0.0,0.0,0.0,0.0,0.0,0.0,0.0,0.0,0.0,0.0,0.0,0.0,0.0,2.9645,2.9555,2.8385,0.0,0.0,0.0,0.0,0.0,0.0,0.0,0.0,0.0,0.0,0.0,0.0,0.0,0.0,0.0,0.0,0.0,0.0,0.0,0.0,0.0,0.0,0.0,0.0,0.0,0.0,0.0,0.0,0.0,0.0,0.0,0.0,0.0,0.0,0.0,0.0,0.0,0.0,0.0,0.0,0.0,0.0,0.0,0.0,0.0,0.0,0.0,0.0,0.0,0.0,0.0,0.0,0.0,0.0,0.0,0.0,0.0,0.0,0.0,0.0,0.0,0.0,0.0,0.0,0.0,0.0,0.0,0.0,0.0,0.0,0.0,0.0,0.0,0.0,0.0,0.0,0.0,0.0,0.0,0.0,0.0,0.0,0.0,0.0,0.0,0.0,0.0,0.0,0.0,0.0,0.0,0.0,0.0,0.0,0.0,0.0,0.0,0.0,0.0,0.0,0.0,0.0,0.0,0.0,0.0,0.0,0.0,0.0,0.0,0.0,2.9826,3.222,3.1828,0.0,3.0561,0.0,0.0,0.0,0.0,0.0,0.0,0.0,0.0,0.0,0.0,0.0,0.0,0.0,0.0,0.0,0.0,0.0,0.0,0.0,0.0,0.0,0.0,0.0,0.0,0.0,0.0,0.0,0.0,0.0,0.0,0.0,0.0,0.0,0.0,0.0,0.0,0.0,0.0,0.0,0.0,0.0,0.0,0.0,0.0,0.0,0.0,0.0,0.0,0.0,0.0,0.0,0.0,0.0,0.0,0.0,0.0,0.0,0.0,0.0,0.0,0.0,0.0,0.0,0.0,0.0,0.0,0.0,0.0,0.0,0.0,0.0,0.0,0.0,0.0,0.0,0.0,0.0,0.0,0.0,0.0,0.0,0.0,0.0,0.0,0.0,0.0,0.0,0.0,0.0,0.0,0.0,0.0,0.0,0.0,0.0,0.0,0.0,0.0,0.0,0.0,0.0,0.0,0.0,0.0,0.0,0.0,0.0,0.0,0.0,0.0,0.0,3.1726,3.1455,3.1,0.0,0.0,0.0,0.0,0.0,0.0,0.0,0.0,0.0,0.0,0.0,0.0,0.0,0.0,0.0,0.0,0.0,0.0,0.0,0.0,0.0,0.0,0.0,0.0,0.0,0.0,0.0,0.0,0.0,0.0,0.0,0.0,0.0,0.0,0.0,0.0,0.0,0.0,0.0,0.0,0.0,0.0,0.0,0.0,0.0,0.0,0.0,0.0,0.0,0.0,0.0,0.0,0.0,0.0,0.0,0.0,0.0,0.0,0.0,0.0,0.0,0.0,0.0,0.0,0.0,0.0,0.0,0.0,0.0,0.0,0.0,0.0,0.0,0.0,0.0,0.0,0.0,0.0,0.0,0.0,0.0,0.0,0.0,0.0,0.0,0.0,0.0,0.0,0.0,0.0,0.0,0.0,0.0,0.0,0.0,0.0,0.0,0.0,0.0,0.0,0.0,0.0,0.0,0.0,0.0,0.0,0.0,0.0,0.0,0.0,3.1116,0.0,3.1896,3.1896,3.1348,3.0099,0.0,0.0,0.0,0.0,0.0,0.0,0.0,0.0,0.0,0.0,0.0,0.0,0.0,0.0,0.0,0.0,0.0,0.0,0.0,0.0,0.0,0.0,0.0,0.0,0.0,0.0,0.0,0.0,0.0,0.0,0.0,0.0,0.0,0.0,0.0,0.0,0.0,0.0,0.0,0.0,0.0,0.0,0.0,0.0,0.0,0.0,0.0,0.0,0.0,0.0,0.0,0.0,0.0,0.0,0.0,0.0,0.0,0.0,0.0,0.0,0.0,0.0,0.0,0.0,0.0,0.0,0.0,0.0,0.0,0.0,0.0,0.0,0.0,0.0,0.0,0.0,0.0,0.0,0.0,0.0,0.0,0.0,0.0,0.0,0.0,0.0,0.0,0.0,0.0,0.0,0.0,0.0,0.0,0.0,0.0,0.0,0.0,0.0,0.0,0.0,0.0,0.0,0.0,0.0,0.0,0.0,0.0,0.0,0.0,3.2353,3.2048,3.4115,3.4146,3.2892,0.0,0.0,0.0,0.0,0.0,0.0,0.0,0.0,0.0,0.0,0.0,0.0,0.0,0.0,0.0,0.0,0.0,0.0,0.0,0.0,0.0,0.0,0.0,0.0,0.0,0.0,0.0,0.0,0.0,0.0,0.0,0.0,0.0,0.0,0.0,0.0,0.0,0.0,0.0,0.0,0.0,0.0,0.0,0.0,0.0,0.0,0.0,0.0,0.0,0.0,0.0,0.0,0.0,0.0,0.0,0.0,0.0,0.0,0.0,0.0,0.0,0.0,0.0,0.0,0.0,0.0,0.0,0.0,0.0,0.0,0.0,0.0,0.0,0.0,0.0,0.0,0.0,0.0,0.0,0.0,0.0,0.0,0.0,0.0,0.0,0.0,0.0,0.0,0.0,0.0,0.0,0.0,0.0,0.0,0.0,0.0,0.0,0.0,0.0,0.0,0.0,0.0,0.0,0.0,0.0,0.0,0.0,0.0,0.0,3.0658,3.1052,3.3079,3.6684,3.3661,3.1932,0.0,0.0,0.0,0.0,0.0,0.0,0.0,0.0,0.0,0.0,0.0,0.0,0.0,0.0,0.0,0.0,0.0,0.0,0.0,0.0,0.0,0.0,0.0,0.0,0.0,0.0,0.0,0.0,0.0,0.0,0.0,0.0,0.0,0.0,0.0,0.0,0.0,0.0,0.0,0.0,0.0,0.0,0.0,0.0,0.0,0.0,0.0,0.0,0.0,0.0,0.0,0.0,0.0,0.0,0.0,0.0,0.0,0.0,0.0,0.0,0.0,0.0,0.0,0.0,0.0,0.0,0.0,0.0,0.0,0.0,0.0,0.0,0.0,0.0,0.0,0.0,0.0,0.0,0.0,0.0,0.0,0.0,0.0,0.0,0.0,0.0,0.0,0.0,0.0,0.0,0.0,0.0,0.0,0.0,0.0,0.0,0.0,0.0,0.0,0.0,0.0,0.0,0.0,0.0,0.0,0.0,0.0,0.0,0.0,3.0622,0.0,3.5316,0.0,3.4148,3.1986,0.0,0.0,0.0,0.0,0.0,0.0,0.0,0.0,0.0,0.0,0.0,0.0,0.0,0.0,0.0,0.0,0.0,0.0,0.0,0.0,0.0,0.0,0.0,0.0,0.0,0.0,0.0,0.0,0.0,0.0,0.0,0.0,0.0,0.0,0.0,0.0,0.0,0.0,0.0,0.0,0.0,0.0,0.0,0.0,0.0,0.0,0.0,0.0,0.0,0.0,0.0,0.0,0.0,0.0,0.0,0.0,0.0,0.0,0.0,0.0,0.0,0.0,0.0,0.0,0.0,0.0,0.0,0.0,0.0,0.0,0.0,0.0,0.0,0.0,0.0,0.0,0.0,0.0,0.0,0.0,0.0,0.0,0.0,0.0,0.0,0.0,0.0,0.0,0.0,0.0,0.0,0.0,0.0,0.0,0.0,0.0,0.0,0.0,0.0,0.0,0.0,0.0,0.0,0.0,0.0,0.0,0.0,0.0,3.0861,3.5422,3.8231,3.8439,3.6217,3.5825,3.323,0.0,0.0,0.0,0.0,0.0,0.0,0.0,0.0,0.0,0.0,0.0,0.0,0.0,0.0,0.0,0.0,0.0,0.0,0.0,0.0,0.0,0.0,0.0,0.0,0.0,0.0,0.0,0.0,0.0,0.0,0.0,0.0,0.0,0.0,0.0,0.0,0.0,0.0,0.0,0.0,0.0,0.0,0.0,0.0,0.0,0.0,0.0,0.0,0.0,0.0,0.0,0.0,0.0,0.0,0.0,0.0,0.0,0.0,0.0,0.0,0.0,0.0,0.0,0.0,0.0,0.0,0.0,0.0,0.0,0.0,0.0,0.0,0.0,0.0,0.0,0.0,0.0,0.0,0.0,0.0,0.0,0.0,0.0,0.0,0.0,0.0,0.0,0.0,0.0,0.0,0.0,0.0,0.0,0.0,0.0,0.0,0.0,0.0,0.0,0.0,0.0,0.0,0.0,0.0,0.0,0.0,0.0,0.0,0.0,3.4235,3.6779,3.882,4.012,3.6058,3.4078,0.0,0.0,0.0,0.0,0.0,0.0,0.0,0.0,0.0,0.0,0.0,0.0,0.0,0.0,0.0,0.0,0.0,0.0,0.0,0.0,0.0,0.0,0.0,0.0,0.0,0.0,0.0,0.0,0.0,0.0,0.0,0.0,0.0,0.0,0.0,0.0,0.0,0.0,0.0,0.0,0.0,0.0,0.0,0.0,0.0,0.0,0.0,0.0,0.0,0.0,0.0,0.0,0.0,0.0,0.0,0.0,0.0,0.0,0.0,0.0,0.0,0.0,0.0,0.0,0.0,0.0,0.0,0.0,0.0,0.0,0.0,0.0,0.0,0.0,0.0,0.0,0.0,0.0,0.0,0.0,0.0,0.0,0.0,0.0,0.0,0.0,0.0,0.0,0.0,0.0,0.0,0.0,0.0,0.0,0.0,0.0,0.0,0.0,0.0,0.0,0.0,0.0,0.0,0.0,0.0,0.0,0.0,0.0,0.0,3.8923,4.0744,4.2202,4.3143,3.8612,3.614,3.6006,0.0,0.0,0.0,0.0,0.0,0.0,0.0,0.0,0.0,0.0,0.0,0.0,0.0,0.0,0.0,0.0,0.0,0.0,0.0,0.0,0.0,0.0,0.0,0.0,0.0,0.0,0.0,0.0,0.0,0.0,0.0,0.0,0.0,0.0,0.0,0.0,0.0,0.0,0.0,0.0,0.0,0.0,0.0,0.0,0.0,0.0,0.0,0.0,0.0,0.0,0.0,0.0,0.0,0.0,0.0,0.0,0.0,0.0,0.0,0.0,0.0,0.0,0.0,0.0,0.0,0.0,0.0,0.0,0.0,0.0,0.0,0.0,0.0,0.0,0.0,0.0,0.0,0.0,0.0,0.0,0.0,0.0,0.0,0.0,0.0,0.0,0.0,0.0,0.0,0.0,0.0,0.0,0.0,0.0,0.0,0.0,0.0,0.0,0.0,0.0,0.0,0.0,0.0,0.0,0.0,0.0,0.0,0.0,4.7862,4.9277,4.8505,4.5411,4.326,3.951,0.0,0.0,0.0,0.0,0.0,0.0,0.0,0.0,0.0,0.0,0.0,0.0,0.0,0.0,0.0,0.0,0.0,0.0,0.0,0.0,0.0,0.0,0.0,0.0,0.0,0.0,0.0,0.0,0.0,0.0,0.0,0.0,0.0,0.0,0.0,0.0,0.0,0.0,0.0,0.0,0.0,0.0,0.0,0.0,0.0,0.0,0.0,0.0,0.0,0.0,0.0,0.0,0.0,0.0,0.0,0.0,0.0,0.0,0.0,0.0,0.0,0.0,0.0,0.0,0.0,0.0,0.0,0.0,0.0,0.0,0.0,0.0,0.0,0.0,0.0,0.0,0.0,0.0,0.0,0.0,0.0,0.0,0.0,0.0,0.0,0.0,0.0,0.0,0.0,0.0,0.0,0.0,0.0,0.0,0.0,0.0,0.0,0.0,0.0,0.0,0.0,0.0,0.0,0.0,0.0,0.0,0.0,0.0,0.0,5.0692,5.5837,5.6804,5.3218,4.8047,4.3965,0.0,0.0,0.0,0.0,0.0,0.0,0.0,0.0,0.0,0.0,0.0,0.0,0.0,0.0,0.0,0.0,0.0,0.0,0.0,0.0,0.0,0.0,0.0,0.0,0.0,0.0,0.0,0.0,0.0,0.0,0.0,0.0,0.0,0.0,0.0,0.0,0.0,0.0,0.0,0.0,0.0,0.0,0.0,0.0,0.0,0.0,0.0,0.0,0.0,0.0,0.0,0.0,0.0,0.0,0.0,0.0,0.0,0.0,0.0,0.0,0.0,0.0,0.0,0.0,0.0,0.0,0.0,0.0,0.0,0.0,0.0,0.0,0.0,0.0,0.0,0.0,0.0,0.0,0.0,0.0,0.0,0.0,0.0,0.0,0.0,0.0,0.0,0.0,0.0,0.0,0.0,0.0,0.0,0.0,0.0,0.0,0.0,0.0,0.0,0.0,0.0,0.0,0.0,0.0,0.0,0.0,0.0,0.0,5.0138,5.4615,6.1197,6.3306,6.0455,5.3608,4.7992,0.0,0.0,0.0,0.0,0.0,0.0,0.0,0.0,0.0,0.0,0.0,0.0,0.0,0.0,0.0,0.0,0.0,0.0,0.0,0.0,0.0,0.0,0.0,0.0,0.0,0.0,0.0,0.0,0.0,0.0,0.0,0.0,0.0,0.0,0.0,0.0,0.0,0.0,0.0,0.0,0.0,0.0,0.0,0.0,0.0,0.0,0.0,0.0,0.0,0.0,0.0,0.0,0.0,0.0,0.0,0.0,0.0,0.0,0.0,0.0,0.0,0.0,0.0,0.0,0.0,0.0,0.0,0.0,0.0,0.0,0.0,0.0,0.0,0.0,0.0,0.0,0.0,0.0,0.0,0.0,0.0,0.0,0.0,0.0,0.0,0.0,0.0,0.0,0.0,0.0,0.0,0.0,0.0,0.0,0.0,0.0,0.0,0.0,0.0,0.0,0.0,0.0,0.0,0.0,0.0,0.0,0.0,0.0,5.4096,5.8887,6.5393,6.8012,6.619,5.8934,5.1545,0.0,0.0,0.0,0.0,0.0,0.0,0.0,0.0,0.0,0.0,0.0,0.0,0.0,0.0,0.0,0.0,0.0,0.0,0.0,0.0,0.0,0.0,0.0,0.0,0.0,0.0,0.0,0.0,0.0,0.0,0.0,0.0,0.0,0.0,0.0,0.0,0.0,0.0,0.0,0.0,0.0,0.0,0.0,0.0,0.0,0.0,0.0,0.0,0.0,0.0,0.0,0.0,0.0,0.0,0.0,0.0,0.0,0.0,0.0,0.0,0.0,0.0,0.0,0.0,0.0,0.0,0.0,0.0,0.0,0.0,0.0,0.0,0.0,0.0,0.0,0.0,0.0,0.0,0.0,0.0,0.0,0.0,0.0,0.0,0.0,0.0,0.0,0.0,0.0,0.0,0.0,0.0,0.0,0.0,0.0,0.0,0.0,0.0,0.0,0.0,0.0,0.0,0.0,0.0,0.0,0.0,0.0,0.0,5.644,6.1005,6.708,6.9444,6.776,6.0454,5.3644,0.0,0.0,0.0,0.0,0.0,0.0,0.0,0.0,0.0,0.0,0.0,0.0,0.0,0.0,0.0,0.0,0.0,0.0,0.0,0.0,0.0,0.0,0.0,0.0,0.0,0.0,0.0,0.0,0.0,0.0,0.0,0.0,0.0,0.0,0.0,0.0,0.0,0.0,0.0,0.0,0.0,0.0,0.0,0.0,0.0,0.0,0.0,0.0,3.0335,0.0,0.0,0.0,0.0,0.0,0.0,0.0,0.0,0.0,0.0,0.0,0.0,0.0,0.0,0.0,0.0,0.0,0.0,0.0,0.0,0.0,0.0,0.0,0.0,0.0,0.0,0.0,0.0,0.0,0.0,0.0,0.0,0.0,0.0,0.0,0.0,0.0,0.0,0.0,0.0,0.0,0.0,0.0,0.0,0.0,0.0,0.0,0.0,0.0,0.0,0.0,0.0,0.0,0.0,0.0,0.0,0.0,0.0,0.0,5.8642,6.3152,6.8265,7.0129,6.8343,6.3002,5.6665,0.0,0.0,0.0,0.0,0.0,0.0,0.0,0.0,0.0,0.0,0.0,0.0,0.0,0.0,0.0,0.0,0.0,0.0,0.0,0.0,0.0,0.0,0.0,0.0,0.0,0.0,0.0,0.0,0.0,0.0,0.0,0.0,0.0,0.0,0.0,0.0,0.0,0.0,0.0,0.0,0.0,0.0,0.0,0.0,0.0,0.0,0.0,0.0,0.0,0.0,0.0,0.0,0.0,0.0,0.0,0.0,0.0,0.0,0.0,0.0,0.0,0.0,0.0,0.0,0.0,0.0,0.0,0.0,0.0,0.0,0.0,0.0,0.0,0.0,0.0,0.0,0.0,0.0,0.0,0.0,0.0,0.0,0.0,0.0,0.0,0.0,0.0,0.0,0.0,0.0,0.0,0.0,0.0,0.0,0.0,0.0,0.0,0.0,0.0,0.0,0.0,0.0,0.0,0.0,0.0,0.0,0.0,5.4339,6.0291,6.5381,6.9127,7.032,6.873,6.5286,5.9282,5.0597,0.0,0.0,0.0,0.0,0.0,0.0,0.0,0.0,0.0,0.0,0.0,0.0,0.0,0.0,0.0,0.0,0.0,0.0,0.0,0.0,0.0,0.0,0.0,0.0,0.0,0.0,0.0,0.0,0.0,0.0,0.0,0.0,0.0,0.0,0.0,0.0,0.0,0.0,2.9388,3.1084,0.0,0.0,0.0,0.0,0.0,0.0,0.0,0.0,2.9929,0.0,0.0,0.0,0.0,0.0,0.0,0.0,0.0,0.0,0.0,0.0,0.0,0.0,0.0,0.0,0.0,0.0,0.0,0.0,0.0,0.0,0.0,0.0,0.0,0.0,0.0,0.0,0.0,0.0,0.0,0.0,0.0,0.0,0.0,0.0,0.0,0.0,0.0,0.0,0.0,0.0,0.0,0.0,0.0,0.0,0.0,0.0,0.0,0.0,0.0,0.0,0.0,0.0,0.0,0.0,0.0,5.3099,5.523,6.014,6.8008,6.9631,6.9903,6.8785,6.4846,5.8901,5.112,0.0,0.0,0.0,0.0,0.0,0.0,0.0,0.0,0.0,0.0,0.0,0.0,0.0,0.0,0.0,0.0,0.0,0.0,0.0,0.0,0.0,0.0,0.0,0.0,0.0,0.0,0.0,0.0,0.0,0.0,0.0,0.0,0.0,0.0,0.0,0.0,0.0,0.0,0.0,3.5224,3.5819,0.0,0.0,0.0,0.0,0.0,0.0,0.0,0.0,3.1836,0.0,0.0,0.0,0.0,0.0,0.0,0.0,0.0,0.0,0.0,0.0,0.0,0.0,0.0,0.0,0.0,0.0,0.0,0.0,0.0,0.0,0.0,0.0,0.0,0.0,0.0,0.0,0.0,0.0,0.0,0.0,0.0,0.0,0.0,0.0,0.0,0.0,0.0,0.0,0.0,0.0,0.0,0.0,0.0,0.0,0.0,0.0,0.0,0.0,0.0,0.0,0.0,0.0,0.0,0.0,5.2564,5.7712,6.3141,6.8943,6.9991,7.003,6.906,6.3705,5.7706,0.0,0.0,0.0,0.0,0.0,0.0,0.0,0.0,0.0,0.0,0.0,0.0,0.0,0.0,0.0,0.0,0.0,0.0,0.0,0.0,0.0,0.0,0.0,0.0,0.0,0.0,0.0,0.0,0.0,0.0,0.0,0.0,0.0,0.0,0.0,0.0,0.0,0.0,0.0,0.0,3.6858,3.7573,3.9151,0.0,0.0,0.0,0.0,0.0,0.0,3.3429,3.2329,0.0,0.0,0.0,0.0,0.0,0.0,0.0,0.0,0.0,0.0,0.0,0.0,0.0,0.0,0.0,0.0,0.0,0.0,0.0,0.0,0.0,0.0,0.0,0.0,0.0,0.0,0.0,0.0,0.0,0.0,0.0,0.0,0.0,0.0,0.0,0.0,0.0,0.0,0.0,0.0,0.0,0.0,0.0,0.0,0.0,0.0,0.0,0.0,0.0,0.0,0.0,0.0,0.0,0.0,0.0,5.1204,5.9249,6.535,6.914,6.9999,7.0038,6.9257,6.2655,5.6595,0.0,0.0,0.0,0.0,0.0,0.0,0.0,0.0,0.0,0.0,0.0,0.0,0.0,0.0,0.0,0.0,0.0,0.0,0.0,0.0,0.0,0.0,0.0,0.0,0.0,0.0,0.0,0.0,0.0,0.0,0.0,0.0,0.0,0.0,0.0,0.0,0.0,0.0,0.0,0.0,0.0,3.9009,4.094,3.8159,0.0,0.0,0.0,0.0,3.5341,3.4885,0.0,0.0,0.0,0.0,0.0,0.0,0.0,0.0,0.0,0.0,0.0,0.0,0.0,0.0,0.0,0.0,0.0,0.0,0.0,0.0,0.0,0.0,0.0,0.0,0.0,0.0,0.0,0.0,0.0,0.0,0.0,0.0,0.0,0.0,0.0,0.0,0.0,0.0,0.0,0.0,0.0,0.0,0.0,0.0,0.0,0.0,0.0,0.0,0.0,0.0,0.0,0.0,0.0,0.0,0.0,0.0,5.1014,5.7291,6.3313,6.8762,6.9231,6.9231,6.9036,6.2476,5.6456,0.0,0.0,0.0,0.0,0.0,0.0,0.0,0.0,0.0,0.0,0.0,0.0,0.0,0.0,0.0,0.0,0.0,0.0,0.0,0.0,0.0,0.0,0.0,0.0,0.0,0.0,0.0,0.0,0.0,0.0,0.0,0.0,0.0,0.0,0.0,0.0,0.0,0.0,0.0,0.0,0.0,4.0401,4.0809,3.9218,3.7797,0.0,0.0,3.7923,3.881,4.0058,0.0,0.0,0.0,0.0,0.0,0.0,0.0,0.0,0.0,0.0,0.0,0.0,0.0,0.0,0.0,0.0,0.0,0.0,0.0,0.0,0.0,0.0,0.0,0.0,0.0,0.0,0.0,0.0,0.0,0.0,0.0,0.0,0.0,0.0,0.0,0.0,0.0,0.0,0.0,0.0,0.0,0.0,0.0,0.0,0.0,0.0,0.0,0.0,0.0,0.0,0.0,0.0,0.0,0.0,0.0,4.5856,5.128,5.9466,6.5234,6.8232,6.8851,6.8661,6.769,6.0543,5.4716,0.0,0.0,0.0,0.0,0.0,0.0,0.0,0.0,0.0,0.0,0.0,0.0,0.0,0.0,0.0,0.0,0.0,0.0,0.0,0.0,0.0,0.0,0.0,0.0,0.0,0.0,0.0,0.0,0.0,0.0,0.0,0.0,0.0,0.0,0.0,0.0,0.0,0.0,0.0,0.0,0.0,0.0,4.2358,4.1359,0.0,0.0,0.0,3.9265,3.9605,0.0,0.0,0.0,0.0,0.0,0.0,0.0,0.0,0.0,0.0,0.0,0.0,0.0,0.0,0.0,0.0,0.0,0.0,0.0,0.0,0.0,0.0,0.0,0.0,0.0,0.0,0.0,0.0,0.0,0.0,0.0,0.0,0.0,0.0,0.0,0.0,0.0,0.0,0.0,0.0,0.0,0.0,0.0,0.0,0.0,0.0,0.0,0.0,0.0,0.0,0.0,0.0,0.0,0.0,0.0,0.0,0.0,5.1355,6.1115,6.6698,6.7671,6.8378,6.7989,6.6432,5.9838,0.0,0.0,0.0,0.0,0.0,0.0,0.0,0.0,0.0,0.0,0.0,0.0,0.0,0.0,0.0,0.0,0.0,0.0,0.0,0.0,0.0,0.0,0.0,0.0,0.0,0.0,0.0,2.4586,0.0,0.0,0.0,0.0,0.0,0.0,0.0,0.0,0.0,0.0,0.0,0.0,0.0,0.0,4.139,4.2709,4.254,4.2479,0.0,0.0,4.0419,4.0299,4.1483,4.0495,0.0,0.0,0.0,0.0,0.0,0.0,0.0,0.0,0.0,0.0,0.0,0.0,0.0,0.0,0.0,0.0,0.0,0.0,0.0,0.0,0.0,0.0,0.0,0.0,0.0,0.0,0.0,0.0,0.0,0.0,0.0,0.0,0.0,0.0,0.0,0.0,0.0,0.0,0.0,0.0,0.0,0.0,0.0,0.0,0.0,0.0,0.0,0.0,0.0,0.0,0.0,0.0,0.0,0.0,0.0,5.1291,6.036,6.5887,6.7464,6.758,6.7154,6.6187,6.189,5.6482,0.0,0.0,0.0,0.0,0.0,0.0,0.0,0.0,0.0,0.0,0.0,0.0,0.0,0.0,0.0,0.0,0.0,0.0,0.0,0.0,0.0,0.0,0.0,0.0,0.0,0.0,0.0,0.0,0.0,0.0,0.0,0.0,0.0,0.0,0.0,0.0,0.0,0.0,0.0,0.0,0.0,4.0053,4.0476,4.1576,4.2781,0.0,0.0,4.2108,4.1708,4.4606,4.4119,3.5813,0.0,0.0,0.0,0.0,0.0,0.0,0.0,0.0,0.0,0.0,0.0,0.0,0.0,0.0,0.0,0.0,0.0,0.0,0.0,0.0,0.0,0.0,0.0,0.0,0.0,0.0,0.0,0.0,0.0,0.0,0.0,0.0,0.0,0.0,0.0,0.0,0.0,0.0,0.0,0.0,0.0,0.0,0.0,0.0,0.0,0.0,0.0,0.0,0.0,0.0,0.0,0.0,0.0,4.769,5.1157,6.0265,6.5528,6.665,6.723,6.6572,6.4715,6.1456,5.63,0.0,0.0,0.0,0.0,0.0,0.0,0.0,0.0,0.0,0.0,0.0,0.0,0.0,0.0,0.0,0.0,0.0,0.0,0.0,0.0,0.0,0.0,0.0,0.0,0.0,0.0,0.0,0.0,2.8073,2.8072,2.6823,0.0,0.0,0.0,0.0,0.0,0.0,0.0,0.0,0.0,0.0,4.0017,4.2448,4.3044,0.0,0.0,4.2992,4.1997,4.2199,4.2299,4.0815,3.6195,3.393,0.0,0.0,0.0,0.0,0.0,0.0,0.0,0.0,0.0,0.0,0.0,0.0,0.0,0.0,0.0,0.0,0.0,0.0,0.0,0.0,0.0,0.0,0.0,0.0,0.0,0.0,0.0,0.0,0.0,0.0,0.0,0.0,0.0,0.0,0.0,0.0,0.0,0.0,0.0,0.0,0.0,0.0,0.0,0.0,0.0,0.0,0.0,0.0,0.0,0.0,0.0,0.0,4.7556,5.0984,5.9823,6.4955,6.5997,6.6614,6.5843,6.3566,6.1362,5.6753,0.0,0.0,0.0,0.0,0.0,0.0,0.0,0.0,0.0,0.0,0.0,0.0,0.0,0.0,0.0,0.0,0.0,0.0,0.0,0.0,0.0,0.0,0.0,0.0,0.0,0.0,0.0,0.0,2.9016,2.8808,2.6826,0.0,0.0,0.0,0.0,0.0,0.0,0.0,0.0,0.0,0.0,3.9778,4.2674,4.3169,4.33,4.3594,4.2216,4.1166,4.121,4.0123,3.8335,3.5465,0.0,0.0,0.0,0.0,0.0,0.0,0.0,0.0,0.0,0.0,0.0,0.0,0.0,0.0,0.0,0.0,0.0,0.0,0.0,0.0,0.0,0.0,0.0,0.0,0.0,0.0,0.0,0.0,0.0,0.0,3.5914,0.0,0.0,0.0,0.0,0.0,0.0,0.0,0.0,0.0,0.0,0.0,0.0,0.0,0.0,0.0,0.0,0.0,0.0,0.0,0.0,0.0,0.0,4.7323,5.0767,5.8896,6.3896,6.5559,6.5635,6.483,6.309,6.2195,5.8464,5.1526,0.0,0.0,0.0,0.0,0.0,0.0,0.0,0.0,0.0,0.0,0.0,0.0,0.0,0.0,0.0,0.0,0.0,0.0,0.0,0.0,0.0,0.0,0.0,0.0,0.0,0.0,2.647,2.6165,2.5718,0.0,0.0,0.0,0.0,0.0,0.0,0.0,0.0,0.0,0.0,3.6249,3.9112,4.0051,4.1276,4.1972,4.1588,4.071,3.9729,3.8577,3.8826,3.7735,0.0,0.0,0.0,0.0,0.0,0.0,0.0,0.0,0.0,0.0,0.0,0.0,0.0,0.0,0.0,0.0,0.0,0.0,0.0,0.0,0.0,0.0,0.0,0.0,0.0,0.0,0.0,4.518,4.3244,0.0,0.0,0.0,0.0,0.0,0.0,0.0,0.0,0.0,0.0,0.0,5.0669,5.1403,0.0,0.0,0.0,0.0,0.0,0.0,0.0,0.0,0.0,0.0,0.0,0.0,4.751,5.1583,5.901,6.3747,6.535,6.5388,6.457,6.2849,6.1864,5.7558,4.9494,0.0,0.0,0.0,0.0,0.0,0.0,0.0,0.0,0.0,0.0,0.0,0.0,0.0,0.0,0.0,0.0,0.0,0.0,0.0,0.0,0.0,0.0,0.0,0.0,0.0,2.6796,0.0,0.0,0.0,0.0,0.0,0.0,0.0,0.0,0.0,0.0,0.0,3.2127,3.5105,3.7063,3.8763,4.0322,4.0925,4.1182,0.0,0.0,0.0,0.0,0.0,0.0,0.0,0.0,0.0,0.0,0.0,0.0,0.0,0.0,2.8912,2.5285,2.4116,2.3726,2.3923,0.0,0.0,0.0,0.0,0.0,0.0,0.0,0.0,0.0,0.0,0.0,0.0,0.0,0.0,4.9918,0.0,4.7255,0.0,0.0,0.0,0.0,0.0,0.0,0.0,0.0,5.2859,5.5243,5.6123,5.6809,5.6314,0.0,5.241,4.7701,0.0,0.0,0.0,0.0,0.0,0.0,0.0,0.0,4.7934,5.2132,5.9033,6.3451,6.4954,6.4643,6.3622,6.195,5.9715,5.5747,4.9765,4.4361,4.042,0.0,0.0,0.0,0.0,0.0,0.0,0.0,0.0,0.0,0.0,0.0,0.0,0.0,0.0,0.0,0.0,0.0,0.0,0.0,0.0,0.0,0.0,0.0,2.7143,0.0,0.0,0.0,0.0,0.0,0.0,0.0,0.0,0.0,3.0411,3.2034,3.4206,3.7006,3.8096,3.895,3.988,0.0,0.0,0.0,0.0,0.0,0.0,0.0,3.4334,3.403,3.3578,3.3125,3.2735,3.2822,3.2513,3.1309,0.0,0.0,2.8138,2.6902,2.6469,2.6604,2.6526,2.6535,2.678,2.7223,2.7399,0.0,0.0,0.0,0.0,0.0,0.0,0.0,0.0,5.4779,5.372,0.0,5.2237,0.0,0.0,0.0,0.0,0.0,5.0557,0.0,0.0,6.0473,6.315,6.1646,6.1629,6.0843,5.9327,5.9523,5.65,5.0472,4.4145,0.0,0.0,0.0,0.0,0.0,0.0,4.845,5.262,5.8857,6.2878,6.4407,6.3308,6.1931,6.0339,5.6047,5.3325,5.2344,4.8364,4.4341,4.0443,3.7054,0.0,0.0,0.0,0.0,0.0,0.0,0.0,0.0,0.0,0.0,0.0,0.0,0.0,0.0,0.0,0.0,0.0,0.0,0.0,0.0,2.7856,0.0,0.0,0.0,0.0,0.0,0.0,0.0,0.0,0.0,0.0,3.2293,3.4356,3.6492,3.8047,0.0,0.0,0.0,0.0,3.9086,3.7218,3.6404,3.5632,3.4454,3.5222,3.554,3.4322,0.0,0.0,3.4604,3.4343,3.3802,3.1721,3.262,3.3467,3.3091,3.1515,3.0563,3.0898,2.9763,2.8928,2.8896,2.8979,2.9049,6.7191,0.0,0.0,0.0,0.0,5.9402,6.1389,6.4237,6.3972,6.2607,6.0416,5.8648,0.0,0.0,0.0,0.0,0.0,0.0,5.5581,5.8706,6.1416,6.3525,6.5078,6.5376,6.5194,6.4568,6.2711,6.045,5.7821,5.313,4.6736,3.8985,0.0,0.0,0.0,0.0,4.9587,5.4135,5.8331,6.1193,6.2702,6.1298,5.9993,5.8916,5.576,5.3928,5.3671,5.0634,4.7252,4.3609,3.977,0.0,0.0,0.0,0.0,0.0,0.0,0.0,0.0,0.0,0.0,0.0,0.0,0.0,0.0,0.0,0.0,0.0,0.0,0.0,2.6637,2.7751,2.7744,0.0,0.0,0.0,0.0,0.0,0.0,0.0,0.0,0.0,3.5572,3.6157,3.6851,0.0,0.0,3.7313,3.7492,3.8122,3.8196,3.7168,0.0,0.0,0.0,3.6178,3.6084,3.6295,3.7405,3.792,3.7128,3.6707,3.6119,3.4971,3.4685,3.4565,3.4272,3.3049,3.1857,3.1312,3.0718,3.0438,3.066,3.0739,3.0747,7.5585,6.9734,6.6282,6.5,6.5293,6.5574,6.7351,6.9985,6.9648,6.8339,6.6323,6.4836,6.0905,5.5195,5.3304,0.0,0.0,0.0,5.8817,6.2303,6.3116,6.443,6.6082,6.6299,6.6162,6.5734,6.4107,6.2519,6.097,5.8054,5.2846,4.5544,0.0,0.0,4.2962,4.7009,5.1154,5.5225,5.8185,6.0152,6.1024,5.93,5.7949,5.6946,5.4815,5.3673,5.3614,5.1203,4.8602,4.5837,4.22,3.8212,0.0,0.0,0.0,0.0,0.0,0.0,0.0,0.0,0.0,0.0,0.0,2.334,2.0142,0.0,0.0,0.0,2.4141,2.6329,2.8125,2.8964,0.0,0.0,0.0,0.0,0.0,0.0,0.0,3.2285,3.4007,3.5582,3.7093,3.7216,3.7494,3.8462,3.787,3.7362,3.7373,0.0,3.7846,3.7189,3.7345,3.7369,3.6968,3.6879,3.7301,3.8588,3.9334,3.9208,3.8246,3.7768,3.6996,3.5645,3.4896,3.4377,3.3926,3.3016,3.24,3.2236,3.1785,3.1451,3.1424,3.137,3.1299,8.1705,7.9617,7.2771,7.0588,7.1611,7.112,7.1831,7.3262,7.2558,7.1525,7.0299,7.0079,6.6765,6.1111,5.7855,0.0,5.9506,6.0963,6.2719,6.4706,6.5383,6.57,6.5697,6.5397,6.4909,6.4163,6.4274,6.3241,6.1205,5.9961,5.7574,5.4164,5.011,4.7922,4.788,5.0101,5.2823,5.586,5.82,5.9324,5.9139,5.7437,5.5908,5.4676,5.334,5.2656,5.2559,5.0576,4.8714,4.7156,4.4235,4.053,3.6068,0.0,0.0,0.0,0.0,0.0,0.0,0.0,0.0,0.0,0.0,0.0,0.0,0.0,0.0,0.0,2.6734,0.0,3.0799,3.0997,0.0,0.0,0.0,2.9477,3.0918,3.2298,3.3658,3.4971,0.0,0.0,3.7456,0.0,3.8345,3.9557,3.9225,3.8618,3.7876,3.7943,3.786,3.7227,3.681,3.6548,3.6722,3.7461,3.8688,4.0278,4.1435,4.0719,3.8448,3.7826,3.6742,3.4535,3.3819,3.3488,3.2555,3.2216,3.2254,3.3201,3.2618,3.1836,3.123,3.1119,3.0944,8.2607,8.0907,7.875,7.6941,7.5546,7.542,7.5051,7.4582,7.4368,7.3442,7.1886,7.009,6.7478,6.4378,6.353,6.376,6.484,6.5229,6.6018,6.7023,6.6699,6.6485,6.6449,6.5682,6.5128,6.4817,6.4131,6.3183,6.1979,6.0494,5.8165,5.5056,5.3398,5.167,4.9901,5.138,5.3453,5.5957,5.6587,5.6358,5.5371,5.541,5.4561,5.267,5.1697,5.122,5.1247,4.967,4.8085,4.669,4.4341,4.155,3.8321,3.3191,0.0,0.0,0.0,0.0,0.0,0.0,0.0,0.0,0.0,2.5841,2.183,0.0,2.7425,0.0,2.8329,3.084,3.2329,3.1986,0.0,0.0,3.2377,3.2516,3.4213,3.4973,3.5615,3.6059,3.6998,3.7752,3.8095,3.8406,3.8845,3.9622,3.8144,3.7103,3.7477,3.7931,3.7923,3.7456,3.7899,3.8318,3.7808,3.8206,3.8722,3.9341,3.969,3.9357,3.7909,3.7606,3.6975,3.5425,3.4498,3.3806,3.3012,3.2188,3.1668,3.1847,3.1275,3.0696,3.0545,3.0507,3.0469,8.1489,8.0585,7.9921,7.868,7.7112,7.671,7.5963,7.504,7.504,7.433,7.3012,7.0665,6.8539,6.67,6.632,6.6427,6.6813,6.6813,6.7094,6.7446,6.6637,6.6075,6.5689,6.4638,6.4077,6.4006,6.3346,6.2613,6.1812,6.0858,5.9408,5.7403,5.6601,5.5384,5.3667,5.2706,5.3186,5.5055,5.4799,5.4296,5.361,5.3973,5.296,5.0505,5.0052,4.9218,4.798,4.6847,4.5561,4.4205,4.2672,4.0567,3.7758,3.3669,3.0543,0.0,0.0,0.0,0.0,0.0,0.0,0.0,0.0,0.0,0.0,0.0,2.8842,2.8566,3.0381,3.2256,3.3839,3.395,3.43,3.5123,3.5034,3.5399,3.6663,3.7014,3.7322,3.7738,3.8093,3.8542,3.92,3.9224,3.9504,4.0123,3.8698,3.774,3.8148,3.8267,3.8086,3.7796,3.8289,3.8485,3.7739,3.7697,3.7785,3.7896,3.8401,3.8434,3.7182,3.7107,3.6678,3.5057,3.4199,3.3482,3.248,3.1813,3.1175,3.0528,3.0148,2.9913,2.9895,2.9896,2.9819,7.9715,7.9494,7.8817,7.7993,7.7169,7.6313,7.5536,7.4864,7.4864,7.4328,7.3362,7.1279,6.9613,6.8245,6.7499,6.7118,6.7152,6.7118,6.704,6.6853,6.5906,6.4996,6.4084,6.3106,6.2508,6.2368,6.2327,6.1832,6.094,6.0945,6.0445,5.9429,5.8733,5.7929,5.6908,5.3655,5.2592,5.3842,5.3399,5.3063,5.2901,5.2803,5.1332,4.8444,4.8293,4.6948,4.4191,4.3462,4.2557,4.1271,4.0518,3.9042,3.6647,3.4225,3.2083,0.0,2.8661,0.0,0.0,0.0,0.0,0.0,0.0,0.0,0.0,2.9689,3.0602,3.2315,3.2812,3.3698,3.5339,3.6172,3.6626,3.678,3.7225,3.7793,3.8422,3.8571,3.8871,3.9469,3.9619,3.9918,4.0427,4.024,4.0309,4.0713,3.9809,3.9035,3.9035,3.8447,3.791,3.791,3.7872,3.7481,3.6889,3.655,3.6427,3.6454,3.708,3.7374,3.5887,3.6225,3.5948,3.3978,3.3507,3.3014,3.1552,3.1266,3.0792,2.977,2.9463,2.9318,2.9293,2.9263,2.9106,7.9857,7.8718,7.8577,7.767,7.6296,7.5454,7.4723,7.4033,7.4033,7.3221,7.1885,7.0857,6.9911,6.9046,6.8231,6.7876,6.7876,6.7753,6.7202,6.6373,6.5318,6.4042,6.2699,6.2286,6.1654,6.0765,6.1829,6.1359,5.9457,6.0013,5.903,5.6542,5.6371,5.5549,5.4071,0.0,0.0,0.0,5.3704,5.3416,5.2389,5.1765,5.008,4.7227,4.6022,0.0,4.2777,4.2001,4.1508,4.1212,4.0581,0.0,0.0,0.0,0.0,0.0,0.0,0.0,0.0,0.0,0.0,0.0,3.2683,3.1743,3.0956,3.2428,3.4091,3.5399,3.5666,3.6094,3.691,3.7143,3.7434,3.7973,3.8153,3.8482,3.914,3.9679,4.0098,4.0187,4.0666,4.1025,4.1175,4.1394,4.1518,4.1371,4.0202,3.923,3.892,3.7918,3.6911,3.6267,3.616,3.6041,3.5869,3.5624,3.5252,3.5026,3.5063,3.4977,3.4139,3.4584,3.4723,3.3189,3.3069,3.3015,3.2021,3.1385,3.0772,3.0079,2.9605,2.9188,2.8778,2.8657,2.8618,7.8328,0.0,7.6871,7.5868,0.0,7.4052,7.3061,7.1882,7.2467,7.1866,7.0342,6.9671,6.8914,6.8166,6.7418,6.6954,6.6719,6.6221,6.5639,6.486,6.3463,6.2415,6.1622,6.107,6.034,5.9473,6.0498,5.9868,5.7846,5.8442,5.7641,5.5483,5.5156,5.4579,5.377,5.3116,5.2706,5.267,5.3046,5.2925,5.2267,5.1552,4.993,4.7428,0.0,0.0,0.0,0.0,0.0,0.0,0.0,0.0,0.0,0.0,0.0,3.5128,3.4101,3.3607,3.3952,3.4182,3.4765,3.5799,3.635,3.5674,3.3516,3.4928,3.634,3.7304,3.7729,3.8182,3.8811,3.917,3.9499,3.9865,3.9858,4.0008,4.0337,4.0666,4.0876,4.0905,4.1175,4.1474,4.1871,4.1489,4.1405,4.1384,3.9994,3.8658,3.8,3.7016,3.6068,3.5669,3.5224,3.5006,3.495,3.4497,3.4127,3.3862,3.4052,3.4067,3.3571,3.4374,3.4685,3.3419,3.339,3.3244,3.224,3.1608,3.1023,3.0278,2.9869,2.9412,2.8715,2.8522,2.8522,7.6338,7.5465,7.4835,7.3924,7.2812,7.258,7.1325,6.95,0.0,0.0,0.0,6.8469,6.7735,6.6957,6.6301,6.5725,6.5126,6.4366,6.3693,6.3088,6.1552,6.068,6.0392,5.9778,5.9056,5.8367,5.9058,5.8356,5.6455,5.6973,5.6575,5.5345,5.4737,5.4348,5.4089,5.324,5.2585,5.2135,5.2068,5.2001,5.1866,5.0893,4.9483,4.7505,4.541,4.3353,4.135,4.0144,3.9207,3.8499,3.7991,3.7668,3.7642,3.705,3.6717,3.6847,3.6846,3.6907,3.703,3.7485,3.7813,3.7992,3.9234,3.8928,3.6387,3.7375,3.8332,3.8871,3.9439,3.9978,4.0516,4.1055,4.1422,4.1422,4.1422,4.1392,4.1422,4.1542,4.1526,4.1381,4.1454,4.1623,4.1922,4.1221,4.0681,4.0759,3.9461,3.7913,3.6796,3.5854,3.5221,3.4991,3.4496,3.4189,3.4063,3.3666,3.3111,3.3205,3.3514,3.3746,3.3897,3.4575,3.464,3.3469,3.3637,3.3289,3.2313,3.1825,3.1332,3.0302,3.0086,2.9773,2.8811,2.8522,2.8522,7.4686,7.3482,7.3379,7.3211,7.2962,7.1716,6.9921,6.8083,6.8863,6.9055,6.8794,6.8024,6.7301,6.6659,6.589,6.5233,6.4564,6.3661,6.2742,0.0,6.0711,5.9471,5.8318,5.8772,5.8358,5.7362,5.8192,5.7838,5.6469,5.6436,5.6122,5.5336,5.5183,5.4535,5.3369,5.2041,5.1382,5.1243,5.1206,5.0876,5.0261,4.8337,4.6871,4.5894,4.3816,4.2199,4.1265,4.1044,4.0627,3.9951,3.9941,3.9692,3.9125,3.8526,3.8205,3.8231,3.8231,3.8477,3.9029,3.9504,4.0147,4.0945,4.1152,4.0494,3.908,4.0068,4.0846,4.1003,4.0995,4.1145,4.1265,4.1384,4.1512,4.1482,4.1452,4.1422,4.1474,4.1893,4.1911,4.1171,4.1558,4.1563,4.1011,4.0534,4.0193,3.9861,3.8617,3.6954,3.5558,3.4534,3.3987,3.3555,3.3368,3.3283,3.3368,3.324,3.3136,3.3136,3.3144,3.3312,3.3269,3.3822,3.3909,3.3015,3.3168,3.295,3.2147,3.1849,3.1259,3.035,3.0086,2.9725,2.8739,2.8522,2.8522,7.3208,7.1869,7.1445,7.0845,7.0128,6.8764,6.7629,6.6677,6.6227,6.6428,6.6892,6.5863,6.5188,6.4883,6.4159,6.3501,6.2859,6.1711,6.0804,6.0031,5.8844,5.7884,5.7338,5.762,5.723,5.6388,5.6741,5.6244,5.497,5.492,5.4573,5.3911,5.3533,5.2692,5.1398,5.101,5.0506,4.9789,5.0615,5.087,5.0552,4.8799,4.7696,4.7405,4.5282,4.3829,4.3094,4.2724,4.2171,4.1512,4.1182,4.1078,4.1106,4.0523,4.0355,4.0693,4.0724,4.0878,4.1186,4.1286,4.1425,4.1693,4.1904,4.1768,4.1123,4.1235,4.1422,4.1452,4.1722,4.1961,4.1961,4.2222,4.2432,4.2432,4.2432,4.2237,4.1843,4.197,4.1784,4.0965,4.1026,4.1071,4.0646,4.0059,3.9536,3.9094,3.778,3.6376,3.5299,3.4655,3.4148,3.3621,3.3338,3.3136,3.3136,3.3136,3.3136,3.3136,3.3136,3.3136,3.3162,3.352,3.3552,3.3071,3.3083,3.2941,3.2323,3.1937,3.1279,3.0398,3.0086,2.9677,2.8835,2.8522,2.8522,7.1346,6.9854,6.9043,6.8077,6.6976,6.5975,6.553,6.5167,6.3806,6.3578,6.4128,6.3577,6.328,6.3091,6.2506,6.1941,6.1274,6.003,5.921,5.8689,5.7426,5.681,5.681,5.681,5.6532,5.593,5.5622,5.4945,5.4022,5.3652,5.3221,5.2698,5.2052,5.1097,4.9928,5.0266,4.9835,4.8779,4.9876,5.0538,5.0506,4.9251,4.8546,4.8253,4.6624,4.5348,4.4719,4.4105,4.3531,4.2848,4.2325,4.2232,4.2571,4.2109,4.2048,4.254,4.2602,4.2627,4.2671,4.2561,4.2362,4.21,4.2475,4.2737,4.256,4.2102,4.1833,4.1893,4.2312,4.262,4.2611,4.2733,4.2981,4.2981,4.278,4.2286,4.1782,4.1686,4.1323,4.049,4.0303,4.0216,3.9826,3.921,3.8541,3.7906,3.7036,3.6276,3.5755,3.5207,3.468,3.4148,3.352,3.3162,3.3136,3.3136,3.3136,3.3136,3.3136,3.3136,3.3144,3.3445,3.352,3.3151,3.3002,3.2838,3.2455,3.2025,3.1375,3.0518,3.023,2.9749,2.8763,2.8522,2.8522,6.8925,6.6936,6.6239,6.5458,6.4883,6.4646,6.4226,6.3478,6.1985,6.0988,6.0906,6.2195,6.2439,6.1998,6.1875,6.1421,6.0753,5.951,5.8893,5.8689,5.7426,5.681,5.681,5.681,5.6779,5.6484,5.5468,5.4806,5.4514,5.3361,5.279,5.2637,5.2052,5.1344,5.0636,5.0082,4.9435,4.8635,4.8769,4.8852,4.8821,4.8109,4.7459,4.6841,4.6059,4.5272,4.4668,4.4555,4.4209,4.3593,4.3439,4.3156,4.2694,4.2571,4.254,4.2633,4.2633,4.2702,4.2947,4.2933,4.2985,4.3129,4.315,4.321,4.317,4.314,4.311,4.3041,4.314,4.3101,4.316,4.2548,4.2099,4.2058,4.1449,4.0817,4.0774,4.0731,4.0389,3.9431,3.9343,3.8944,3.8187,3.7684,3.7222,3.6943,3.664,3.638,3.6182,3.5683,3.5182,3.4625,3.3796,3.3212,3.3136,3.3136,3.3136,3.3136,3.3136,3.3136,3.3119,3.3119,3.3119,3.3126,3.2773,3.2518,3.2362,3.2025,3.15,3.0874,3.0302,2.9749,2.8835,2.8443,2.8403,6.6251,6.4933,6.407,6.3565,6.3298,6.3119,6.2733,6.2144,6.1174,6.0238,5.9565,5.9865,5.9861,5.9705,6.0213,6.0274,6.0023,5.9574,5.9131,5.8781,5.7808,5.7179,5.684,5.681,5.681,5.6748,5.5745,5.5099,5.4498,5.3375,5.2729,5.2698,5.2421,5.1959,5.1282,5.0605,4.9928,4.9251,4.882,4.8604,4.8543,4.7958,4.7281,4.6634,4.6326,4.5649,4.4795,4.4941,4.4918,4.4271,4.4209,4.4086,4.3802,4.3771,4.3771,4.3771,4.3659,4.3556,4.3438,4.34,4.3374,4.3329,4.329,4.329,4.329,4.329,4.313,4.2618,4.2537,4.2537,4.2456,4.1728,4.1155,4.1113,4.0817,4.0361,3.9826,3.9782,3.9431,3.8594,3.844,3.8304,3.7808,3.7366,3.7062,3.6781,3.6593,3.6405,3.638,3.5881,3.5458,3.5082,3.4274,3.3495,3.3237,3.3136,3.3136,3.3136,3.3136,3.3136,3.3136,3.3136,3.3136,3.3068,3.2723,3.2463,3.24,3.2089,3.168,3.0951,3.0158,2.946,2.9027,2.8312,2.7841,6.425,6.3243,6.2328,6.1977,6.1948,6.1664,6.149,6.1073,6.0254,5.9295,5.8343,5.7826,5.7456,5.7418,5.844,5.9039,5.9003,5.907,5.8836,5.8288,5.7496,5.6827,5.637,5.6433,5.6439,5.6396,5.5927,5.5253,5.4375,5.3314,5.2729,5.2729,5.2729,5.239,5.1682,5.1036,5.0359,4.9682,4.8974,4.8604,4.8543,4.8142,4.7558,4.6942,4.6696,4.6049,4.4941,4.5157,4.5133,4.4641,4.461,4.461,4.461,4.461,4.4572,4.4496,4.4335,4.4065,4.3744,4.3705,4.3596,4.3329,4.313,4.2941,4.29,4.2699,4.2263,4.1728,4.1394,4.1239,4.1519,4.0774,4.0232,4.0216,4.0043,3.9546,3.897,3.8836,3.8594,3.8011,3.7992,3.7808,3.767,3.7227,3.6875,3.6828,3.6593,3.6405,3.638,3.6031,3.573,3.5508,3.4599,3.3811,3.3358,3.3187,3.3162,3.3136,3.3136,3.3136,3.3136,3.3136,3.281,3.2568,3.2481,3.1977,3.127,3.1113,3.0995,3.0208,2.9464,2.8831,2.8254,2.7557,2.708,6.3561,6.162,6.087,6.0643,6.0614,6.062,6.0558,6.0382,5.8969,5.7668,5.6704,5.6504,5.5866,5.5023,5.685,5.7719,5.7687,5.7488,5.7355,5.7119,5.6025,5.5352,5.5293,5.5469,5.5521,5.554,5.5554,5.4911,5.373,5.2977,5.2729,5.2653,5.2563,5.2301,5.1611,5.0905,5.0316,4.9616,4.8921,4.8563,4.8563,4.8532,4.8204,4.7588,4.6942,4.6234,4.5526,4.4979,4.4641,4.461,4.461,4.461,4.461,4.461,4.4496,4.4305,4.4143,4.391,4.3714,4.3596,4.3518,4.321,4.2496,4.2087,4.1976,4.1407,4.0901,4.0689,4.0,3.9869,4.0346,3.9782,3.9299,3.921,3.8549,3.8148,3.8011,3.8103,3.7992,3.79,3.7854,3.767,3.7227,3.6734,3.6499,3.6405,3.6358,3.6263,3.6048,3.6118,3.5821,3.5285,3.4544,3.3922,3.3806,3.3058,3.2891,3.2723,3.2481,3.2896,3.3025,3.3025,3.2438,3.1933,3.1557,3.0935,2.992,2.9351,2.9171,2.8722,2.8522,2.801,2.7779,2.6929,2.643,6.0886,5.9672,6.0032,6.0051,5.9829,5.9698,5.9504,5.9192,5.8319,5.7094,5.5921,5.5784,5.5128,5.4041,5.497,5.5818,5.6537,5.6984,5.6942,5.6475,5.5659,5.5046,5.4632,5.4488,5.4399,5.4471,5.4669,5.4121,5.2803,5.1755,5.1216,5.1216,5.1216,5.1096,5.0707,4.9824,4.9164,4.8909,4.8266,4.7946,4.8019,4.8355,4.844,4.8235,4.7157,4.6296,4.5588,4.4979,4.461,4.461,4.461,4.461,4.461,4.461,4.4458,4.4143,4.4026,4.3832,4.3478,4.293,4.2578,4.2415,4.1645,4.1141,4.1071,4.0774,4.0389,3.9826,3.9475,3.921,3.8819,3.8575,3.8395,3.8304,3.8103,3.79,3.79,3.79,3.79,3.79,3.7762,3.7505,3.7155,3.6828,3.6358,3.5763,3.5475,3.5138,3.4532,3.4385,3.4388,3.4027,3.3477,3.2887,3.2511,3.1965,3.1563,3.13,3.1181,3.1226,3.1359,3.1492,3.1024,3.0845,3.0531,3.0102,2.9189,2.8659,2.8275,2.8231,2.7945,2.746,2.7478,2.6491,2.5823,5.9506,5.8898,5.9616,5.9863,5.9609,5.9232,5.8958,5.8653,5.7915,5.6714,5.5573,5.541,5.4731,5.3788,5.3833,5.4346,5.5205,5.5992,5.6108,5.5651,5.5051,5.4394,5.3849,5.3621,5.3429,5.3332,5.3574,5.3085,5.2079,5.0916,5.0378,5.0143,5.0143,5.0143,4.9967,4.9057,4.8441,4.8198,4.7689,4.7328,4.7249,4.7861,4.8115,4.7836,4.7017,4.6527,4.6234,4.5372,4.491,4.4918,4.4733,4.461,4.461,4.4534,4.4266,4.3871,4.3737,4.3508,4.2972,4.2428,4.208,4.2051,4.128,4.0713,4.0713,4.0449,3.9942,3.9491,3.9095,3.8724,3.8293,3.8031,3.79,3.79,3.79,3.79,3.79,3.79,3.79,3.7854,3.7598,3.732,3.7108,3.6781,3.6143,3.521,3.4921,3.4385,3.3499,3.3201,3.3201,3.3128,3.2677,3.2071,3.1524,3.0813,3.0628,3.0422,3.0306,3.0125,2.9988,3.0034,2.9943,2.9761,2.9486,2.9096,2.8634,2.8121,2.7887,2.784,2.727,2.6645,2.6346,2.5904,2.5353,5.9574,5.9019,5.9616,5.9873,5.971,5.9275,5.9058,5.8732,5.7781,5.664,5.5518,5.541,5.4731,5.3782,5.3652,5.3652,5.3894,5.4493,5.473,5.4592,5.3979,5.3342,5.2763,5.2882,5.2675,5.2272,5.2334,5.204,5.1432,5.0659,4.9994,4.9678,4.9464,4.9357,4.9475,4.8712,4.8151,4.7561,4.7049,4.6632,4.6284,4.7016,4.7263,4.6695,4.6561,4.6777,4.7334,4.6177,4.5432,4.537,4.488,4.4595,4.4419,4.4303,4.394,4.3419,4.3166,4.2834,4.2353,4.2185,4.2099,4.201,4.1398,4.0765,4.0646,4.0121,3.9654,3.9501,3.9139,3.8783,3.8705,3.8344,3.8004,3.79,3.79,3.79,3.79,3.79,3.79,3.7762,3.7413,3.7108,3.6968,3.6546,3.581,3.4921,3.4483,3.3944,3.2901,3.265,3.3001,3.2851,3.2085,3.1236,3.0514,2.9807,2.9807,2.9754,2.9736,2.9624,2.9441,2.9395,2.9073,2.8841,2.847,2.8096,2.7342,2.6839,2.6572,2.6388,2.5972,2.6008,2.5777,2.5465,2.4987,5.929,5.853,5.948,5.9643,5.9344,5.9507,5.9182,5.8367,5.7906,5.6902,5.5627,5.541,5.4731,5.3809,5.3592,5.3592,5.3592,5.3833,5.3921,5.3812,5.3293,5.2693,5.2182,5.198,5.171,5.132,5.0924,5.0694,5.0329,4.9459,4.8813,4.8616,4.8274,4.7774,4.7488,4.7157,4.6623,4.5709,4.5903,4.5756,4.5293,4.6092,4.6447,4.6285,4.6211,4.6385,4.6499,4.5466,4.4881,4.4893,4.4294,4.3843,4.3562,4.3465,4.3224,4.2883,4.2768,4.2649,4.2266,4.1716,4.1471,4.1259,4.0616,4.0097,4.005,3.9817,3.9651,3.9651,3.9416,3.9337,3.9285,3.9207,3.8736,3.8004,3.79,3.7926,3.79,3.7762,3.7551,3.7366,3.7015,3.6781,3.6499,3.5906,3.4872,3.3845,3.3178,3.2348,3.1403,3.1249,3.0991,3.0888,3.0484,3.0502,2.9989,2.9581,2.9402,2.9202,2.9045,2.8861,2.8746,2.8631,2.8305,2.7977,2.762,2.7098,2.6304,2.5888,2.5723,2.5674,2.5809,2.5702,2.5527,2.5254,2.4922,5.8887,5.853,5.9236,5.9344,5.8992,5.9182,5.8937,5.8367,5.7933,5.7092,5.6142,5.56,5.4867,5.4026,5.37,5.3592,5.3592,5.3592,5.3592,5.3565,5.3266,5.2615,5.1801,5.1132,5.0758,5.0543,5.0188,4.9886,4.9639,4.8733,4.8102,4.7881,4.7279,4.6864,4.6428,4.6181,4.566,4.5073,4.5066,4.4889,4.4734,4.5213,4.5434,4.5252,4.5434,4.5434,4.5149,4.4506,4.4326,4.4414,4.3965,4.3372,4.3006,4.2978,4.283,4.2458,4.2401,4.2268,4.1911,4.141,4.109,4.0994,4.054,4.0252,4.0252,4.0226,4.0252,4.0252,4.0043,3.9913,3.9886,3.9703,3.9259,3.8658,3.8344,3.8135,3.7932,3.7644,3.7201,3.6803,3.6332,3.5928,3.5307,3.4775,3.3773,3.2778,3.2044,3.1227,3.0339,3.0099,2.9994,2.9994,3.013,2.9985,2.9673,2.9404,2.9063,2.8674,2.8279,2.8052,2.7826,2.7783,2.7573,2.7404,2.7071,2.6812,2.611,2.5868,2.5674,2.5674,2.5674,2.5635,2.5605,2.5547,2.5254,5.8195,5.8737,5.8737,5.855,5.8415,5.8064,5.8091,5.8452,5.7667,5.7071,5.6794,5.5844,5.5057,5.4433,5.3836,5.3592,5.3592,5.3592,5.3592,5.3592,5.3456,5.294,5.1828,5.0827,5.0284,5.0066,5.0012,4.974,4.9306,4.8681,4.8002,4.7593,4.705,4.6508,4.6342,4.591,4.569,4.5333,4.472,4.4431,4.4233,4.4526,4.4415,4.3804,4.4294,4.4387,4.389,4.3665,4.3882,4.4391,4.3653,4.3069,4.2883,4.2899,4.2502,4.1994,4.2027,4.1802,4.1394,4.1297,4.129,4.1264,4.1214,4.1298,4.1141,4.1089,4.1089,4.1089,4.0723,4.0461,4.0383,4.0122,3.9734,3.9503,3.8981,3.8559,3.797,3.7588,3.6861,3.5955,3.5379,3.4775,3.392,3.3426,3.2678,3.1971,3.1534,3.0836,3.0339,2.9994,2.9994,2.9994,2.9994,2.9932,2.9766,2.9663,2.9373,2.8959,2.8462,2.8048,2.751,2.7365,2.7214,2.6976,2.6688,2.64,2.6159,2.5868,2.5723,2.5674,2.5674,2.5674,2.5654,2.5625,2.5547,5.5511,5.5289,5.5731,5.5653,5.5393,5.594,5.6404,5.6532,5.6651,5.6474,5.6357,5.5735,5.5049,5.446,5.389,5.3592,5.3592,5.3592,5.3592,5.3592,5.3592,5.2913,5.1909,5.1041,5.0417,5.0064,5.001,4.9928,4.9739,4.9142,4.8517,4.8002,4.7378,4.6645,4.5967,4.6102,4.575,4.5126,4.5204,4.4711,4.4102,4.42,4.4035,4.3478,4.3594,4.3566,4.3355,4.297,4.2964,4.3298,4.3018,4.2501,4.2133,4.1893,4.1769,4.1581,4.1546,4.1482,4.1337,4.1319,4.1298,4.1324,4.1324,4.1324,4.1324,4.1324,4.1324,4.1298,4.1141,4.1063,4.1036,4.0856,4.0398,3.9514,3.9246,3.8759,3.7728,3.6991,3.6161,3.4911,3.4155,3.3618,3.3197,3.2499,3.1942,3.1483,3.094,3.0443,3.0099,2.9994,2.9994,2.9994,2.9994,2.9994,2.9953,2.9891,2.9704,2.9352,2.8959,2.8628,2.8028,2.7531,2.7242,2.6928,2.6688,2.64,2.6159,2.5868,2.582,2.5674,2.5674,2.5674,2.5674,2.5635,2.5635,5.4021,5.392,5.4279,5.4227,5.3997,5.468,5.5047,5.5237,5.5252,5.5508,5.555,5.5286,5.4781,5.419,5.4059,5.3809,5.3619,5.3592,5.3592,5.3592,5.3592,5.294,5.1936,5.1177,5.0607,5.0064,5.001,5.001,4.9901,4.9413,4.8896,4.8517,4.7785,4.6998,4.6508,4.6075,4.5967,4.5505,4.537,4.4908,4.4606,4.4189,4.3906,4.3497,4.3306,4.3115,4.3067,4.2755,4.256,4.2533,4.2338,4.1944,4.1597,4.1398,4.1324,4.1324,4.1324,4.1298,4.1324,4.1324,4.1324,4.1324,4.1324,4.1324,4.1324,4.1324,4.1324,4.1298,4.1324,4.1324,4.1224,4.0997,4.0261,3.9297,3.907,3.8467,3.7068,3.6477,3.5456,3.4221,3.3282,3.261,3.2251,3.143,3.1064,3.0836,3.0443,3.0151,2.9994,2.9994,2.9994,2.9994,2.9994,2.9994,2.9994,2.9953,2.9932,2.9622,2.9352,2.9042,2.8566,2.7903,2.751,2.7173,2.679,2.64,2.6159,2.5965,2.5771,2.5674,2.5674,2.5674,2.5674,2.5674,2.5674,5.3148,5.3581,5.3581,5.3555,5.3487,5.3581,5.3818,5.4347,5.4014,5.4202,5.4592,5.4602,5.409,5.3681,5.3601,5.3705,5.3166,5.2983,5.3227,5.3288,5.3268,5.2755,5.2072,5.1394,5.0797,5.0254,5.0091,5.001,4.9901,4.9467,4.9223,4.8843,4.8002,4.7513,4.7051,4.6345,4.6048,4.6102,4.556,4.5288,4.5207,4.466,4.4221,4.39,4.3384,4.3058,4.2879,4.2609,4.2364,4.2141,4.1845,4.1647,4.1398,4.1348,4.1324,4.1324,4.1324,4.1324,4.1324,4.1324,4.1324,4.1324,4.1324,4.1324,4.1324,4.1324,4.1324,4.1324,4.1324,4.1224,4.0946,4.044,3.9519,3.8617,3.8327,3.7473,3.6359,3.577,3.4999,3.3453,3.2625,3.1752,3.1,3.0367,3.0109,3.0443,3.0099,3.0047,2.9994,2.9994,2.9994,2.9994,2.9994,2.9994,2.9994,2.9994,2.9994,2.987,2.9642,2.9352,2.9042,2.8475,2.7984,2.757,2.7219,2.6706,2.6255,2.6062,2.5839,2.5674,2.5674,2.5674,2.5674,2.5674,2.5674,5.1675,5.1376,5.1376,5.1376,5.1376,5.1376,5.196,5.2798,5.2742,5.311,5.3784,5.3582,5.3057,5.2529,5.2336,5.1739,5.146,5.1471,5.1659,5.2404,5.2465,5.252,5.2301,5.1824,5.1285,5.0715,5.02,5.001,4.9928,4.982,4.9576,4.906,4.849,4.7812,4.7377,4.6779,4.6319,4.6428,4.6157,4.5858,4.5614,4.537,4.4936,4.4501,4.3904,4.3335,4.2858,4.2435,4.2164,4.2043,4.1845,4.1647,4.1547,4.1398,4.1324,4.1324,4.1324,4.1324,4.1324,4.1324,4.1324,4.1324,4.1324,4.1324,4.1324,4.1324,4.1324,4.1324,4.1274,4.0946,4.0211,3.9312,3.8425,3.7607,3.7019,3.6171,3.4965,3.4746,3.406,3.28,3.1978,3.1416,3.0835,3.0677,3.0408,3.0118,3.0015,3.0015,2.9994,2.9994,2.9994,2.9994,2.9994,2.9994,2.9994,2.9994,2.9994,2.9994,2.9829,2.9704,2.9373,2.9083,2.8569,2.8107,2.7639,2.7122,2.66,2.6218,2.6064,2.5879,2.5693,2.5674,2.5674,2.5674,2.5479,5.096,5.072,5.0696,5.0696,5.0696,5.0696,5.1025,5.1492,5.1562,5.1816,5.2391,5.2503,5.2195,5.1504,5.1569,5.1383,5.0742,5.0588,5.0905,5.1471,5.1819,5.2218,5.2306,5.1998,5.1502,5.0878,5.0281,5.0037,5.001,4.9983,4.982,4.9521,4.8869,4.8355,4.7785,4.7161,4.6779,4.6562,4.6535,4.6292,4.6048,4.5994,4.5723,4.5075,4.4401,4.3755,4.3313,4.2667,4.2309,4.2073,4.1773,4.1524,4.1498,4.1424,4.1324,4.1324,4.1324,4.1324,4.1324,4.1324,4.1324,4.1324,4.1324,4.1324,4.1324,4.1324,4.1047,4.0846,4.0593,4.0236,3.8896,3.8295,3.734,3.6449,3.574,3.5046,3.4302,3.414,3.3744,3.2552,3.2016,3.1705,3.1381,3.1133,3.0781,3.0491,3.0367,3.0325,2.9994,2.9994,2.9994,2.9994,2.9994,2.9994,2.9994,2.9994,2.9994,2.9994,2.9953,2.9891,2.9766,2.9477,2.9166,2.8601,2.7991,2.7516,2.7039,2.6683,2.6114,2.5849,2.5664,2.5693,2.5499,2.5126,2.4892,5.0768,5.0696,5.0696,5.0696,5.0696,5.0696,5.0696,5.0696,5.0696,5.0908,5.0837,5.1677,5.1358,5.0702,5.1147,5.1003,5.0268,5.0014,4.995,5.0397,5.1005,5.1351,5.1444,5.125,5.0773,5.0474,5.0167,4.998,5.001,5.001,4.9956,4.9874,4.9386,4.8788,4.8327,4.7676,4.716,4.6806,4.6589,4.6455,4.6401,4.6426,4.6102,4.5481,4.4816,4.4199,4.3741,4.3128,4.2616,4.2312,4.181,4.161,4.1533,4.135,4.1324,4.1324,4.1324,4.1324,4.1324,4.1324,4.1324,4.1324,4.1324,4.1147,4.1097,4.0946,4.0593,4.0058,3.9595,3.8896,3.7287,3.6827,3.6309,3.5455,3.4736,3.4311,3.3974,3.3692,3.3176,3.2794,3.2354,3.2029,3.1857,3.1629,3.1236,3.0905,3.0781,3.0594,3.0263,3.0015,3.0015,2.9994,2.9994,2.9994,2.9994,2.9889,2.9942,2.9554,2.9659,2.9501,2.9501,2.8983,2.8545,2.8768,2.835,2.7703,2.6922,2.6133,2.5672,2.5564,2.5237,2.4876,2.4683,2.4461,2.4244,5.1105,5.0696,5.0696,5.0696,5.0696,5.0696,5.0696,5.0696,5.0696,5.0696,5.0696,5.0884,5.0443,4.9689,4.947,4.9066,4.846,4.8396,4.8632,4.9102,4.9632,4.9863,5.0054,4.9802,4.9265,4.8982,4.9249,4.9727,4.984,5.001,4.9643,4.9761,4.9299,4.8838,4.846,4.8002,4.7298,4.6973,4.6701,4.6616,4.6535,4.6508,4.6292,4.5777,4.5223,4.4689,4.4157,4.3588,4.3227,4.3148,4.289,4.2709,4.2423,4.1796,4.1406,4.1455,4.1481,4.1533,4.1428,4.1376,4.1324,4.1324,4.1198,4.0846,4.0491,4.0211,3.9801,3.9,3.8161,3.734,3.6804,3.6036,3.529,3.4624,3.4177,3.3692,3.3409,3.3126,3.2898,3.2706,3.2525,3.2421,3.2194,3.2023,3.1712,3.136,3.1133,3.0864,3.0512,3.0243,3.0056,3.0036,2.9994,2.9994,2.9994,2.9889,2.9711,2.8953,2.8741,2.8422,2.8262,2.7868,2.7748,2.776,2.7702,2.7221,2.637,2.5563,2.4933,2.4612,2.4239,2.3965,2.391,2.3768,2.339,5.0936,5.072,5.0696,5.0696,5.0696,5.0696,5.0696,5.0696,5.0696,5.0696,5.0696,5.0648,5.0119,4.9325,4.9084,4.8483,4.7714,4.7497,4.7659,4.7922,4.8318,4.8494,4.866,4.8472,4.8359,4.8223,4.8492,4.8553,4.8553,4.8469,4.8611,4.85,4.8237,4.7999,4.7797,4.7601,4.713,4.6839,4.6786,4.6754,4.6509,4.6482,4.6374,4.635,4.5711,4.5151,4.4696,4.3965,4.3598,4.3361,4.3127,4.3023,4.271,4.2216,4.1673,4.2033,4.2058,4.1979,4.1821,4.1742,4.1486,4.072,4.0669,4.0262,3.9647,3.9208,3.8739,3.7791,3.6881,3.6091,3.5763,3.5124,3.4702,3.4255,3.3749,3.3409,3.3203,3.2898,3.2727,3.2669,3.2607,3.2545,3.2483,3.2333,3.2147,3.1857,3.1526,3.1174,3.0822,3.0574,3.0325,2.9887,2.9793,2.9448,2.9396,2.9237,2.8973,2.8262,2.7761,2.7438,2.7168,2.6844,2.659,2.6388,2.6312,2.6305,2.598,2.5198,2.4456,2.3717,2.3595,2.3508,2.3299,2.3056,2.2603,5.0696,5.0696,5.0696,5.0696,5.0696,5.0696,5.0696,5.0696,5.0696,5.0696,5.0696,5.0527,4.9974,4.9205,4.8748,4.8267,4.7497,4.7497,4.7347,4.7213,4.7555,4.7636,4.7345,4.7257,4.7248,4.6839,4.6803,4.6849,4.7442,4.7442,4.7324,4.7416,4.7239,4.7026,4.685,4.7143,4.6686,4.652,4.6379,4.6491,4.6115,4.6008,4.6115,4.6491,4.5607,4.4783,4.4282,4.3669,4.3246,4.3041,4.2833,4.278,4.2675,4.2217,4.2163,4.2597,4.2575,4.2241,4.1905,4.1698,4.1104,4.0206,3.9951,3.9409,3.8582,3.795,3.7364,3.6449,3.584,3.5257,3.498,3.459,3.4255,3.3918,3.3523,3.3203,3.3033,3.2841,3.2727,3.2669,3.2669,3.2628,3.2566,3.2545,3.2416,3.225,3.1919,3.165,3.1319,3.1008,3.0665,2.988,2.9412,2.8887,2.8635,2.8315,2.7887,2.7133,2.6681,2.6354,2.6136,2.5899,2.5535,2.5243,2.5116,2.514,2.4928,2.4624,2.3649,2.3004,2.3025,2.29,2.2471,2.2157,2.1744,5.0696,5.0696,5.0696,5.0696,5.0625,5.0625,5.0696,5.0625,5.0625,5.0696,5.0529,5.0191,4.9662,4.8988,4.8098,4.769,4.7521,4.7473,4.7353,4.713,4.7037,4.6617,4.603,4.5571,4.5537,4.533,4.5012,4.5732,4.655,4.6909,4.7027,4.6968,4.6849,4.7036,4.6561,4.6609,4.6367,4.6091,4.5438,4.4775,4.439,4.4341,4.4203,4.3955,4.3572,4.3305,4.3042,4.2599,4.2301,4.2246,4.2134,4.2128,4.2195,4.2535,4.2209,4.1773,4.1109,4.0607,4.0666,4.0749,4.0418,3.9652,3.9369,3.8543,3.7648,3.6642,3.5908,3.5312,3.5035,3.4813,3.4423,3.4199,3.3861,3.36,3.326,3.3012,3.2841,3.2841,3.2727,3.2669,3.2669,3.2669,3.2628,3.2649,3.2628,3.2463,3.2256,3.1932,3.1456,3.0921,3.0383,2.949,2.8819,2.8323,2.7663,2.7373,2.6791,2.6044,2.5606,2.5258,2.5038,2.4778,2.4445,2.4167,2.4111,2.3888,2.3589,2.315,2.2486,2.224,2.2165,2.1882,2.1442,2.1151,2.1092,4.9604,5.0033,5.0033,5.0033,5.0033,5.0033,5.0033,5.0033,5.0246,5.015,4.9958,4.9928,4.9421,4.8603,4.781,4.7521,4.7497,4.7497,4.7112,4.6728,4.6367,4.5774,4.5116,4.4741,4.4453,4.4381,4.4347,4.4656,4.5489,4.5646,4.5611,4.5646,4.5586,4.5464,4.5828,4.5905,4.5783,4.543,4.4941,4.451,4.4203,4.3947,4.3657,4.33,4.2799,4.2463,4.21,4.1728,4.1501,4.1501,4.1501,4.1501,4.1353,4.1235,4.0806,4.0548,3.9708,3.9594,4.013,4.0193,3.9681,3.8959,3.8516,3.7979,3.6858,3.6072,3.5434,3.5153,3.4722,3.441,3.4073,3.3805,3.3544,3.326,3.3054,3.2898,3.2727,3.2727,3.2669,3.2669,3.2669,3.2669,3.2669,3.2669,3.2669,3.253,3.2023,3.1442,3.0721,2.9931,2.9325,2.8705,2.8125,2.766,2.6865,2.6349,2.5745,2.5082,2.4535,2.42,2.396,2.3641,2.3528,2.336,2.3287,2.295,2.24,2.2157,2.2013,2.1631,2.1261,2.1203,2.1203,2.1174,2.1139,4.7999,4.8585,4.9056,4.9221,4.9221,4.9245,4.9245,4.9293,4.951,4.9464,4.9249,4.9358,4.8916,4.8195,4.769,4.7497,4.7497,4.7497,4.6944,4.6367,4.5886,4.539,4.4837,4.4477,4.4309,4.4285,4.4285,4.4409,4.4409,4.4409,4.4532,4.4285,4.4594,4.447,4.4532,4.4804,4.4926,4.4361,4.4202,4.3944,4.3601,4.3307,4.2831,4.2344,4.1955,4.1476,4.1191,4.0697,4.035,4.0374,4.0316,4.0257,4.0223,4.0,3.9564,3.9318,3.8789,3.8817,3.9233,3.9312,3.9021,3.8377,3.7679,3.7201,3.6538,3.5927,3.5637,3.5351,3.4962,3.4539,3.4147,3.3705,3.347,3.3257,3.2945,3.2768,3.2669,3.2669,3.2669,3.2669,3.2669,3.2669,3.2669,3.2669,3.2669,3.2555,3.1937,3.1049,3.0045,2.9032,2.8386,2.7742,2.7029,2.6636,2.6097,2.5412,2.4731,2.4298,2.3804,2.3465,2.3408,2.3263,2.3135,2.2909,2.2683,2.24,2.2059,2.1847,2.1618,2.139,2.1203,2.1203,2.1203,2.1203,2.1203,4.575,4.6194,4.7794,4.8427,4.8404,4.845,4.8427,4.8361,4.8328,4.845,4.8544,4.8458,4.8079,4.769,4.7503,4.7431,4.7497,4.7497,4.7023,4.6542,4.615,4.5446,4.4894,4.4463,4.4223,4.4223,4.4223,4.4223,4.4285,4.4223,4.4223,4.4285,4.4285,4.4285,4.4223,4.4113,4.3959,4.349,4.3325,4.2735,4.2254,4.1787,4.1338,4.0375,3.9814,3.9344,3.9026,3.8871,3.8834,3.8834,3.8812,3.8812,3.8857,3.8904,3.8724,3.835,3.8386,3.8274,3.8246,3.8408,3.8236,3.7655,3.7144,3.6733,3.637,3.6158,3.5852,3.554,3.5229,3.4917,3.4482,3.4085,3.3659,3.3439,3.3178,3.2934,3.2851,3.269,3.269,3.2669,3.2669,3.2669,3.2498,3.244,3.2612,3.2555,3.1285,3.0413,2.9108,2.807,2.7434,2.6765,2.5956,2.547,2.5227,2.4804,2.4514,2.4293,2.3876,2.3479,2.319,2.3045,2.3076,2.2683,2.2513,2.2116,2.1831,2.166,2.1504,2.1318,2.1203,2.1203,2.1203,2.1203,2.1203,4.3593,4.3772,4.5233,4.6168,4.6815,4.6815,4.6815,4.6864,4.6945,4.7165,4.7469,4.7471,4.7356,4.7213,4.7165,4.7165,4.7189,4.6898,4.6632,4.6246,4.5657,4.5134,4.4674,4.4159,4.3701,4.3725,4.3826,4.3826,4.3701,4.385,4.3826,4.3826,4.4013,4.4075,4.395,4.3514,4.3185,4.3059,4.2691,4.2113,4.1777,4.108,4.0409,3.9613,3.8894,3.8596,3.8298,3.7976,3.7818,3.7818,3.7818,3.7818,3.7878,3.8039,3.7934,3.7659,3.7857,3.7731,3.75,3.7616,3.7648,3.7537,3.7176,3.6963,3.6697,3.6588,3.6258,3.5913,3.5505,3.5066,3.4602,3.4181,3.39,3.3738,3.3492,3.3223,3.3099,3.3016,3.2851,3.2892,3.2731,3.2669,3.242,3.2133,3.2363,3.244,3.0995,2.9611,2.8235,2.7202,2.6662,2.6294,2.5572,2.5125,2.4941,2.4682,2.4423,2.4231,2.3981,2.3699,2.3419,2.3298,2.3241,2.2798,2.2343,2.2002,2.1774,2.1546,2.1375,2.1261,2.1203,2.1203,2.1203,2.1203,2.1203,4.1486,4.1842,4.2796,4.4093,4.5288,4.5589,4.5689,4.5622,4.5711,4.5868,4.6195,4.6503,4.6697,4.6697,4.6764,4.6697,4.663,4.6382,4.6143,4.5653,4.5136,4.4619,4.4142,4.3679,4.3231,4.3255,4.3373,4.3349,4.3458,4.3483,4.3349,4.3326,4.3514,4.3514,4.3576,4.3075,4.2759,4.2643,4.2372,4.1807,4.1506,4.0852,4.0066,3.9309,3.859,3.8178,3.7938,3.7676,3.7495,3.7435,3.7435,3.7435,3.7435,3.7374,3.7374,3.7374,3.7374,3.7374,3.7374,3.7374,3.7374,3.7369,3.7369,3.7347,3.7287,3.703,3.6556,3.6213,3.5614,3.5104,3.4763,3.4562,3.436,3.4196,3.3844,3.3575,3.3534,3.3472,3.3223,3.3058,3.2975,3.2876,3.2268,3.1845,3.0956,3.084,2.9648,2.8385,2.7246,2.6382,2.5896,2.5619,2.542,2.5124,2.4846,2.4767,2.4715,2.4476,2.4225,2.4066,2.3832,2.3737,2.3315,2.2724,2.2284,2.1991,2.166,2.139,2.1261,2.1203,2.1203,2.1203,2.1203,2.1203,2.1203,3.9743,4.0385,4.0941,4.2317,4.4058,4.4992,4.5194,4.4954,4.4732,4.4696,4.4982,4.5619,4.589,4.5957,4.616,4.6092,4.5957,4.5799,4.559,4.5149,4.4503,4.4035,4.3548,4.309,4.2645,4.2926,4.2934,4.2945,4.3252,4.2945,4.2783,4.2633,4.257,4.2759,4.3177,4.261,4.2166,4.1911,4.1802,4.1484,4.1115,4.0552,3.9937,3.9107,3.8408,3.7973,3.7758,3.7555,3.7374,3.7374,3.7374,3.7374,3.7374,3.7374,3.7374,3.7374,3.7374,3.7374,3.7374,3.7374,3.7374,3.7374,3.7374,3.7374,3.7314,3.7089,3.6682,3.6271,3.5945,3.562,3.5374,3.5004,3.4878,3.4691,3.4279,3.4051,3.401,3.3824,3.3555,3.341,3.3348,3.3186,3.2336,3.1441,2.9943,2.9057,2.8104,2.7159,2.625,2.5778,2.541,2.5288,2.5226,2.5178,2.496,2.5024,2.4944,2.469,2.4559,2.4356,2.415,2.3959,2.3477,2.2794,2.2394,2.2142,2.1693,2.1218,2.1218,2.1203,2.1203,2.1203,2.1203,2.1203,2.1203,3.8327,3.8823,3.9891,4.0715,4.1463,4.2658,4.3146,4.3184,4.3665,4.3991,4.4226,4.4869,4.5142,4.521,4.5256,4.5256,4.5142,4.4869,4.4687,4.4799,4.3845,4.3524,4.3111,4.2412,4.1901,4.1923,4.2002,4.2066,4.1946,4.2066,4.1979,4.1806,4.1742,4.1934,4.1975,4.1719,4.1271,4.1421,4.1248,4.0983,4.0662,4.0289,3.9739,3.882,3.8331,3.7884,3.7681,3.75,3.7374,3.7374,3.7374,3.7374,3.7374,3.7374,3.7374,3.7374,3.7374,3.7374,3.7314,3.7275,3.7214,3.7253,3.7314,3.7253,3.7093,3.6972,3.6606,3.6239,3.5993,3.5685,3.5396,3.5293,3.5169,3.5107,3.4838,3.461,3.4505,3.4155,3.3906,3.3865,3.3803,3.2553,3.1564,3.0407,2.9007,2.8037,2.7194,2.6692,2.5961,2.5533,2.5165,2.5165,2.5103,2.5103,2.5103,2.5103,2.5103,2.4928,2.4817,2.4754,2.4531,2.4245,2.3716,2.3089,2.2696,2.2279,2.1784,2.135,2.1247,2.1203,2.1203,2.1203,2.1203,2.1203,2.1203,3.7448,3.7874,3.8646,3.9031,3.9395,4.1318,4.2331,4.2515,4.3202,4.3511,4.365,4.4181,4.4388,4.4457,4.4526,4.4457,4.4388,4.425,4.4135,4.4253,4.3175,4.2861,4.2524,4.181,4.1501,4.1367,4.1385,4.1469,4.1767,4.1537,4.1315,4.1057,4.0971,4.1035,4.11,4.0971,4.0841,4.0906,4.0755,4.0602,4.0356,4.0091,3.9633,3.9041,3.8437,3.7942,3.768,3.7505,3.7374,3.7374,3.7374,3.7374,3.7374,3.7374,3.7374,3.7374,3.7253,3.7193,3.6972,3.685,3.685,3.695,3.7071,3.6972,3.6728,3.6545,3.6361,3.6055,3.587,3.5685,3.5479,3.5418,3.5397,3.5314,3.5231,3.4983,3.49,3.461,3.4123,3.4082,3.3437,3.2092,3.0592,2.9289,2.7965,2.7149,2.6333,2.5994,2.5656,2.5349,2.5103,2.5103,2.5103,2.5103,2.5103,2.5103,2.5103,2.5103,2.5056,2.4976,2.4788,2.4443,2.394,2.3426,2.2898,2.2347,2.1861,2.1496,2.135,2.1247,2.1203,2.1203,2.1203,2.1203,2.1203,3.7044,3.7374,3.7411,3.7411,3.7986,4.0841,4.2475,4.3066,4.3115,4.3093,4.3232,4.358,4.3767,4.3789,4.4066,4.4066,4.3789,4.3719,4.3719,4.341,4.268,4.2414,4.1994,4.133,4.1066,4.1155,4.1221,4.1152,4.1861,4.1285,4.0669,4.0474,4.0474,4.0539,4.0604,4.0582,4.0582,4.0539,4.0453,4.0409,4.0277,3.9949,3.9708,3.927,3.8747,3.8226,3.792,3.7658,3.744,3.7374,3.7374,3.7374,3.7374,3.7374,3.7374,3.7253,3.7032,3.6789,3.6545,3.6484,3.6423,3.6462,3.6361,3.6361,3.6361,3.6178,3.5993,3.5809,3.5603,3.5541,3.5418,3.5418,3.5418,3.5397,3.5397,3.5335,3.5273,3.4944,3.437,3.3777,3.3043,3.1741,2.9857,2.842,2.7265,2.661,2.6019,2.5688,2.541,2.5288,2.5103,2.5103,2.5103,2.5103,2.5103,2.5103,2.5103,2.5103,2.5103,2.504,2.4822,2.456,2.4115,2.3566,2.3022,2.2483,2.2009,2.1642,2.1423,2.1364,2.1467,2.1276,2.1306,2.1233,2.1203,3.6622,3.6989,3.7007,3.7007,3.718,3.8673,4.0277,4.1806,4.1926,4.23,4.3254,4.3302,4.3232,4.3372,4.3441,4.3441,4.3372,4.3302,4.3394,4.2977,4.2274,4.2011,4.155,4.1001,4.076,4.0607,4.0651,4.065,4.0804,4.0474,4.0474,4.0344,4.0344,4.0344,4.0344,4.0409,4.0344,4.0344,4.0344,4.0344,4.0344,4.0147,3.9929,3.9535,3.8947,3.8488,3.8117,3.7658,3.7418,3.7374,3.7374,3.7374,3.7374,3.7154,3.6972,3.6728,3.6606,3.6484,3.6361,3.6178,3.6055,3.5972,3.5849,3.5849,3.5911,3.5932,3.5788,3.5603,3.5479,3.5418,3.5418,3.5418,3.5418,3.5418,3.5356,3.5294,3.517,3.4694,3.4055,3.3058,3.2257,3.0746,2.8939,2.7667,2.6674,2.6078,2.57,2.5384,2.5226,2.5103,2.5103,2.5103,2.5103,2.5103,2.5103,2.5103,2.5103,2.5103,2.5042,2.4919,2.4687,2.444,2.4147,2.3626,2.3005,2.2586,2.217,2.1891,2.1701,2.1847,2.192,2.1628,2.1393,2.1379,2.1306,3.6604,3.6824,3.6842,3.6842,3.6844,3.7128,3.8389,3.9982,4.0555,4.1218,4.1806,4.23,4.2511,4.2581,4.2953,4.3145,4.2926,4.2882,4.2795,4.2357,4.1784,4.1524,4.1109,4.076,4.0541,4.0432,4.041,4.0498,4.0432,4.0323,4.0344,4.0344,4.0344,4.0344,4.0344,4.0344,4.0344,4.0344,4.0344,4.0344,4.0344,4.0344,4.0126,3.9777,3.9231,3.8707,3.8335,3.7789,3.7418,3.7314,3.7335,3.7214,3.7132,3.685,3.6545,3.63,3.6239,3.6116,3.5911,3.5788,3.5726,3.5665,3.5541,3.5541,3.5603,3.5665,3.5541,3.5418,3.5418,3.5418,3.5418,3.5418,3.5418,3.5418,3.5294,3.517,3.4735,3.4235,3.3316,3.2263,3.1002,2.9543,2.8168,2.7013,2.6228,2.5975,2.5688,2.5244,2.5165,2.5103,2.5103,2.5103,2.5103,2.5103,2.5042,2.5042,2.498,2.4919,2.4857,2.4734,2.4487,2.4162,2.3792,2.3439,2.2983,2.264,2.2359,2.2213,2.2081,2.2213,2.2257,2.2008,2.1803,2.1774,2.1657,3.6675,3.6769,3.6712,3.6751,3.6732,3.644,3.6941,3.7878,3.8839,3.953,3.9982,4.08,4.1163,4.1242,4.1833,4.1946,4.1684,4.1576,4.1379,4.1429,4.1166,4.0839,4.0713,4.0541,4.0563,4.0651,4.0607,4.041,4.0651,4.052,4.0344,4.0279,4.0344,4.0344,4.0344,4.0344,4.0344,4.0344,4.0344,4.0344,4.0344,4.0344,4.0323,4.0105,3.9493,3.8838,3.8513,3.8011,3.7357,3.7297,3.7093,3.685,3.6667,3.6545,3.6239,3.5972,3.587,3.5747,3.5603,3.5479,3.5479,3.5418,3.5418,3.5418,3.5479,3.5479,3.5418,3.5418,3.5418,3.5418,3.5418,3.5418,3.5418,3.5232,3.5046,3.4797,3.436,3.3398,3.1854,3.0807,2.9622,2.836,2.7933,2.681,2.6407,2.612,2.5754,2.5294,2.5058,2.5058,2.5042,2.5042,2.5103,2.5042,2.4919,2.4857,2.4795,2.4734,2.461,2.4425,2.4115,2.3805,2.3479,2.3204,2.2977,2.2813,2.2637,2.252,2.2447,2.2447,2.2432,2.2315,2.2213,2.2184,2.2023,3.6091,3.6347,3.6366,3.6366,3.6347,3.6256,3.6349,3.6627,3.6531,3.7808,3.9378,3.9637,3.9688,3.9738,3.9894,3.9875,3.9702,3.9848,3.944,3.9687,3.982,3.9841,3.9979,4.0055,4.0387,4.0476,4.0367,4.0062,4.0105,4.0149,4.0279,4.0279,4.0279,4.0344,4.0279,4.0279,4.0214,4.0214,4.0149,4.0149,4.0214,4.0279,4.0257,4.0105,3.9646,3.9102,3.869,3.8003,3.7461,3.7079,3.6688,3.6423,3.6116,3.6055,3.5849,3.5603,3.5541,3.5479,3.5418,3.5418,3.5418,3.5418,3.5418,3.5418,3.5418,3.5418,3.5418,3.5418,3.5418,3.5418,3.5418,3.5418,3.5294,3.5046,3.4735,3.4298,3.3796,3.211,3.0437,2.933,2.823,2.775,2.7354,2.6982,2.6615,2.6216,2.5802,2.5406,2.5153,2.5073,2.4919,2.498,2.5042,2.498,2.4873,2.4672,2.4548,2.4363,2.4239,2.4053,2.379,2.3542,2.3293,2.323,2.3032,2.2945,2.2915,2.2959,2.2886,2.2769,2.2725,2.2637,2.2637,2.2608,2.2418,3.4957,3.5229,3.5376,3.5449,3.5449,3.5614,3.5687,3.5632,3.5449,3.6193,3.759,3.7877,3.8094,3.8235,3.8327,3.8185,3.8125,3.8223,3.8158,3.8234,3.8323,3.8397,3.8766,3.9101,3.8779,3.8835,3.8814,3.8726,3.9033,3.9407,3.9538,3.967,3.9866,4.0149,4.0127,4.0149,3.9953,4.0018,3.9801,3.9735,3.9801,4.0084,4.0149,3.9996,3.9563,3.9086,3.8635,3.7994,3.7543,3.6969,3.651,3.6055,3.5788,3.5665,3.5603,3.5479,3.5418,3.5418,3.5418,3.5418,3.5356,3.5356,3.5356,3.5356,3.5418,3.5418,3.5418,3.5418,3.5418,3.5418,3.5418,3.5418,3.4922,3.4548,3.4153,3.365,3.2174,3.0242,2.9199,2.8493,2.7716,2.7517,2.7156,2.6949,2.663,2.6455,2.6041,2.5486,2.5234,2.4951,2.4842,2.4734,2.4795,2.4857,2.4734,2.4487,2.4224,2.4038,2.3852,2.3666,2.3479,2.3293,2.3106,2.3106,2.3106,2.3091,2.3091,2.3106,2.3106,2.2974,2.2988,2.3003,2.3003,2.2945,2.2784,3.3729,3.3836,3.4288,3.445,3.4505,3.483,3.4902,3.4829,3.4756,3.481,3.5168,3.6001,3.6355,3.6887,3.735,3.7371,3.7262,3.675,3.67,3.6649,3.6853,3.7009,3.7124,3.7227,3.7557,3.7577,3.7489,3.7422,3.7489,3.7857,3.8242,3.8528,3.9057,3.967,3.967,3.9386,3.8925,3.8726,3.866,3.8793,3.921,3.9735,3.9822,3.9584,3.926,3.8852,3.8466,3.8061,3.7615,3.7002,3.6393,3.5893,3.5562,3.5479,3.5479,3.5418,3.5418,3.5418,3.5418,3.5418,3.5294,3.517,3.5232,3.517,3.5108,3.4922,3.4922,3.4922,3.4922,3.4984,3.4984,3.4797,3.4278,3.3776,3.3272,3.2492,3.0484,2.8757,2.823,2.7634,2.7451,2.72,2.7073,2.6867,2.6658,2.65,2.6117,2.5548,2.5109,2.4844,2.4657,2.4487,2.4363,2.4425,2.4425,2.4239,2.3914,2.3666,2.3479,2.3355,2.323,2.3168,2.3106,2.3106,2.3106,2.3106,2.3106,2.3106,2.3106,2.3106,2.3091,2.3091,2.3076,2.3047,2.3076,3.2688,3.2999,3.3678,3.3947,3.4095,3.4389,3.4375,3.4108,3.3786,3.3821,3.4034,3.3939,3.4253,3.4848,3.4636,3.4746,3.5098,3.4954,3.469,3.4458,3.5574,3.581,3.5928,3.623,3.7248,3.7132,3.675,3.6946,3.6298,3.6318,3.6479,3.6567,3.6614,3.6864,3.6864,3.6729,3.6864,3.6864,3.6884,3.6951,3.7975,3.8594,3.9276,3.9233,3.9212,3.8913,3.8528,3.8185,3.7719,3.7191,3.633,3.5686,3.5272,3.5025,3.4984,3.4922,3.4922,3.4984,3.4901,3.4922,3.4735,3.4235,3.411,3.3776,3.3587,3.3189,3.3189,3.3146,3.3209,3.3461,3.3461,3.3209,3.2765,3.2237,3.179,3.0419,2.8674,2.8097,2.7716,2.7451,2.7267,2.7134,2.7051,2.6761,2.6534,2.6312,2.5959,2.5393,2.4868,2.4621,2.4468,2.419,2.3929,2.379,2.3805,2.379,2.3604,2.3355,2.323,2.3168,2.3168,2.3106,2.3106,2.3106,2.3106,2.3106,2.3106,2.3106,2.3106,2.3106,2.3106,2.3106,2.3106,2.3106,2.3106]}]]